[[{"header":{"parameterUnit":"m.s-1","parameterCategory":1,"la1":30.6,"la2":28.766,"lo1":-90.7593,"lo2":-88.6598,"dy":0.0162,"dx":0.0183,"nx":116,"ny":114,"refTime":"2024-05-07T00:00:00:Z","depth":0,"parameterNumber":2,"parameterNumberName":"U-component_of_WINDS"},"data":[0.0,0.0,0.0,0.0,0.0,0.0,0.0,0.0,0.0,0.0,0.0,0.0,0.0,0.0,0.0,0.0,0.0,0.0,0.0,0.0,0.0,0.0,0.0,0.0,0.0,0.0,0.0,0.0,0.0,0.0,0.0,0.0,0.0,0.0,0.0,0.0,0.0,0.0,0.0,0.0,0.0,0.0,0.0,0.0,0.0,0.0,0.0,0.0,0.0,0.0,0.0,0.0,0.0,0.0,0.0,0.0,0.0,0.0,0.0,0.0,0.0,0.0,0.0,0.0,0.0,0.0,0.0,0.0,0.0,0.0,0.0,0.0,0.0,0.0,0.0,0.0,0.0,0.0,0.0,0.0,0.0,0.0,0.0,0.0,0.0,0.0,0.0,0.0,0.0,0.0,0.0,0.0,0.0,0.0,0.0,0.0,0.0,0.0,0.0,0.0,0.0,0.0,0.0,0.0,0.0,0.0,0.0,0.0,0.0,0.0,0.0,0.0,0.0,0.0,0.0,0.0,0.0,0.0,0.0,0.0,0.0,0.0,0.0,0.0,0.0,0.0,0.0,0.0,0.0,0.0,0.0,0.0,0.0,0.0,0.0,0.0,0.0,0.0,0.0,0.0,0.0,0.0,0.0,0.0,0.0,0.0,0.0,0.0,0.0,0.0,0.0,0.0,0.0,0.0,0.0,0.0,0.0,0.0,0.0,0.0,0.0,0.0,0.0,0.0,0.0,0.0,0.0,0.0,0.0,0.0,0.0,0.0,0.0,0.0,0.0,0.0,0.0,0.0,0.0,0.0,0.0,0.0,0.0,0.0,0.0,0.0,0.0,0.0,0.0,0.0,0.0,0.0,0.0,0.0,0.0,0.0,0.0,0.0,0.0,0.0,0.0,0.0,0.0,0.0,0.0,0.0,0.0,0.0,0.0,0.0,0.0,0.0,0.0,0.0,0.0,0.0,0.0,0.0,0.0,0.0,0.0,0.0,0.0,0.0,0.0,0.0,0.0,0.0,0.0,0.0,0.0,0.0,0.0,0.0,0.0,0.0,0.0,0.0,0.0,0.0,0.0,0.0,0.0,0.0,0.0,0.0,0.0,0.0,0.0,0.0,0.0,0.0,0.0,0.0,0.0,0.0,0.0,0.0,0.0,0.0,0.0,0.0,0.0,0.0,0.0,0.0,0.0,0.0,0.0,0.0,0.0,0.0,0.0,0.0,0.0,0.0,0.0,0.0,0.0,0.0,0.0,0.0,0.0,0.0,0.0,0.0,0.0,0.0,0.0,0.0,0.0,0.0,0.0,0.0,0.0,0.0,0.0,0.0,0.0,0.0,0.0,0.0,0.0,0.0,0.0,0.0,0.0,0.0,0.0,0.0,0.0,0.0,0.0,0.0,0.0,0.0,0.0,0.0,0.0,0.0,0.0,0.0,0.0,0.0,0.0,0.0,0.0,0.0,0.0,0.0,0.0,0.0,0.0,0.0,0.0,0.0,0.0,0.0,0.0,0.0,0.0,0.0,0.0,0.0,0.0,0.0,0.0,0.0,0.0,0.0,0.0,0.0,0.0,0.0,0.0,0.0,0.0,0.0,0.0,0.0,0.0,0.0,0.0,0.0,0.0,0.0,0.0,0.0,0.0,0.0,0.0,0.0,0.0,0.0,0.0,0.0,0.0,0.0,0.0,0.0,0.0,0.0,0.0,0.0,0.0,0.0,0.0,0.0,0.0,0.0,0.0,0.0,0.0,0.0,0.0,0.0,0.0,0.0,0.0,0.0,0.0,0.0,0.0,0.0,0.0,0.0,0.0,0.0,0.0,0.0,0.0,0.0,0.0,0.0,0.0,0.0,0.0,0.0,0.0,0.0,0.0,0.0,0.0,0.0,0.0,0.0,0.0,0.0,0.0,0.0,0.0,0.0,0.0,0.0,0.0,0.0,0.0,0.0,0.0,0.0,0.0,0.0,0.0,0.0,0.0,0.0,0.0,0.0,0.0,0.0,0.0,0.0,0.0,0.0,0.0,0.0,0.0,0.0,0.0,0.0,0.0,0.0,0.0,0.0,0.0,0.0,0.0,0.0,0.0,0.0,0.0,0.0,0.0,0.0,0.0,0.0,0.0,0.0,0.0,0.0,0.0,0.0,0.0,0.0,0.0,0.0,0.0,0.0,0.0,0.0,0.0,0.0,0.0,0.0,0.0,0.0,0.0,0.0,0.0,0.0,0.0,0.0,0.0,0.0,0.0,0.0,0.0,0.0,0.0,0.0,0.0,0.0,0.0,0.0,0.0,0.0,0.0,0.0,0.0,0.0,0.0,0.0,0.0,0.0,0.0,0.0,0.0,0.0,0.0,0.0,0.0,0.0,0.0,0.0,0.0,0.0,0.0,0.0,0.0,0.0,0.0,0.0,0.0,0.0,0.0,0.0,0.0,0.0,0.0,0.0,0.0,0.0,0.0,0.0,0.0,0.0,0.0,0.0,0.0,0.0,0.0,0.0,0.0,0.0,0.0,0.0,0.0,0.0,0.0,0.0,0.0,0.0,0.0,0.0,0.0,0.0,0.0,0.0,0.0,0.0,0.0,0.0,0.0,0.0,0.0,0.0,0.0,0.0,0.0,0.0,0.0,0.0,0.0,0.0,0.0,0.0,0.0,0.0,0.0,0.0,0.0,0.0,0.0,0.0,0.0,0.0,0.0,0.0,0.0,0.0,0.0,0.0,0.0,0.0,0.0,0.0,0.0,0.0,0.0,0.0,0.0,0.0,0.0,0.0,0.0,0.0,0.0,0.0,0.0,0.0,0.0,0.0,0.0,0.0,0.0,0.0,0.0,0.0,0.0,0.0,0.0,0.0,0.0,0.0,0.0,0.0,0.0,0.0,0.0,0.0,0.0,0.0,0.0,0.0,0.0,0.0,0.0,0.0,0.0,0.0,0.0,0.0,0.0,0.0,0.0,0.0,0.0,0.0,0.0,0.0,0.0,0.0,0.0,0.0,0.0,0.0,0.0,0.0,0.0,0.0,0.0,0.0,0.0,0.0,0.0,0.0,0.0,0.0,0.0,0.0,0.0,0.0,0.0,0.0,0.0,0.0,0.0,0.0,0.0,0.0,0.0,0.0,0.0,0.0,0.0,0.0,0.0,0.0,0.0,0.0,0.0,0.0,0.0,0.0,0.0,0.0,0.0,0.0,0.0,0.0,0.0,0.0,0.0,0.0,0.0,0.0,0.0,0.0,0.0,0.0,0.0,0.0,0.0,0.0,0.0,0.0,0.0,0.0,0.0,0.0,0.0,0.0,0.0,0.0,0.0,0.0,0.0,0.0,0.0,0.0,0.0,0.0,0.0,0.0,0.0,0.0,0.0,0.0,0.0,0.0,0.0,0.0,0.0,0.0,0.0,0.0,0.0,0.0,0.0,0.0,0.0,0.0,0.0,0.0,0.0,0.0,0.0,0.0,0.0,0.0,0.0,0.0,0.0,0.0,0.0,0.0,0.0,0.0,0.0,0.0,0.0,0.0,0.0,0.0,0.0,0.0,0.0,0.0,0.0,0.0,0.0,0.0,0.0,0.0,0.0,0.0,0.0,0.0,0.0,0.0,0.0,0.0,0.0,0.0,0.0,0.0,0.0,0.0,0.0,0.0,0.0,0.0,0.0,0.0,0.0,0.0,0.0,0.0,0.0,0.0,0.0,0.0,0.0,0.0,0.0,0.0,0.0,0.0,0.0,0.0,0.0,0.0,0.0,0.0,0.0,0.0,0.0,0.0,0.0,0.0,0.0,0.0,0.0,0.0,0.0,0.0,0.0,0.0,0.0,0.0,0.0,0.0,0.0,0.0,0.0,0.0,0.0,0.0,0.0,0.0,0.0,0.0,0.0,0.0,0.0,0.0,0.0,0.0,0.0,0.0,0.0,0.0,0.0,0.0,0.0,0.0,0.0,0.0,0.0,0.0,0.0,0.0,0.0,0.0,0.0,0.0,0.0,0.0,0.0,0.0,0.0,0.0,0.0,0.0,0.0,0.0,0.0,0.0,0.0,0.0,0.0,0.0,0.0,0.0,0.0,0.0,0.0,0.0,0.0,0.0,0.0,0.0,0.0,0.0,0.0,0.0,0.0,0.0,0.0,0.0,0.0,0.0,0.0,0.0,0.0,0.0,0.0,0.0,0.0,0.0,0.0,0.0,0.0,0.0,0.0,0.0,0.0,0.0,0.0,0.0,0.0,0.0,0.0,0.0,0.0,0.0,0.0,0.0,0.0,0.0,0.0,0.0,0.0,0.0,0.0,0.0,0.0,0.0,0.0,0.0,0.0,0.0,0.0,0.0,0.0,0.0,0.0,0.0,0.0,0.0,0.0,0.0,0.0,0.0,0.0,0.0,0.0,0.0,0.0,0.0,0.0,0.0,0.0,0.0,0.0,0.0,0.0,0.0,0.0,0.0,0.0,0.0,0.0,0.0,0.0,0.0,0.0,0.0,0.0,0.0,0.0,0.0,0.0,0.0,0.0,0.0,0.0,0.0,0.0,0.0,0.0,0.0,0.0,0.0,0.0,0.0,0.0,0.0,0.0,0.0,0.0,0.0,0.0,0.0,0.0,0.0,0.0,0.0,0.0,0.0,0.0,0.0,0.0,0.0,0.0,0.0,0.0,0.0,0.0,0.0,0.0,0.0,0.0,0.0,0.0,0.0,0.0,0.0,0.0,0.0,0.0,0.0,0.0,0.0,0.0,0.0,0.0,0.0,0.0,0.0,0.0,0.0,0.0,0.0,0.0,0.0,0.0,0.0,0.0,0.0,0.0,0.0,0.0,0.0,0.0,0.0,0.0,0.0,0.0,0.0,0.0,0.0,0.0,0.0,0.0,0.0,0.0,0.0,0.0,0.0,0.0,0.0,0.0,0.0,0.0,0.0,0.0,0.0,0.0,0.0,0.0,0.0,0.0,0.0,0.0,0.0,0.0,0.0,0.0,0.0,0.0,0.0,0.0,0.0,0.0,0.0,0.0,0.0,0.0,0.0,0.0,0.0,0.0,0.0,0.0,0.0,0.0,0.0,0.0,0.0,0.0,0.0,0.0,0.0,0.0,0.0,0.0,0.0,0.0,0.0,0.0,0.0,0.0,0.0,0.0,0.0,0.0,0.0,0.0,0.0,0.0,0.0,0.0,0.0,0.0,0.0,0.0,0.0,0.0,0.0,0.0,0.0,0.0,0.0,0.0,0.0,0.0,0.0,0.0,0.0,0.0,0.0,0.0,0.0,0.0,0.0,0.0,0.0,0.0,0.0,0.0,0.0,0.0,0.0,0.0,0.0,0.0,0.0,0.0,0.0,0.0,0.0,0.0,0.0,0.0,0.0,0.0,0.0,0.0,0.0,0.0,0.0,0.0,0.0,0.0,0.0,0.0,0.0,0.0,0.0,0.0,0.0,0.0,0.0,0.0,0.0,0.0,0.0,0.0,0.0,0.0,0.0,0.0,0.0,0.0,0.0,0.0,0.0,0.0,0.0,0.0,0.0,0.0,0.0,0.0,0.0,0.0,0.0,0.0,0.0,0.0,0.0,0.0,0.0,0.0,0.0,0.0,0.0,0.0,0.0,0.0,0.0,0.0,0.0,0.0,0.0,0.0,0.0,0.0,0.0,0.0,0.0,0.0,0.0,0.0,0.0,0.0,0.0,0.0,0.0,0.0,0.0,0.0,0.0,0.0,0.0,0.0,0.0,0.0,0.0,0.0,0.0,0.0,0.0,0.0,0.0,0.0,0.0,0.0,0.0,0.0,0.0,0.0,0.0,0.0,0.0,0.0,0.0,0.0,0.0,0.0,0.0,0.0,0.0,0.0,0.0,0.0,0.0,0.0,0.0,0.0,0.0,0.0,0.0,0.0,0.0,0.0,0.0,0.0,0.0,0.0,0.0,0.0,0.0,0.0,0.0,0.0,0.0,0.0,0.0,0.0,0.0,0.0,0.0,0.0,0.0,0.0,0.0,0.0,0.0,0.0,0.0,0.0,0.0,0.0,0.0,0.0,0.0,0.0,0.0,0.0,0.0,0.0,0.0,0.0,0.0,0.0,0.0,0.0,0.0,0.0,0.0,0.0,0.0,0.0,0.0,0.0,0.0,0.0,0.0,2.5015,2.4948,0.0,0.0,0.0,0.0,0.0,0.0,0.0,0.0,0.0,0.0,0.0,0.0,0.0,0.0,0.0,0.0,0.0,0.0,0.0,0.0,0.0,0.0,0.0,4.5423,4.5526,4.5817,4.5851,4.5814,4.5743,0.0,0.0,0.0,0.0,0.0,4.3914,4.3246,4.2747,4.2393,4.2573,4.3251,4.4156,4.2964,4.2108,4.1523,0.0,0.0,0.0,0.0,0.0,0.0,0.0,0.0,0.0,0.0,0.0,0.0,0.0,0.0,0.0,0.0,0.0,0.0,0.0,0.0,0.0,0.0,0.0,0.0,0.0,0.0,0.0,0.0,0.0,0.0,0.0,0.0,0.0,0.0,0.0,0.0,0.0,0.0,0.0,0.0,0.0,0.0,0.0,0.0,0.0,0.0,0.0,0.0,0.0,0.0,0.0,0.0,0.0,0.0,0.0,0.0,0.0,0.0,0.0,0.0,0.0,0.0,0.0,0.0,0.0,0.0,0.0,0.0,0.0,0.0,2.3537,2.3634,0.0,0.0,0.0,0.0,0.0,0.0,0.0,0.0,0.0,0.0,0.0,0.0,0.0,0.0,0.0,0.0,0.0,0.0,0.0,0.0,0.0,4.5371,4.5371,4.5491,4.5818,4.6258,4.6447,4.6477,4.6383,4.6874,4.6669,4.5422,4.5801,4.5344,4.3762,4.3502,4.3089,4.2516,4.3389,4.4318,4.5309,4.4436,4.3743,4.2999,4.1519,0.0,0.0,0.0,0.0,0.0,0.0,0.0,0.0,0.0,0.0,0.0,0.0,0.0,0.0,0.0,0.0,0.0,0.0,0.0,0.0,0.0,0.0,0.0,0.0,0.0,0.0,0.0,0.0,0.0,0.0,0.0,0.0,0.0,0.0,0.0,0.0,0.0,0.0,0.0,0.0,0.0,0.0,0.0,0.0,0.0,0.0,0.0,0.0,0.0,0.0,0.0,0.0,0.0,0.0,0.0,0.0,0.0,0.0,0.0,0.0,0.0,0.0,0.0,2.4351,2.3376,2.2738,2.1918,2.151,2.1324,2.2199,2.2186,2.1441,2.038,0.0,0.0,0.0,0.0,0.0,0.0,0.0,0.0,0.0,0.0,0.0,0.0,0.0,0.0,0.0,0.0,0.0,0.0,0.0,4.5371,4.5247,4.5973,4.6404,4.6292,4.7038,4.7451,4.73,4.7238,4.713,4.6925,4.6159,4.5657,4.5573,4.4218,4.3799,4.4347,4.5244,4.5996,4.6548,4.5295,4.4659,4.4369,4.2962,4.234,4.2325,0.0,0.0,0.0,0.0,0.0,0.0,0.0,0.0,0.0,0.0,0.0,0.0,0.0,0.0,0.0,0.0,0.0,0.0,0.0,0.0,0.0,0.0,0.0,0.0,0.0,0.0,0.0,0.0,0.0,0.0,0.0,0.0,0.0,0.0,0.0,0.0,0.0,0.0,0.0,0.0,0.0,3.1558,3.1175,0.0,0.0,0.0,0.0,0.0,0.0,0.0,0.0,0.0,0.0,0.0,0.0,0.0,2.7041,2.5809,2.5049,2.4147,2.2895,2.2215,2.1802,2.17,2.178,2.1357,2.0611,1.9505,0.0,2.0291,1.9324,0.0,0.0,0.0,0.0,0.0,0.0,0.0,0.0,0.0,0.0,0.0,0.0,0.0,0.0,0.0,0.0,0.0,0.0,0.0,0.0,0.0,4.6335,4.6886,4.7511,4.7962,4.8112,4.7865,4.7733,4.7322,4.6378,4.597,4.5359,4.4624,4.4359,4.4603,4.5423,4.6189,4.6682,4.6914,4.595,4.535,4.5022,4.4041,4.3146,4.2441,4.2206,0.0,0.0,0.0,0.0,0.0,0.0,0.0,0.0,0.0,0.0,0.0,0.0,0.0,0.0,0.0,0.0,0.0,0.0,0.0,0.0,0.0,0.0,0.0,0.0,0.0,0.0,0.0,0.0,0.0,0.0,0.0,0.0,0.0,0.0,0.0,0.0,0.0,0.0,0.0,3.2052,3.2007,3.1795,3.1893,3.1823,0.0,0.0,0.0,0.0,0.0,0.0,0.0,0.0,0.0,2.6735,2.6063,2.5168,2.4172,2.3047,2.2351,2.1847,2.0971,2.0552,2.0718,1.9427,1.8759,1.8256,1.7025,1.6762,1.7096,1.6732,1.6498,1.6456,0.0,0.0,0.0,0.0,1.4892,1.4925,0.0,0.0,0.0,0.0,0.0,0.0,0.0,0.0,0.0,0.0,0.0,0.0,4.6456,4.6886,4.7575,4.8506,4.8839,4.8826,4.8456,4.8489,4.7771,4.6328,4.606,4.5504,4.4458,4.5158,4.5717,4.6222,4.6692,4.6884,4.6678,4.5865,4.539,4.5126,4.4496,4.3655,4.2724,4.25,4.2259,4.1912,0.0,0.0,0.0,0.0,0.0,0.0,0.0,0.0,0.0,0.0,0.0,0.0,0.0,0.0,0.0,0.0,0.0,0.0,0.0,0.0,0.0,0.0,0.0,0.0,0.0,0.0,0.0,0.0,0.0,0.0,0.0,0.0,0.0,0.0,0.0,0.0,0.0,3.2107,3.2117,3.1812,3.1403,3.1002,0.0,0.0,0.0,0.0,0.0,0.0,2.6744,2.6744,2.6309,2.5305,2.4411,2.3328,2.2185,2.1262,2.0727,2.0705,1.9827,1.9376,1.9202,1.7485,1.6461,1.6089,1.4827,1.4263,1.4291,1.4674,1.4945,1.4847,1.4531,1.4347,1.4423,1.407,1.373,1.3399,0.0,0.0,0.0,0.0,0.0,0.0,0.0,0.0,0.0,0.0,0.0,4.649,4.6347,4.7726,4.8695,4.8592,4.9412,4.9825,4.9419,4.9453,4.8917,4.785,4.7139,4.6747,4.6645,4.7374,4.739,4.6763,4.6795,4.6464,4.5769,4.4858,4.4343,4.4358,4.4127,4.3942,4.3881,4.3663,4.3223,4.265,4.2359,0.0,0.0,0.0,0.0,0.0,0.0,0.0,0.0,0.0,0.0,0.0,0.0,0.0,0.0,0.0,0.0,0.0,0.0,0.0,0.0,0.0,0.0,0.0,0.0,0.0,0.0,0.0,0.0,0.0,0.0,0.0,0.0,0.0,0.0,0.0,0.0,0.0,0.0,3.0193,2.9858,0.0,0.0,0.0,0.0,2.6409,2.6191,2.5881,2.4923,2.4923,2.4351,2.3199,2.3087,2.1987,1.9851,1.9851,1.9296,1.8515,1.8647,1.8005,1.674,1.6979,1.6188,1.4893,1.3569,1.2779,1.2521,1.4159,1.4908,1.4764,1.3572,1.307,1.301,1.1792,1.0392,0.9068,0.0,0.0,0.0,0.0,0.0,4.5423,4.5423,4.5423,4.5423,4.5423,4.6113,4.6731,4.7179,4.8144,4.8953,4.9279,4.9705,4.9801,4.935,4.8951,4.8336,4.7221,4.6949,4.7017,4.7489,4.7754,4.7556,4.6811,4.6673,4.5969,4.4783,4.4343,4.4065,4.391,4.3832,4.366,4.3329,4.3423,4.321,4.2862,4.2208,4.1607,0.0,0.0,0.0,0.0,0.0,0.0,0.0,0.0,0.0,0.0,0.0,0.0,0.0,0.0,0.0,0.0,0.0,0.0,0.0,0.0,0.0,0.0,0.0,0.0,0.0,0.0,0.0,0.0,0.0,0.0,0.0,0.0,0.0,0.0,0.0,0.0,0.0,2.8986,2.8455,0.0,2.7931,2.7276,2.6617,2.6191,2.556,2.4795,2.3664,2.3664,2.3095,2.182,2.1227,2.0468,1.9753,1.9127,1.8263,1.7269,1.7354,1.6716,1.5445,1.4474,1.3857,1.3468,1.1626,1.0891,1.1118,1.1795,1.1978,1.1924,1.1812,1.1155,1.0301,0.9799,0.8728,0.7499,0.0,0.0,0.0,4.5476,4.5423,4.5423,4.5423,4.5423,4.5527,4.5786,4.651,4.7269,4.801,4.8769,4.9367,4.975,4.986,4.9742,4.935,4.8668,4.7933,4.7204,4.7153,4.7272,4.7556,4.7688,4.7339,4.6324,4.6095,4.5405,4.4205,4.3988,4.3847,4.369,4.3518,4.325,4.2981,4.301,4.293,4.2886,4.2296,4.1842,4.1374,0.0,0.0,0.0,0.0,0.0,0.0,0.0,0.0,0.0,0.0,0.0,0.0,0.0,0.0,0.0,0.0,0.0,0.0,0.0,0.0,0.0,0.0,0.0,0.0,0.0,0.0,0.0,0.0,0.0,0.0,0.0,0.0,0.0,0.0,2.9713,2.8764,2.8019,2.7375,2.6952,2.6952,2.62,2.5661,2.5661,2.4667,2.3776,2.3087,2.2394,2.1645,2.0715,1.9757,1.925,1.921,1.8066,1.7161,1.6366,1.6105,1.5287,1.3993,1.2812,1.2192,1.1851,1.0525,0.994,1.007,1.0528,1.0288,0.9622,1.0231,0.9698,0.8586,0.8627,0.7693,0.6173,0.0,4.5786,4.5701,4.5476,4.5423,4.5423,4.5423,4.5423,4.5717,4.651,4.7251,4.7993,4.8734,4.9528,5.0011,5.0011,4.9784,4.9649,4.9488,4.8668,4.8063,4.795,4.7885,4.7556,4.688,4.7406,4.69,4.539,4.5243,4.4768,4.3988,4.3754,4.369,4.369,4.317,4.2981,4.2996,4.2541,4.2541,4.2688,4.2688,4.2144,4.1237,0.0,0.0,0.0,0.0,0.0,0.0,0.0,0.0,0.0,0.0,0.0,0.0,0.0,0.0,0.0,0.0,0.0,0.0,0.0,0.0,0.0,0.0,0.0,0.0,0.0,0.0,0.0,0.0,0.0,0.0,0.0,0.0,0.0,2.9313,2.8658,2.7902,2.7384,2.6518,2.6082,2.6082,2.5238,2.4701,2.4701,2.3295,2.2613,2.2877,2.1137,2.0014,1.9641,1.9054,1.8483,1.816,1.6778,1.5992,1.5809,1.5168,1.3862,1.2157,1.2165,1.1599,1.0409,1.0402,1.0073,0.966,1.0789,0.9847,0.7986,0.869,0.8697,0.8157,0.8407,0.7135,0.4952,4.5563,4.5511,4.5459,4.5423,4.5423,4.5423,4.5423,4.5423,4.5717,4.651,4.7251,4.7993,4.8734,4.9528,4.9877,4.9683,4.9666,4.953,4.9185,4.8968,4.8827,4.8719,4.8177,4.8032,4.8227,4.8403,4.7638,4.5953,4.5794,4.502,4.3769,4.3503,4.3329,4.317,4.3076,4.285,4.2541,4.2474,4.2325,4.2242,4.2242,4.2126,4.1662,0.0,0.0,0.0,0.0,0.0,0.0,0.0,0.0,0.0,0.0,0.0,0.0,0.0,0.0,0.0,0.0,0.0,0.0,0.0,0.0,0.0,0.0,0.0,0.0,0.0,0.0,0.0,0.0,0.0,0.0,0.0,2.6933,2.6943,2.758,2.7041,2.6409,2.5569,2.5357,2.5136,2.5136,2.3983,2.3183,2.3183,2.1684,2.0522,1.9945,1.9371,1.8809,1.8033,1.7972,1.7383,1.625,1.6034,1.4966,1.2787,1.266,1.1886,1.0455,1.0152,1.0084,0.9995,0.9417,0.9396,0.9662,0.9564,0.8048,0.5793,0.7085,0.6943,0.623,0.64,0.51,0.3064,4.5423,4.5423,4.5423,4.5423,4.5423,4.5423,4.5423,4.5423,4.582,4.6941,4.7441,4.8131,4.92,4.966,4.9801,4.9607,4.953,4.935,4.9107,4.9107,4.8923,4.8576,4.8386,4.8258,4.8275,4.7852,4.6932,4.5593,4.5064,4.4358,4.3518,4.325,4.3076,4.2981,4.2835,4.2622,4.2392,4.2325,4.216,4.1897,4.1897,4.1897,4.1771,3.9883,3.8986,3.8429,3.6526,3.5424,3.4964,3.4666,0.0,0.0,0.0,0.0,0.0,0.0,0.0,0.0,0.0,0.0,0.0,0.0,0.0,0.0,0.0,0.0,0.0,0.0,0.0,0.0,0.0,0.0,0.0,0.0,2.567,2.5661,2.5981,2.5771,2.5229,2.4479,2.4599,2.447,2.3544,2.2838,2.2251,2.1571,2.0197,1.9187,1.8777,1.807,1.7666,1.7445,1.6702,1.6048,1.549,1.4442,1.3058,1.1219,1.1021,1.0394,0.9478,0.9481,0.9569,0.976,0.9148,0.8396,0.7773,0.9385,0.7975,0.481,0.0,0.0,0.0,0.0,0.2479,0.146,4.5423,4.5423,4.5423,4.5423,4.5423,4.5371,4.5371,4.544,4.6025,4.7472,4.773,4.8333,4.978,4.9784,4.9649,4.9649,4.935,4.9168,4.9168,4.9063,4.8719,4.8032,4.8483,4.842,4.7704,4.6571,4.5649,4.4887,4.3927,4.3409,4.325,4.3076,4.2996,4.2915,4.2541,4.2392,4.231,4.216,4.1897,4.1702,4.1702,4.1702,4.1521,4.0474,3.9401,3.8328,3.6977,3.5966,3.5017,3.4823,0.0,0.0,0.0,0.0,0.0,0.0,0.0,0.0,0.0,0.0,0.0,0.0,0.0,0.0,0.0,0.0,0.0,0.0,0.0,0.0,0.0,0.0,0.0,0.0,2.471,2.471,2.4821,2.471,2.4368,2.3921,2.4248,2.3664,2.1813,2.1805,2.1465,2.0127,1.8749,1.8218,1.8406,1.6954,0.0,0.0,0.0,1.459,1.4889,1.2405,1.0975,1.0465,0.9927,0.9588,0.92,0.9348,0.9613,0.9717,0.9171,0.7502,0.5535,0.9216,0.8186,0.4373,0.5832,0.4666,0.1898,0.0438,-0.0438,-0.0876,4.5423,4.5423,4.5423,4.5423,4.5423,4.5353,4.5247,4.5763,4.6447,4.743,4.7969,4.8631,4.9622,4.9607,4.9471,4.929,4.9229,4.9168,4.9063,4.9001,4.8877,4.8627,4.8769,4.858,4.8081,4.7321,4.6394,4.5551,4.4662,4.3834,4.3076,4.2996,4.285,4.2541,4.2474,4.2213,4.1868,4.1785,4.1633,4.148,4.148,4.148,4.1297,3.9489,3.8585,3.7939,3.6143,3.5114,3.4531,3.4531,3.415,3.3866,3.3866,3.358,0.0,0.0,0.0,0.0,0.0,0.0,0.0,0.0,0.0,0.0,0.0,0.0,0.0,0.0,0.0,0.0,0.0,0.0,0.0,2.4821,2.4368,2.4256,2.471,2.3921,2.3464,2.3809,2.2862,2.2047,2.1699,1.9855,1.8797,1.8676,1.7338,1.6592,1.7116,1.5671,1.5027,1.536,1.3926,1.2636,1.1618,1.1097,1.0235,0.9137,0.903,0.0,0.8921,0.9054,0.9269,0.9297,0.9277,0.8905,0.8336,0.6725,0.3943,0.1021,0.2626,0.2043,0.0438,0.0146,-0.321,-0.7456,4.5423,4.5423,4.5371,4.53,4.53,4.5385,4.56,4.5977,4.6644,4.7792,4.8213,4.8726,4.9521,4.9471,4.929,4.9229,4.9107,4.8984,4.8753,4.8815,4.8832,4.8627,4.8564,4.8227,4.7671,4.6828,4.5969,4.511,4.4205,4.3702,4.35,4.3256,4.301,4.2875,4.2626,4.227,4.1688,4.1619,4.1367,4.1198,4.1198,4.1114,4.0944,4.0114,3.9299,3.8482,3.7057,3.5941,3.509,3.4519,3.4052,3.3679,3.3679,3.3481,3.3281,0.0,0.0,0.0,0.0,0.0,0.0,0.0,0.0,0.0,0.0,0.0,0.0,0.0,0.0,2.6518,2.556,0.0,2.471,2.4368,2.4144,2.3921,2.3921,2.3127,2.2788,2.3352,2.2402,2.113,2.0099,1.8842,1.7809,1.7235,1.6653,1.6409,1.6651,1.548,1.4804,1.4907,1.2804,1.1358,1.0704,1.0114,0.9382,0.8772,0.8899,0.8992,0.9054,0.9196,0.9261,0.8973,0.5969,0.467,0.4526,0.292,-0.0438,-0.4525,-0.3794,-0.3939,-0.467,-0.467,-0.5691,-0.7152,4.5371,4.5371,4.5318,4.5247,4.5177,4.5343,4.5947,4.6186,4.6766,4.8131,4.8396,4.8703,4.9359,4.905,4.8826,4.8826,4.8917,4.8815,4.8547,4.8707,4.8707,4.8483,4.8292,4.7886,4.727,4.6269,4.5332,4.4662,4.3521,4.3278,4.3663,4.3319,4.3069,4.2986,4.2664,4.2192,4.1521,4.1381,4.1198,4.0916,4.0916,4.0845,4.0702,4.0845,4.0114,3.8765,3.7599,3.6496,3.5463,3.4519,3.3965,3.358,3.358,3.3369,3.3058,3.2521,3.2207,0.0,0.0,0.0,0.0,0.0,0.0,0.0,0.0,0.0,2.7824,2.7492,2.6844,2.6191,2.5762,2.5128,2.4487,2.3801,2.3576,2.3464,2.3014,2.2222,2.1904,2.2534,2.1705,2.0312,1.8355,1.8007,1.7461,1.6203,1.6447,1.6684,1.6727,1.5341,1.4511,1.4511,1.1754,1.0319,1.0349,0.9258,0.8796,0.8845,0.9049,0.8731,0.8321,0.9023,0.9372,0.8931,0.2772,-0.0,-0.0146,-0.1313,-0.4818,-0.9372,-0.9372,-0.9367,-0.9364,-0.937,-0.7738,-0.5969,4.5247,4.5247,4.5247,4.5177,4.5086,4.5234,4.5852,4.6459,4.7172,4.8065,4.8538,4.8793,4.9046,4.8164,4.7591,4.7591,4.832,4.8707,4.8483,4.8707,4.8644,4.8227,4.8227,4.8115,4.7919,4.641,4.5536,4.5196,4.3726,4.2879,4.2576,4.2494,4.2233,4.1886,4.1803,4.1494,4.1085,4.1085,4.093,4.0688,4.0688,4.0688,4.0702,4.0688,3.9604,3.7704,3.5559,3.4531,3.4261,3.3878,3.358,3.3381,3.3381,3.2958,3.2521,3.242,3.1699,3.0991,3.0888,3.0495,3.0099,2.9994,2.9889,2.9889,0.0,0.0,2.9237,2.7716,2.7276,2.6626,2.4573,2.4024,2.3801,2.3239,2.2675,2.2449,2.2901,2.1303,2.0368,2.1212,1.9949,1.8658,1.7595,1.6858,1.6604,1.6565,1.663,1.6754,1.6958,1.4493,1.3062,1.3062,1.03,0.8907,0.9019,0.89,0.8883,0.9106,0.9133,0.7759,0.5229,0.8033,0.9372,0.8931,0.2772,-0.0,-0.0438,-0.5988,-0.8634,-0.9372,-0.9364,-0.9351,-0.9337,-0.9353,-0.9055,-0.8892,4.5247,4.514,4.5086,4.4978,4.494,4.5222,4.6259,4.6699,4.7327,4.8497,4.8815,4.8894,4.8894,4.8358,4.7968,4.7905,4.8316,4.85,4.8244,4.8373,4.8308,4.8115,4.8049,4.777,4.7218,4.604,4.5138,4.4495,4.322,4.2731,4.2948,4.2767,4.26,4.2278,4.2165,4.1681,4.1001,4.0845,4.0773,4.0702,4.0702,4.0702,4.0616,3.9779,3.8881,3.8056,3.6646,3.5808,0.0,3.4052,3.3481,3.3281,3.2857,3.2633,3.2308,3.1699,3.1197,3.0681,3.0391,3.0193,2.9994,0.0,2.9994,2.9994,2.9994,2.9994,2.9774,2.9016,2.7805,2.6608,2.5634,2.4334,2.3127,2.2562,2.2222,2.1881,2.1189,2.054,1.9764,1.9047,1.8623,1.8147,1.7637,1.6993,1.656,1.6657,1.6786,1.6513,1.5819,1.3849,1.2405,1.1618,0.9722,0.8717,0.8769,0.8916,0.9044,0.915,0.9237,0.8574,0.73,0.4962,0.394,0.3502,-0.277,-0.5402,-0.5403,-0.6274,-0.7736,-0.9348,-0.9343,-0.9332,-0.9318,-0.9334,-0.9332,-0.9315,4.514,4.5032,4.4869,4.4776,4.472,4.523,4.6566,4.6786,4.7327,4.8815,4.894,4.881,4.8375,4.8383,4.8208,4.788,4.8175,4.8292,4.8001,4.8115,4.8115,4.8001,4.7935,4.7571,4.6945,4.6024,4.5079,4.4128,4.322,4.2775,4.2927,4.2731,4.2562,4.2337,4.2038,4.1597,4.093,4.0773,4.0702,4.0702,4.0702,4.0616,4.043,3.9339,3.8792,3.8342,3.7111,3.6364,3.563,3.393,3.3158,3.2958,3.2319,3.2117,3.1801,3.0991,3.0692,3.0495,3.0099,2.9994,0.0,2.9994,2.9994,2.9889,2.9994,2.9994,2.9784,2.9574,2.7814,2.6273,2.5836,2.4094,2.2562,2.2002,2.1728,2.1205,2.0055,1.9713,1.9088,1.7724,1.7688,1.7616,1.7497,1.7031,1.6759,1.6759,1.6518,1.5954,1.4907,1.3193,1.1773,1.0765,0.9531,0.8802,0.887,0.9057,0.8734,0.79,0.8879,0.8341,0.6576,0.2043,-0.0,-0.0292,-0.6576,-0.9372,-0.9076,-0.6853,-0.7283,-0.9332,-0.9326,-0.9315,-0.9304,-0.9318,-0.9315,-0.9304,4.4886,4.4831,4.4776,4.4626,4.4643,4.5077,4.6566,4.6786,4.7327,4.8815,4.8894,4.8375,4.7358,4.7716,4.7703,4.699,4.7699,4.8179,4.8001,4.8115,4.8115,4.8001,4.7787,4.7704,4.7638,4.6775,4.5753,4.4765,4.3944,4.3076,4.2121,4.1829,4.1647,4.1424,4.1128,4.0944,4.0702,4.0702,4.0702,4.0702,4.0702,4.043,3.9996,3.9996,3.938,3.8317,3.5763,3.4823,3.4617,3.3012,3.2409,3.2308,3.1823,3.1311,3.0888,3.0785,3.0391,2.9994,2.9994,2.9774,2.9659,2.9994,2.9774,2.9659,2.9994,2.9774,2.9343,2.8504,2.7187,2.5643,2.4214,2.2998,2.1888,2.1325,2.0646,2.0239,2.0239,1.8809,1.7854,1.8101,1.7278,1.6876,1.6964,1.699,1.699,1.699,1.5694,1.4907,1.4907,1.2281,1.0772,1.0917,0.9579,0.8883,0.912,0.9139,0.7618,0.4801,0.7888,0.6135,0.0292,0.0146,-0.0,-0.0292,-0.6576,-0.9372,-0.9224,-0.9197,-0.9184,-0.9329,-0.9313,-0.9304,-0.9304,-0.9304,-0.9304,-0.9304,4.4831,4.4776,4.4776,4.4626,4.4587,4.5077,4.6566,4.6786,4.7141,4.8156,4.845,0.0,0.0,0.0,0.0,0.0,4.7917,4.8066,4.8001,4.8066,4.8066,4.8001,4.7787,4.7654,4.7604,4.6582,4.5841,4.539,4.4036,4.3126,4.2659,4.202,4.1521,4.11,4.1001,4.0759,4.0257,4.0257,4.0083,3.9733,3.9733,3.9645,3.9482,3.9216,3.8859,3.8226,0.0,3.4763,3.4471,3.2901,3.2117,3.1823,3.1208,3.1002,3.0681,3.0391,3.0088,2.9994,2.9994,2.9774,2.9659,2.9889,2.9669,2.9343,2.9659,2.9448,2.9016,2.7941,2.6509,2.5075,2.3847,2.2425,2.1506,2.1496,2.1387,2.0809,1.9679,1.9214,1.8559,1.7278,1.7047,1.692,1.6996,1.7001,1.6608,1.5694,1.5173,1.4119,1.215,1.1329,1.0476,0.9579,0.9201,0.9054,0.9141,0.9239,0.8726,0.7742,0.4669,0.2043,-0.0146,-0.4233,-0.6135,-0.6281,-0.8324,-0.9345,-0.9343,-0.9321,-0.9313,-0.9313,-0.9307,-0.9304,-0.9304,-0.9304,-0.9304,-0.9304,0.0,4.4737,4.4682,4.4643,4.4587,0.0,0.0,0.0,0.0,0.0,0.0,0.0,0.0,0.0,0.0,0.0,0.0,4.7853,4.7803,4.7803,4.7654,4.7337,4.7202,4.6929,4.6566,4.5985,4.539,4.469,4.3804,4.3031,4.2304,4.1757,4.1254,4.1001,4.0745,4.0416,3.9996,3.9821,3.9557,3.9305,3.9305,3.9216,3.9038,3.8692,3.8421,0.0,3.6011,3.5138,3.4557,3.2488,3.1607,3.1208,3.0692,3.0484,3.0495,3.0088,2.9994,2.9994,2.9879,2.9669,2.9448,2.9669,2.9353,2.9036,2.9343,2.9132,2.8708,2.8057,2.6391,2.477,2.4116,2.2596,2.1489,2.1818,2.1601,2.1011,1.9491,1.925,1.8668,1.7036,1.6915,1.7001,1.7001,1.6478,1.5824,1.4907,1.3988,1.2572,1.0915,1.0341,0.976,0.8897,0.9057,0.9163,0.9212,0.9313,0.8188,0.5988,0.1897,-0.1167,-0.3502,-0.7456,-0.9372,-0.9367,-0.9343,-0.9332,-0.9329,-0.9313,-0.9304,-0.9304,-0.9304,-0.9304,-0.9304,-0.9304,-0.9304,-0.9304,0.0,0.0,4.4688,0.0,0.0,0.0,0.0,0.0,0.0,0.0,0.0,0.0,0.0,0.0,0.0,0.0,0.0,0.0,4.747,4.7486,4.7082,4.6292,4.604,4.5593,4.484,4.4946,4.4327,4.2936,4.3334,4.279,4.1381,4.11,4.0916,4.0916,4.0243,3.9908,3.9908,3.9482,3.9216,3.9216,3.9216,3.8948,3.8512,3.8512,3.8057,3.7413,3.6521,3.5738,3.4775,3.1891,3.0888,3.0785,3.0193,0.0,0.0,2.9994,2.9994,2.9994,2.9669,2.9343,2.9132,2.9132,2.893,2.8727,2.9026,2.8824,2.8621,2.8514,2.6518,2.4753,0.0,0.0,2.1825,2.2154,2.1589,2.0785,1.9799,1.9018,1.815,1.713,1.7001,1.7007,1.6872,1.5564,1.4777,1.4646,1.215,1.0772,1.0789,0.9588,0.8889,0.9128,0.915,0.9215,0.9332,0.8918,0.5842,-0.0,-0.0292,-0.3648,-0.9372,-0.9372,-0.9367,-0.9356,-0.9337,-0.9329,-0.9329,-0.931,-0.9304,-0.9304,-0.9304,-0.9304,-0.9304,-0.9304,-0.9304,-0.9304,0.0,0.0,0.0,0.0,0.0,0.0,0.0,0.0,0.0,0.0,0.0,0.0,0.0,0.0,0.0,0.0,0.0,0.0,4.7486,4.7486,4.7251,4.6722,4.608,4.5473,4.5064,4.4449,4.3975,4.3603,4.3066,4.2423,4.1504,4.0788,4.0215,3.9733,3.9557,3.9305,3.8948,3.8872,3.8602,3.8253,3.8057,3.7874,3.7782,3.7585,3.7387,3.7015,3.5846,3.5367,3.4969,3.3685,0.0,0.0,0.0,2.9994,2.9994,0.0,0.0,2.9889,2.9343,2.9132,2.9132,2.9132,2.8717,2.8514,2.8727,2.8621,2.7843,2.6054,2.5395,2.4503,2.2921,2.2356,2.2162,2.2462,2.1716,2.0859,2.0067,1.9133,0.0,1.713,0.0,1.6613,1.5564,1.4115,1.2931,1.1886,1.1097,1.0238,0.944,0.8993,0.8978,0.9139,0.9237,0.931,0.9362,0.4669,0.1605,-0.0,-0.4672,-0.7751,-0.9372,-0.9351,-0.934,-0.9337,-0.9318,-0.931,-0.931,-0.9304,-0.9304,-0.9304,-0.9304,-0.9304,-0.9304,-0.9304,-0.9304,-0.9304,0.0,0.0,0.0,0.0,0.0,0.0,0.0,0.0,0.0,0.0,0.0,0.0,0.0,0.0,0.0,0.0,0.0,0.0,0.0,4.7098,4.6738,4.6143,4.5196,4.4449,4.3959,4.3304,4.2892,4.2555,4.2097,4.1532,4.0845,4.0201,3.9631,3.9305,3.9038,3.8872,3.8602,3.8344,3.807,0.0,0.0,3.7413,3.7307,3.6615,3.6615,3.6709,3.5054,3.4763,0.0,0.0,0.0,3.2083,3.1094,3.0681,3.0588,2.9869,0.0,2.9669,2.9142,2.893,2.893,2.8814,2.8504,2.8291,2.8514,2.796,2.7126,2.5958,2.5042,2.4162,2.3096,2.2609,2.2476,0.0,0.0,0.0,2.0182,1.9176,1.815,0.0,1.7001,0.0,1.5043,1.3587,1.2173,1.0932,1.027,0.9526,0.8842,0.8967,0.9095,0.9226,0.9307,0.8031,0.5256,0.1751,-0.1313,-0.4086,-0.7604,-0.9367,-0.9353,-0.9337,-0.9326,-0.9318,-0.9307,-0.9304,-0.9304,-0.9304,-0.9304,-0.9304,-0.9304,-0.9304,-0.9304,-0.9304,-0.9304,-0.9304,0.0,0.0,0.0,0.0,0.0,0.0,0.0,0.0,0.0,0.0,4.7192,4.6666,4.6666,4.5815,0.0,0.0,0.0,0.0,0.0,0.0,4.6001,4.5258,4.4113,4.3205,4.2459,4.202,4.1492,4.083,4.083,4.0502,3.9821,3.9394,3.9127,3.9127,3.8692,3.8512,3.8421,3.7979,3.7703,3.7413,3.7413,3.7214,3.6909,0.0,3.5928,3.6225,3.4252,0.0,0.0,0.0,3.34,3.3201,3.1982,3.1575,3.1381,2.9963,2.9554,2.9448,2.8834,2.8621,2.8621,2.8408,2.8291,2.8291,2.8291,2.745,2.6592,2.6716,2.5062,2.3715,2.4076,2.3376,2.2776,2.3062,0.0,2.1102,2.0202,1.9048,1.8022,1.713,1.6872,1.6213,1.4777,1.335,1.1976,1.0786,0.9478,0.8867,0.8973,0.9087,0.9207,0.9332,0.8477,0.5403,-0.0,-0.0876,-0.394,-0.9372,-0.937,-0.9353,-0.9332,-0.9329,-0.9318,-0.9304,-0.9304,-0.9304,-0.9304,-0.9304,-0.9304,-0.9304,-0.9304,-0.9304,-0.9304,-0.9304,-0.9304,-0.9304,0.0,0.0,0.0,0.0,0.0,0.0,0.0,0.0,0.0,0.0,4.6732,4.6666,0.0,0.0,0.0,0.0,0.0,0.0,0.0,0.0,0.0,4.5672,4.4098,4.3016,4.2578,4.1506,4.0688,4.017,4.017,3.9733,3.8872,3.8782,3.8512,3.8161,3.8083,3.7887,3.769,3.7598,3.74,3.7108,3.6922,3.6815,3.6722,3.6345,0.0,0.0,0.0,0.0,0.0,0.0,3.4483,3.4178,3.2185,3.1575,3.1268,2.9638,2.9343,2.9448,2.8611,2.8514,2.8621,2.8408,2.8291,2.8291,2.8291,2.7569,0.0,0.0,2.4878,2.3925,2.3081,2.2965,2.3047,2.3098,2.1594,2.0329,2.0075,1.8413,1.726,0.0,1.5954,1.4772,1.3325,1.201,1.0631,0.931,0.9104,0.9092,0.9114,0.9136,0.9215,0.9362,0.4232,0.1022,-0.0,-0.511,-0.8193,-0.9372,-0.9348,-0.9334,-0.9332,-0.9315,-0.9307,-0.9304,-0.9304,-0.9304,-0.9304,-0.9304,-0.9304,-0.9304,-0.9304,-0.9304,-0.9304,-0.9304,-0.9304,-0.9449,0.0,0.0,0.0,0.0,0.0,0.0,4.5152,4.5689,4.6172,4.6551,4.6503,4.6241,4.5751,4.4593,4.388,0.0,0.0,0.0,0.0,0.0,0.0,0.0,0.0,0.0,4.217,4.093,4.0257,3.9996,0.0,3.9038,3.8602,3.8344,3.8083,3.79,3.79,3.7703,3.7505,3.7505,3.7307,3.6909,3.6722,3.6628,3.6439,0.0,0.0,0.0,0.0,0.0,0.0,0.0,3.3277,3.3575,3.2689,3.1869,3.0835,2.9533,2.9142,2.9036,2.8398,2.8398,2.8514,2.8291,2.8457,2.8613,2.8613,0.0,0.0,0.0,2.4531,2.3399,2.2965,2.3003,0.0,2.3106,2.1468,2.0075,2.0075,1.8285,1.6742,1.5954,1.5303,1.4028,1.2007,1.1287,1.0321,0.9096,0.9079,0.915,0.915,0.9223,0.7691,0.4525,0.1605,-0.1605,-0.4818,-0.7751,-0.9367,-0.9351,-0.9337,-0.9326,-0.9315,-0.9307,-0.9304,-0.9304,-0.9304,-0.9304,-0.9304,-0.9304,-0.9304,-0.9304,-0.9304,-0.959,-1.0164,-1.0164,-1.0596,-1.1172,0.0,0.0,0.0,0.0,0.0,0.0,4.4528,4.5052,4.5649,4.6388,4.6158,4.5698,4.5016,4.3638,4.2895,0.0,0.0,0.0,0.0,0.0,0.0,0.0,0.0,0.0,0.0,0.0,0.0,3.9733,3.8948,0.0,0.0,0.0,0.0,0.0,3.7808,3.7703,3.7413,3.7307,3.7015,0.0,0.0,3.6534,0.0,0.0,0.0,0.0,0.0,0.0,0.0,0.0,3.1575,3.2061,3.2577,3.1746,3.0514,2.9333,2.8834,2.8621,2.8398,2.8291,2.831,2.8408,2.8672,2.8945,2.9033,2.7432,0.0,2.6371,2.4466,2.2806,2.3062,0.0,2.2988,0.0,2.1215,2.0081,1.982,1.8156,1.6478,0.0,1.4684,0.0,1.1187,1.072,1.0172,0.9133,0.9177,0.9196,0.9196,0.7991,0.5109,0.0146,-0.1313,-0.4379,-0.9227,-0.9367,-0.9353,-0.9332,-0.9326,-0.9318,-0.9304,-0.9304,-0.9304,-0.9304,-0.9304,-0.9304,-0.9304,-0.959,-0.9735,-0.9735,-0.9879,-1.0596,-1.1315,-1.1315,-1.189,-1.2749,0.0,0.0,0.0,0.0,0.0,0.0,4.4344,4.48,4.5326,4.606,4.5704,4.509,4.4468,4.3616,4.2911,0.0,0.0,0.0,0.0,0.0,0.0,0.0,0.0,0.0,0.0,0.0,0.0,3.8692,3.8602,0.0,0.0,0.0,0.0,0.0,0.0,3.74,3.7108,3.6909,0.0,0.0,0.0,0.0,0.0,0.0,0.0,0.0,0.0,0.0,0.0,0.0,0.0,2.9628,3.0628,3.0813,3.0411,2.9132,0.0,0.0,2.8398,2.8291,2.8389,2.876,2.8887,2.9023,2.9424,0.0,2.6388,2.6422,2.4664,2.3069,2.3106,2.3106,2.2856,2.1859,2.0843,1.982,1.8792,1.7641,1.6478,1.5038,0.0,0.0,1.1063,0.9947,0.9264,0.9147,0.9275,0.9351,0.9351,0.3937,0.0584,-0.0,-0.5549,-0.8782,-0.9227,-0.9348,-0.9334,-0.9332,-0.9315,-0.9304,-0.9304,-0.9304,-0.9304,-0.9304,-0.9304,-0.9304,-0.9449,-1.0452,-1.0884,-1.0884,-1.2033,-1.2463,-1.2606,-1.2606,-1.2606,-1.2892,0.0,0.0,0.0,0.0,0.0,0.0,4.4142,4.4464,4.4915,4.5643,4.5645,4.5294,4.4595,4.3674,4.2805,4.1881,4.2043,0.0,0.0,0.0,0.0,0.0,0.0,0.0,0.0,0.0,3.8948,3.8602,3.8344,0.0,0.0,0.0,0.0,0.0,0.0,3.7108,3.6815,3.6722,0.0,0.0,0.0,0.0,0.0,0.0,0.0,0.0,0.0,0.0,2.9764,0.0,0.0,0.0,2.9323,2.9418,0.0,0.0,2.8621,2.8457,2.8603,2.8672,2.8769,2.9209,2.9502,2.9502,2.8984,0.0,2.6542,2.5819,2.4232,2.3106,2.3106,2.3106,2.2731,2.1734,2.0716,0.0,1.8664,1.7641,1.6135,1.4015,1.3294,1.221,1.0083,0.9366,0.9185,0.9275,0.9203,0.7615,0.394,0.1313,-0.1751,-0.5549,-0.8045,-0.9364,-0.9348,-0.9337,-0.9326,-0.9315,-0.9307,-0.9304,-0.9304,-0.9304,-0.9735,-1.0308,-1.0308,-1.074,-1.1312,-1.189,-1.2033,-1.2033,-1.2463,-1.3174,-1.3745,-1.3745,-1.4177,-1.4893,0.0,0.0,0.0,0.0,0.0,4.3235,4.3891,4.4026,4.434,4.5186,4.508,4.489,4.4606,4.3419,4.2358,4.1664,4.1382,0.0,0.0,0.0,0.0,0.0,0.0,0.0,0.0,0.0,3.8512,3.8434,3.7979,3.7703,0.0,0.0,3.7307,3.7108,0.0,0.0,0.0,0.0,0.0,0.0,0.0,0.0,0.0,0.0,0.0,0.0,0.0,0.0,0.0,0.0,0.0,0.0,0.0,0.0,0.0,0.0,2.8496,2.8545,2.8838,2.9014,2.9209,2.9648,2.9744,2.9412,2.8597,2.7414,2.6164,2.5317,2.4092,2.3106,2.3106,2.2863,2.2355,2.1355,2.0329,1.9304,1.815,1.7055,1.558,1.3323,0.0,1.1551,0.9261,0.9185,0.8385,0.6716,0.6584,0.3798,-0.248,-0.2772,-0.4818,-0.9224,-0.9364,-0.9351,-0.9332,-0.9326,-0.9315,-0.9304,-0.9304,-0.9446,-0.9735,-0.9735,-1.0452,-1.1459,-1.1459,-1.2033,-1.2749,-1.3031,-1.3174,-1.3321,-1.3607,-1.4319,-1.503,-1.503,-1.5461,-1.6183,0.0,0.0,0.0,0.0,0.0,4.3002,4.3347,4.3297,4.3543,4.4566,4.382,4.3395,4.4153,4.2689,4.1601,4.1586,4.1586,0.0,0.0,0.0,0.0,0.0,0.0,0.0,3.8602,3.8602,3.8344,3.79,3.7611,3.7505,3.7505,3.7214,3.7108,3.7108,0.0,0.0,0.0,0.0,0.0,0.0,0.0,0.0,0.0,0.0,0.0,0.0,0.0,0.0,0.0,0.0,0.0,0.0,0.0,2.8514,2.8291,0.0,2.8584,2.8916,2.8916,2.9238,2.9668,3.0078,2.9259,2.8434,2.8828,2.6996,2.5071,2.5071,2.4092,2.3106,2.3106,2.2237,2.1355,2.0329,1.9182,1.815,1.713,1.5888,1.4553,0.0,1.2007,1.0671,0.9286,0.9283,0.672,0.0584,0.0146,-0.2626,-0.8931,-0.9224,-0.9227,-0.9227,-0.9345,-0.9332,-0.9332,-0.9313,-0.9304,-0.9304,-0.9304,-0.9879,-1.1028,-1.1028,-1.1599,-1.2749,-1.2749,-1.2749,-1.2749,-1.403,-1.4457,-1.46,-1.5749,-1.6183,-1.6183,-1.6183,-1.6183,-1.6183,0.0,0.0,0.0,0.0,0.0,0.0,4.2137,4.2315,4.2585,4.2871,4.2832,4.2881,4.3097,4.2109,4.1357,4.1357,4.1014,0.0,0.0,0.0,0.0,0.0,0.0,0.0,3.8161,3.8083,3.7979,3.7611,3.7505,3.7307,3.6909,3.6909,3.6722,3.664,3.6546,3.6048,0.0,0.0,0.0,0.0,0.0,0.0,3.0495,0.0,0.0,0.0,0.0,0.0,0.0,0.0,0.0,0.0,0.0,0.0,0.0,2.9182,2.9144,2.8984,2.9277,2.9678,2.987,2.9464,2.8972,2.8291,2.6608,2.5676,2.4826,2.3969,2.3355,2.2856,2.2237,2.1859,2.0969,1.9304,1.8664,1.7821,0.0,0.0,0.0,1.2029,1.0709,0.9703,0.9299,0.9345,0.4957,-0.5547,-0.6428,-0.6277,-0.6125,-0.8169,-0.9343,-0.9343,-0.9334,-0.9326,-0.9313,-0.9307,-0.9304,-0.9304,-1.002,-1.0596,-1.1028,-1.1746,-1.2745,-1.3888,-1.3888,-1.4319,-1.5181,-1.5465,-1.5607,-1.5749,-1.6037,-1.6183,-1.6183,-1.6183,-1.6183,-1.6183,0.0,0.0,0.0,0.0,0.0,0.0,4.1456,4.1565,4.1735,4.1775,4.178,4.1889,4.2322,4.1469,4.0766,4.0704,4.0028,0.0,0.0,0.0,0.0,0.0,0.0,0.0,3.79,3.7586,3.7482,3.7505,3.7307,3.7015,3.6709,3.6628,3.6546,3.6358,3.6358,3.5763,0.0,0.0,0.0,0.0,0.0,0.0,2.9994,0.0,0.0,0.0,0.0,0.0,0.0,0.0,0.0,0.0,0.0,0.0,0.0,0.0,2.949,2.9351,2.9858,2.9994,2.9785,2.9092,2.8197,2.6996,2.5431,2.4702,2.4092,2.323,2.3106,2.2731,2.1734,2.1355,2.0462,1.8792,1.7759,1.6676,0.0,0.0,0.0,1.0725,0.9715,0.9353,0.9372,0.7162,0.1602,-0.8486,-0.9372,-0.8479,-0.6553,-0.8304,-0.9329,-0.9321,-0.9321,-0.9315,-0.9304,-0.9735,-0.9879,-1.002,-1.1172,-1.1886,-1.2312,-1.3031,-1.4034,-1.5177,-1.5177,-1.5607,0.0,-1.6183,-1.6183,-1.6183,-1.6183,-1.6183,-1.6183,-1.6183,-1.6183,-1.6193,0.0,0.0,0.0,0.0,0.0,0.0,0.0,4.107,4.11,4.1189,4.0659,4.068,4.1637,4.0667,3.9778,3.9578,3.8689,0.0,0.0,0.0,0.0,0.0,0.0,3.6619,3.7756,3.6975,3.6884,3.7348,3.6896,3.6722,3.6722,3.6452,3.6358,3.6358,3.6358,3.5667,3.4483,3.2376,3.0888,2.9994,2.9994,2.9994,0.0,0.0,0.0,0.0,0.0,0.0,0.0,0.0,0.0,0.0,0.0,0.0,0.0,0.0,0.0,0.0,0.0,2.9939,2.9148,2.8792,2.6875,2.5071,2.4949,2.3969,0.0,2.3106,2.2981,2.2731,2.1734,2.0716,1.9693,1.8536,1.6478,1.4875,0.0,1.271,0.0,0.0,0.9208,0.9079,0.8634,0.3064,-0.2918,-0.8486,-0.9222,-0.9356,-0.9332,-0.9329,-0.9321,-0.9449,-0.9449,-0.9449,-0.9449,-1.0452,-1.1028,-1.1172,-1.232,-1.346,-1.4457,-1.46,-1.5177,-1.6183,-1.6183,-1.6183,-1.6183,-1.6183,-1.6183,-1.6183,-1.6183,-1.6183,-1.6183,-1.6183,-1.6183,-1.6212,0.0,0.0,0.0,0.0,0.0,0.0,0.0,0.0,0.0,0.0,4.0173,3.9945,3.9549,3.9077,3.8486,0.0,0.0,0.0,0.0,0.0,0.0,0.0,3.58,3.5989,3.6261,3.638,3.6327,3.6271,3.6599,3.6628,3.6452,3.6452,3.6358,3.6358,3.5571,3.408,3.2275,3.0991,3.0193,2.9994,2.9994,2.9994,0.0,0.0,0.0,0.0,2.9889,2.9774,0.0,0.0,0.0,0.0,0.0,0.0,0.0,0.0,2.9663,2.9325,2.9666,0.0,2.7966,2.6399,2.5554,2.4826,0.0,2.3355,0.0,0.0,0.0,0.0,0.0,0.0,1.8536,1.7518,1.61,1.4686,1.3798,0.0,0.0,0.6108,0.7888,0.7456,0.2626,-0.35,-0.6718,-0.583,-0.8022,-0.9332,-0.9313,-0.931,-0.974,-1.0596,-1.0596,-1.0596,-1.0596,-1.0884,-1.1459,-1.232,-1.346,-1.4173,-1.46,-1.5461,-1.5895,-1.6183,-1.6183,-1.6183,-1.6183,-1.6183,-1.6183,-1.6183,-1.6183,-1.6183,-1.6183,-1.6183,-1.6183,-1.6353,0.0,0.0,0.0,0.0,0.0,0.0,0.0,0.0,0.0,0.0,3.9292,3.8899,3.7965,3.78,3.742,0.0,0.0,0.0,0.0,0.0,0.0,3.5102,3.5055,3.524,3.567,3.5737,3.5825,3.5884,3.6349,3.6546,3.6358,3.6358,3.6168,3.5571,3.408,3.2577,3.1381,3.0391,2.9889,2.9774,2.9994,0.0,0.0,0.0,0.0,0.0,2.9774,2.9774,0.0,2.9994,2.9564,2.9066,0.0,0.0,0.0,0.0,2.9221,2.8781,2.8628,2.7966,2.7125,2.6164,2.5317,2.4463,2.3728,0.0,0.0,0.0,0.0,0.0,0.0,0.0,0.0,0.0,1.448,0.0,0.0,0.0,0.8167,0.5094,0.4957,0.2625,-0.3648,-0.731,-0.8627,-0.699,-0.8307,-0.9323,-0.9304,-0.9735,-1.0308,-1.1028,-1.1459,-1.1746,-1.1746,-1.2316,-1.2885,-1.3603,-1.4746,-1.5319,-1.5319,-1.5895,-1.6183,-1.6183,-1.6183,-1.6183,-1.6183,-1.6183,-1.6183,-1.6183,-1.6183,-1.6183,-1.6183,-1.6183,-1.6524,-1.692,0.0,0.0,0.0,0.0,0.0,0.0,0.0,0.0,0.0,0.0,0.0,0.0,0.0,0.0,0.0,0.0,0.0,0.0,0.0,0.0,0.0,3.4603,3.425,3.4397,3.5276,3.5137,3.5274,3.5793,3.6175,3.6358,3.6358,3.6263,3.5463,3.4276,3.2376,3.1381,3.0981,3.0287,2.9889,2.9659,2.9889,0.0,0.0,0.0,0.0,0.0,0.0,0.0,0.0,2.9774,2.9026,2.8252,2.8898,0.0,0.0,0.0,0.0,0.0,2.7615,2.6754,2.6147,2.665,2.5194,2.3736,2.3852,0.0,0.0,0.0,0.0,0.0,0.0,1.713,0.0,0.0,0.0,0.0,0.9278,0.928,0.8329,0.5682,0.1311,-0.3502,-0.8782,-0.937,-0.9356,-0.9332,-0.9329,-0.9321,-0.9593,-1.0452,-1.1172,-1.1456,-1.2459,-1.3035,-1.3178,-1.403,-1.46,-1.4742,-1.5749,-1.6183,-1.6183,-1.6183,-1.6183,-1.6183,-1.6183,-1.6183,-1.6183,-1.6183,-1.6183,-1.6183,-1.6183,-1.6183,-1.6183,-1.6183,-1.7018,-1.8093,0.0,0.0,0.0,0.0,0.0,0.0,0.0,0.0,0.0,0.0,0.0,0.0,0.0,0.0,0.0,0.0,0.0,0.0,0.0,0.0,0.0,3.3598,3.3522,3.3789,3.4425,3.4666,3.4989,3.5542,3.6081,3.6358,3.6358,3.5475,3.3981,3.2083,3.1779,3.1084,3.0193,3.0099,2.9994,2.9994,2.9994,0.0,0.0,0.0,0.0,0.0,0.0,0.0,0.0,2.891,2.8252,2.7577,2.8015,0.0,0.0,0.0,0.0,0.0,2.7185,2.5684,2.4317,2.521,2.3728,2.2104,2.2709,0.0,0.0,0.0,0.0,0.0,0.0,1.5964,1.4916,0.0,0.0,1.113,0.9446,0.9351,0.9076,0.8632,-0.1164,-0.8193,-0.9224,-0.9351,-0.9334,-0.9332,-0.9315,-0.9738,-1.074,-1.0884,-1.1886,-1.3884,-1.4173,-1.4746,-1.5612,-1.4888,-1.503,-1.5895,-1.6178,-1.6183,-1.6183,-1.6183,-1.6183,-1.6183,-1.6183,-1.6183,-1.6183,-1.6183,-1.6183,-1.6183,-1.6183,-1.6183,-1.6183,-1.6183,-1.743,-1.9656,0.0,0.0,0.0,0.0,0.0,0.0,0.0,0.0,0.0,0.0,0.0,0.0,0.0,0.0,0.0,0.0,0.0,0.0,0.0,0.0,3.3452,3.3669,3.3682,3.3808,3.406,3.4437,3.4989,3.5542,3.6094,3.6061,3.5463,3.3871,3.2577,3.1575,3.0981,3.038,2.9774,2.9994,2.9889,2.9774,0.0,0.0,0.0,0.0,0.0,0.0,0.0,0.0,0.0,0.0,2.7545,2.7041,2.7455,0.0,0.0,0.0,0.0,0.0,2.7073,2.557,2.407,2.4564,2.3076,2.1461,2.1706,0.0,0.0,0.0,0.0,0.0,0.0,0.0,1.2469,1.1148,0.9242,0.7659,0.699,0.8186,0.804,0.4661,-0.3786,-0.9367,-0.9351,-0.9337,-0.9326,-0.9318,-0.9882,-1.0452,-1.1028,-1.2169,-1.3456,-1.4457,-1.503,-1.5607,-1.6183,-1.5749,-1.5749,-1.6183,-1.6183,-1.6183,-1.6183,-1.6183,-1.6183,-1.6183,-1.6183,-1.6183,-1.6183,-1.6183,-1.6183,-1.6183,-1.6603,-1.6744,-1.7056,-1.8697,-2.0408,-2.2143,0.0,0.0,0.0,0.0,0.0,0.0,0.0,0.0,0.0,0.0,0.0,0.0,0.0,0.0,0.0,0.0,0.0,0.0,0.0,3.3079,3.3206,3.3495,3.3759,3.4022,3.4274,3.47,3.5177,3.573,3.5956,3.5367,3.397,3.2376,3.1483,3.1187,3.0401,2.9889,2.9669,2.9879,2.9879,2.9659,0.0,0.0,0.0,0.0,0.0,0.0,0.0,0.0,0.0,0.0,0.0,0.0,0.0,0.0,0.0,2.6961,2.7073,2.7073,2.67,2.5194,2.369,2.3668,2.2062,2.0569,2.029,1.9909,0.0,0.0,0.0,0.0,0.0,1.2071,0.0,0.8289,0.6803,0.5244,0.3786,0.4371,0.3203,-0.1599,-0.6415,-0.9353,-0.9332,-0.9326,-0.9463,-0.9735,-1.0452,-1.1168,-1.1743,-1.3456,-1.46,-1.4888,-1.5749,-1.6183,-1.6183,-1.6183,-1.6183,-1.6183,-1.6183,-1.6183,-1.6183,-1.6183,-1.6183,-1.6183,-1.6183,-1.6325,-1.6461,-1.6325,-1.6461,-1.7017,-1.7434,-1.8023,-1.8823,-2.1808,-2.3456,-2.4446,0.0,0.0,0.0,0.0,0.0,0.0,0.0,0.0,0.0,0.0,0.0,0.0,0.0,0.0,0.0,0.0,0.0,0.0,0.0,3.278,3.2855,3.2353,3.3345,3.4374,3.5403,3.5466,3.5755,3.6307,3.5355,3.3883,3.1779,3.1677,3.1084,3.0099,2.9994,2.9994,2.9994,2.9994,2.9994,2.9994,2.9994,0.0,0.0,0.0,0.0,0.0,0.0,0.0,0.0,0.0,0.0,0.0,0.0,0.0,2.6568,2.6961,2.7073,2.6822,2.557,2.3946,2.2445,2.1202,2.0075,1.8926,1.7948,1.6426,0.0,1.3451,0.0,0.0,0.0,1.0067,0.8299,0.551,0.7293,0.7015,0.1167,-0.4523,-0.8188,-0.8632,-0.9055,-0.9334,-0.9332,-0.9315,-0.9735,-1.074,-1.0884,-1.1886,-1.4169,-1.4457,-1.503,-1.6037,-1.6183,-1.6183,-1.6183,-1.6183,-1.6183,-1.6183,-1.6183,-1.6183,-1.6183,-1.6183,-1.6183,-1.6183,-1.6183,-1.6603,-1.7168,-1.6461,-1.7434,-1.9228,-1.8932,-2.0046,-2.2122,-2.4413,-2.5435,-2.6171,0.0,0.0,0.0,0.0,0.0,0.0,0.0,0.0,0.0,0.0,0.0,3.3471,3.3313,0.0,0.0,0.0,0.0,0.0,0.0,3.2416,3.2604,3.2742,3.3495,3.4412,3.5516,3.5542,3.5431,3.5367,3.3674,3.2376,3.1575,3.0888,3.0391,2.9994,2.9774,2.9879,2.9994,2.9774,2.9889,2.9994,2.9448,2.9237,0.0,0.0,0.0,0.0,0.0,0.0,0.0,0.0,2.5735,2.5788,2.6157,2.6542,2.6884,2.703,2.6449,2.57,2.5194,2.3325,2.1202,2.0703,1.9437,0.0,0.0,1.5539,1.4548,1.3207,1.2224,0.0,1.0083,0.0,0.8866,0.7736,0.5253,0.1312,-0.4962,-0.7751,-0.9394,-0.9454,-0.9383,-0.9356,-0.9421,-0.9928,-1.0596,-1.1028,-1.2312,-1.3599,-1.4457,-1.5172,-1.5749,-1.6183,-1.6183,-1.6183,-1.6183,-1.6183,-1.6183,-1.6183,-1.6183,-1.6183,-1.6183,-1.7157,-1.7575,-1.7575,-1.7986,-1.8815,-1.9646,-1.8955,-1.9501,-2.0876,-2.1152,-2.2598,-2.4394,-2.5549,-2.6576,-2.7469,0.0,0.0,0.0,0.0,0.0,0.0,0.0,0.0,3.3556,0.0,0.0,0.0,0.0,3.3081,0.0,0.0,0.0,0.0,3.1964,3.1951,3.2127,3.2528,3.2972,3.3603,3.4507,3.4495,3.4639,3.4775,3.2678,3.1381,3.1084,3.0287,2.9994,2.9994,2.9774,2.9774,2.9994,2.9774,2.9669,2.9564,2.891,2.8581,0.0,0.0,0.0,0.0,0.0,0.0,0.0,0.0,2.5703,2.6157,2.6405,2.6508,2.6449,2.6449,2.5448,2.4193,2.3822,2.2201,2.0316,0.0,0.0,0.0,1.4589,1.4336,1.387,1.2041,1.1036,0.9775,0.8012,0.8567,0.9372,0.9372,0.4086,-0.2189,-0.8486,-0.937,-0.9389,-0.9449,-0.9378,-0.9351,-0.9421,-1.0363,-1.1172,-1.1459,-1.3313,-1.46,-1.503,-1.5749,-1.6183,-1.6183,-1.6183,-1.6461,-1.688,-1.688,-1.7152,-1.7845,-1.7845,-1.7429,-1.6875,-1.8401,-1.9094,-1.9367,-1.9779,-2.0605,-2.1709,-2.0882,-2.1421,-2.2649,-2.3631,-2.4996,-2.6443,-2.668,-2.7462,-2.8599,0.0,0.0,0.0,0.0,0.0,0.0,0.0,0.0,3.3313,3.3154,3.3081,0.0,0.0,0.0,0.0,0.0,0.0,0.0,3.1424,3.1386,3.1386,3.1386,3.1491,3.1853,3.2358,3.2475,3.3258,3.4775,3.2678,3.1084,2.9994,2.9994,2.9994,2.9994,2.9994,2.9994,2.9994,2.9994,2.9459,2.8688,2.8688,2.8145,2.7276,0.0,0.0,0.0,0.0,0.0,0.0,0.0,2.5874,2.6491,2.6491,2.577,2.5071,2.5071,2.3946,2.2327,2.0949,2.0576,1.9807,0.0,0.0,0.0,1.2123,1.2531,1.2585,0.9478,0.8916,0.8179,0.5227,0.7154,0.9224,0.9224,0.394,-0.2189,-0.8341,-0.9219,-0.9351,-0.9334,-0.9315,-0.9304,-0.9304,-1.0311,-1.1456,-1.2606,-1.3888,-1.503,-1.6183,-1.6183,-1.6183,-1.6183,-1.6183,-1.688,-1.8406,-1.8406,-1.9373,-2.1152,-2.1289,-2.019,-1.8546,-1.9912,-2.0876,-2.1289,-2.1289,-2.1846,-2.2819,-2.2114,-2.2786,-2.4559,-2.61,-2.7343,-2.8217,-2.8217,-2.8678,-2.929,0.0,0.0,0.0,0.0,0.0,0.0,0.0,0.0,3.3154,3.3081,3.3081,0.0,0.0,0.0,0.0,0.0,0.0,0.0,3.0884,3.0846,3.0673,3.0455,3.0797,3.1128,3.1447,3.1072,3.1437,3.2577,3.0852,2.9973,2.9984,2.9663,2.9684,2.9994,2.9774,2.9774,2.9994,2.9142,2.8814,2.8581,2.7384,2.6735,2.6409,0.0,0.0,0.0,0.0,0.0,0.0,0.0,0.0,0.0,2.4338,2.3862,2.3698,2.3698,2.2702,2.1454,2.1076,1.9152,0.0,1.6519,0.0,0.0,0.0,1.1696,0.0,0.0,0.746,0.638,0.7736,0.5107,0.2772,0.2772,-0.2478,-0.6425,-0.6123,-0.7874,-0.9364,-0.9432,-0.9359,-0.9627,-1.059,-1.1519,-1.2745,-1.3888,-1.503,-1.5891,-1.6183,-1.6183,-1.6183,-1.6183,-1.7419,-1.8245,-1.8798,-2.0045,-2.1014,-2.1558,-2.2662,-2.2252,-2.0737,-2.2258,-2.2942,-2.3086,-2.3652,-2.4474,-2.5555,-2.5547,-2.5958,-2.6368,-2.6926,-2.7344,-2.7876,-2.7876,-2.8321,-2.8924,0.0,0.0,0.0,0.0,0.0,0.0,3.3326,3.3154,3.3081,3.3081,3.3081,3.2943,0.0,0.0,0.0,3.1775,3.1323,0.0,3.0633,3.0077,2.9873,3.0013,2.957,2.96,3.0057,2.9699,2.9931,3.0702,2.9544,2.927,2.9715,2.9435,2.9549,2.9994,2.9879,2.9669,2.9448,2.8708,2.8165,2.7609,2.6518,2.5872,2.556,0.0,0.0,0.0,0.0,0.0,0.0,0.0,0.0,0.0,2.3259,2.2702,2.2194,2.1532,2.0271,1.8914,1.8225,1.6572,0.0,1.4459,1.3625,1.2532,1.1123,0.0,0.0,0.0,0.7835,0.6274,0.5695,0.248,-0.0876,-0.3356,-0.6869,-0.8629,-0.6847,-0.816,-0.9353,-0.9408,-0.9783,-1.0342,-1.1005,-1.2517,-1.3745,-1.4457,-1.5607,-1.6325,-1.6608,-1.6603,-1.7021,-1.7705,-1.8804,-1.99,-2.0863,-2.1971,-2.2936,-2.376,-2.4595,-2.4588,-2.3896,-2.4467,-2.488,-2.5008,-2.5577,-2.6257,-2.6926,-2.7067,-2.72,-2.72,-2.72,-2.7415,-2.7749,-2.7876,-2.8281,-2.8789,0.0,0.0,3.5695,3.3797,0.0,0.0,3.3154,3.3081,3.3081,3.3081,3.3031,3.298,0.0,0.0,0.0,3.2001,3.1054,3.0423,3.0373,2.9151,2.8769,2.9653,2.8195,2.7686,2.8576,2.8566,2.8783,2.9239,2.8783,2.8804,2.9301,2.9259,2.9508,2.9994,2.9889,2.9448,2.8688,2.8581,2.7599,2.6091,2.6017,2.5613,2.4872,2.4872,0.0,0.0,0.0,0.0,0.0,0.0,0.0,0.0,2.282,2.195,2.0556,1.8854,1.7216,1.5618,1.3957,0.0,0.0,1.1537,1.141,0.0,0.9294,0.9039,0.934,0.9356,0.9367,0.7456,0.1167,-0.0,-0.2043,-0.8338,-0.9372,-0.9362,-0.9334,-0.9329,-0.9323,-0.9449,-1.0452,-1.1168,-1.1456,-1.3456,-1.4738,-1.488,-1.5886,-1.6739,-1.7308,-1.7585,-1.8406,-2.0057,-2.0334,-2.1565,-2.391,-2.4188,-2.5008,-2.6792,-2.6792,-2.6934,-2.72,-2.654,-2.6398,-2.6792,-2.7067,-2.72,-2.72,-2.72,-2.72,-2.7208,-2.724,-2.7471,-2.782,-2.8154,-2.8503,-2.8861,0.0,0.0,3.4191,3.3713,0.0,0.0,3.3154,3.3081,3.3081,3.3081,3.2679,3.2227,3.18,3.1637,0.0,3.0382,2.9899,2.9411,2.8998,2.795,2.7515,2.7754,2.7729,2.8025,2.8597,2.8255,2.8297,2.8763,2.8297,2.8493,2.9301,2.8928,2.9208,2.9994,2.9237,2.891,2.8581,2.7276,2.6409,2.6118,2.5672,2.5466,2.5249,2.5249,2.4892,0.0,0.0,0.0,0.0,0.0,0.0,0.0,2.0258,1.9705,1.9188,1.7742,1.6963,1.6069,1.465,1.3165,0.0,0.0,1.0735,0.9136,0.6253,0.7588,0.9364,0.937,0.9372,0.7456,0.1167,-0.0,-0.2043,-0.8338,-0.9367,-0.9353,-0.9334,-0.9318,-0.9596,-1.0596,-1.1305,-1.2588,-1.4445,-1.5575,-1.6569,-1.7419,-1.8675,-1.8955,-1.8131,-1.9779,-2.0599,-2.0057,-2.2239,-2.3739,-2.4296,-2.5816,-2.6658,-2.7067,-2.7067,-2.7067,-2.72,-2.7067,-2.7067,-2.7067,-2.72,-2.72,-2.72,-2.72,-2.72,-2.7232,-2.751,-2.782,-2.8162,-2.8519,-2.8877,-2.9194,0.0,0.0,0.0,0.0,0.0,0.0,0.0,0.0,3.2767,3.3043,3.2817,3.2516,3.2227,3.1951,0.0,0.0,2.9646,2.8961,2.8198,2.7113,2.651,2.654,2.7474,2.8142,2.8597,2.838,2.8483,2.8949,2.8483,2.8618,2.9301,2.9063,2.9106,2.9343,2.891,2.8252,2.7384,2.6518,2.5881,2.5467,2.5241,2.5104,2.5104,2.4515,2.4048,2.3652,2.2348,0.0,0.0,0.0,0.0,0.0,0.0,0.0,1.7765,1.6193,1.5226,1.417,0.0,0.0,0.0,1.0596,0.0,0.891,0.7297,0.819,0.924,0.924,0.6873,0.3795,0.0584,-0.248,-0.4962,-0.6859,-0.8321,-0.934,-0.9321,-0.931,-0.9876,-1.1305,-1.2441,-1.3863,-1.5858,-1.6992,-1.7975,-1.9094,-1.9785,-2.0196,-2.0479,-2.1571,-2.2395,-2.2669,-2.4174,-2.5263,-2.5808,-2.6651,-2.72,-2.72,-2.72,-2.72,-2.72,-2.72,-2.72,-2.72,-2.72,-2.72,-2.72,-2.72,-2.72,-2.724,-2.7598,-2.7836,-2.805,-2.8575,-2.8885,-2.9067,0.0,0.0,0.0,0.0,0.0,0.0,0.0,0.0,0.0,3.3006,3.2905,3.2817,3.2918,3.2416,3.1645,0.0,0.0,0.0,2.7668,2.651,2.5914,2.6163,2.7355,2.8266,2.8721,2.8731,2.8959,2.9425,2.8746,2.8757,2.9209,2.9127,2.8907,2.8688,2.8368,2.7492,2.6091,2.5981,2.545,2.483,2.4889,2.4804,2.446,2.3416,2.3016,2.2566,2.0462,1.9953,2.0022,1.9019,0.0,0.0,0.0,0.0,1.6328,1.4623,1.3218,1.1995,0.0,0.0,0.0,0.9302,0.9367,0.0,0.9232,0.8501,0.7327,0.6292,0.2774,-0.0292,-0.1459,-0.5842,-0.8481,-0.597,-0.7575,-0.9323,-0.9307,-0.9446,-1.0305,-1.2155,-1.3575,-1.5137,-1.6987,-1.8121,-1.9245,-2.034,-2.0611,-2.144,-2.2956,-2.3372,-2.4188,-2.5562,-2.5831,-2.6249,-2.72,-2.72,-2.72,-2.72,-2.72,-2.72,-2.72,-2.72,-2.72,-2.72,-2.72,-2.72,-2.72,-2.72,-2.72,-2.724,-2.7598,-2.7764,-2.7892,-2.8535,-2.8805,-2.89,0.0,0.0,0.0,0.0,0.0,0.0,0.0,0.0,0.0,0.0,3.2227,3.18,3.2277,3.1838,3.1158,3.0158,2.9327,2.8197,2.6744,0.0,0.0,2.7034,2.8007,2.8742,2.9208,2.9208,2.9435,2.9901,2.8692,2.8277,2.881,2.8316,2.8366,2.8581,2.7168,2.63,2.6091,2.5238,2.4923,2.4847,2.5172,2.4716,2.3672,2.3435,2.2173,2.0337,1.9871,1.9099,1.8288,1.8647,1.7931,0.0,0.0,0.0,1.4907,1.3468,1.2785,1.2108,0.0,0.0,0.0,0.0,0.9372,0.9232,0.0,0.0,-0.0292,-0.5693,-0.3209,-0.1605,-0.7017,-0.8782,-0.9216,-0.8749,-0.9037,-0.9323,-0.9307,-1.0164,-1.1449,-1.3436,-1.5283,-1.7127,-1.8966,-1.9959,-2.0792,-2.1891,-2.2846,-2.3529,-2.3802,-2.5569,-2.6241,-2.5562,-2.6517,-2.7067,-2.72,-2.72,-2.72,-2.72,-2.72,-2.72,-2.72,-2.72,-2.72,-2.72,-2.72,-2.72,-2.72,-2.72,-2.72,-2.724,-2.7598,-2.7907,-2.8209,-2.8622,-2.8964,-2.9234,0.0,0.0,0.0,0.0,0.0,0.0,0.0,0.0,0.0,0.0,0.0,3.2428,3.2667,3.1944,3.11,3.022,2.8976,2.7734,2.6296,2.6271,2.6455,2.6858,2.75,2.8069,2.8524,2.8259,2.841,2.8854,2.8055,2.7738,2.7931,2.7302,2.7121,2.7525,2.6518,2.5997,2.5646,2.5009,2.4359,2.3801,2.3957,2.3205,2.1817,2.1364,2.0315,1.9285,1.8871,1.8449,1.8045,1.7662,1.7229,1.6712,1.6043,0.0,0.0,0.0,1.2211,1.1249,1.0076,0.0,0.0,0.0,0.4086,0.3209,-0.0291,-0.3209,-0.5547,-0.6564,-0.5981,-0.5543,-0.6564,-0.8174,-0.9345,-0.9769,-0.9468,-0.9743,-1.1018,-1.1446,-1.2727,-1.5703,-1.6841,-1.8115,-1.9959,-2.0527,-2.1352,-2.3126,-2.3672,-2.4488,-2.5712,-2.6658,-2.6926,-2.6517,-2.6926,-2.72,-2.72,-2.72,-2.72,-2.72,-2.72,-2.72,-2.72,-2.72,-2.72,-2.72,-2.72,-2.72,-2.72,-2.72,-2.72,-2.724,-2.7598,-2.782,-2.7987,-2.8336,-2.8559,-2.8726,0.0,0.0,0.0,0.0,0.0,0.0,0.0,0.0,0.0,0.0,0.0,3.2918,3.3056,0.0,0.0,0.0,2.8923,2.7672,2.6339,2.6444,2.662,2.6734,2.7303,2.7662,2.7785,2.7623,2.7653,2.7878,2.7235,2.6957,2.706,2.6299,2.6127,2.6501,2.6091,2.581,2.5489,2.4775,2.3924,2.3109,2.264,2.1606,2.0238,1.9506,1.8946,1.827,1.7523,1.741,1.7541,1.6313,1.588,1.5809,1.4642,1.3341,0.0,0.0,0.0,0.9576,0.0,0.0,0.0,-0.0434,-0.2329,-0.3356,0.0,0.0,-0.8627,-0.641,-0.7729,-0.8612,-0.6257,-0.7718,-0.9476,-0.9905,-1.0032,-1.059,-1.2445,-1.3012,-1.4428,-1.7404,-1.8115,-1.8821,-2.0527,-2.0943,-2.1897,-2.3809,-2.4217,-2.5165,-2.7067,-2.72,-2.72,-2.72,-2.72,-2.72,-2.72,-2.72,-2.72,-2.72,-2.72,-2.72,-2.72,-2.72,-2.72,-2.72,-2.72,-2.72,-2.72,-2.72,-2.72,-2.7232,-2.7494,-2.7653,-2.7764,-2.8011,-2.8154,-2.8265,0.0,0.0,0.0,0.0,0.0,0.0,0.0,0.0,0.0,0.0,0.0,3.2466,3.3018,3.2176,3.1258,3.026,2.9246,2.8215,2.7284,2.6796,2.6765,2.72,2.8069,0.0,2.734,2.7786,2.7803,2.7463,2.624,2.5829,2.62,2.5716,2.5654,2.5891,2.562,2.5549,2.5767,2.4219,2.3483,2.336,2.17,2.042,1.9292,1.9184,1.8331,1.7134,1.5747,1.5653,1.5991,1.4577,1.369,1.2947,1.2947,1.1897,1.0581,0.0,0.0,0.0,0.0,0.7098,0.0,-0.5853,0.0,0.0,0.0,-0.7148,-0.9208,-0.9042,-0.9187,-0.9181,-0.916,-0.9173,-0.9471,-0.9885,-1.1018,-1.2158,-1.2588,-1.4858,-1.6841,-1.7689,-1.8681,-1.9814,-2.0665,-2.1628,-2.2722,-2.3809,-2.4887,-2.5973,-2.72,-2.72,-2.72,-2.72,-2.72,-2.72,-2.72,-2.72,-2.72,-2.72,-2.72,-2.72,-2.72,-2.72,-2.72,-2.72,-2.72,-2.72,-2.72,-2.72,-2.72,-2.72,-2.7224,-2.7439,-2.7733,-2.7749,-2.7955,-2.8225,0.0,0.0,0.0,0.0,0.0,0.0,0.0,0.0,0.0,0.0,0.0,0.0,0.0,3.0722,2.9624,2.9268,2.8351,2.762,2.7347,2.7107,2.7086,2.7251,2.7344,2.7152,2.6843,2.6532,2.6324,2.6151,2.5413,2.5107,2.5247,2.5061,2.4754,2.4408,2.5332,2.5335,2.4711,2.3889,2.2566,2.1042,2.0219,1.9157,1.8021,1.7982,1.7027,1.5561,1.5438,1.4901,1.4212,1.2917,1.235,1.2018,1.1254,1.0601,0.9803,0.7779,0.8208,0.9349,0.0,0.0,0.0,-0.6912,-0.9026,-0.896,-0.7773,-0.8405,-0.9334,-0.9318,-0.9313,-0.9313,-0.9304,-0.931,-0.9885,-1.1449,-1.1872,-1.3151,-1.599,-1.6987,-1.7975,-1.9529,-1.9959,-2.0382,-2.0665,-2.1628,-2.2715,-2.3809,-2.503,-2.6107,-2.72,-2.72,-2.72,-2.72,-2.72,-2.72,-2.72,-2.72,-2.72,-2.72,-2.72,-2.72,-2.72,-2.72,-2.72,-2.72,-2.72,-2.72,-2.72,-2.72,-2.72,-2.72,-2.72,-2.728,-2.7391,-2.7391,-2.7471,-2.7606,0.0,0.0,0.0,0.0,0.0,3.2943,3.2554,3.283,3.2845,3.2104,0.0,0.0,0.0,0.0,2.8538,2.8269,2.762,2.7262,2.7262,2.7262,2.7228,2.7074,2.6903,2.6592,2.6241,2.5632,2.5246,2.5189,2.4654,2.4344,2.4248,2.4261,2.3748,2.2806,2.4106,2.433,2.3572,2.2636,2.1382,1.9927,1.8994,1.7789,1.6675,1.6506,1.5514,1.3998,1.3868,1.3397,1.2503,1.1183,1.0958,1.0969,1.0206,0.9276,0.82,0.6581,0.6868,0.7574,0.6405,0.0,0.0,0.0,-0.889,-0.9122,-0.9141,-0.9207,-0.9272,-0.9441,-0.9449,-0.9735,-1.0305,-1.0449,-1.0875,-1.2445,-1.3436,-1.4995,-1.7981,-1.8686,-1.9245,-2.0527,-2.0665,-2.0804,-2.1214,-2.2173,-2.3263,-2.4353,-2.5569,-2.6383,-2.72,-2.72,-2.72,-2.72,-2.72,-2.72,-2.72,-2.72,-2.72,-2.72,-2.72,-2.72,-2.72,-2.72,-2.72,-2.72,-2.72,-2.72,-2.72,-2.72,-2.72,-2.72,-2.72,-2.72,-2.72,-2.72,-2.72,-2.724,0.0,0.0,3.3081,3.3081,3.3081,3.3081,3.3081,3.3081,3.2711,3.1713,0.0,0.0,0.0,0.0,0.0,2.7347,2.7262,2.7262,2.7262,2.7262,2.7064,2.6586,2.7031,2.6653,2.5406,2.5144,2.4907,2.471,2.3977,2.3436,2.2982,2.3217,2.2543,2.1131,2.1838,2.2286,2.2428,2.0544,2.0117,2.0361,1.8137,1.6572,1.539,1.4962,1.3984,1.2537,1.1226,1.0833,1.0965,0.9513,0.9389,0.9664,0.9949,0.7796,0.5247,0.5247,0.3632,0.1077,0.0,0.0,0.0,-0.8799,-0.8743,-0.8852,-0.9103,-0.9133,-0.9314,-0.9856,-0.9879,-1.0593,-1.2302,-1.2731,-1.2873,-1.2873,-1.5561,-1.7975,-1.8406,-1.982,-2.0665,-2.0665,-2.0665,-2.1075,-2.2173,-2.3263,-2.4353,-2.5562,-2.6658,-2.72,-2.72,-2.72,-2.72,-2.72,-2.72,-2.72,-2.72,-2.72,-2.72,-2.72,-2.72,-2.72,-2.72,-2.72,-2.72,-2.72,-2.72,-2.72,-2.72,-2.72,-2.72,-2.72,-2.72,-2.72,-2.7208,-2.72,-2.72,-2.72,0.0,3.3154,3.3081,3.3081,3.3081,3.3081,3.3081,3.3081,3.2711,0.0,0.0,0.0,2.9176,2.8269,2.7536,2.7347,2.7262,2.7262,2.7262,2.6774,2.6473,2.6586,2.5926,2.5527,2.5406,2.5054,2.4361,2.3552,2.2999,2.2321,2.1373,2.1462,2.0701,1.9206,1.9496,1.9195,1.8561,1.9663,1.9402,1.8149,1.6626,1.5783,1.5331,1.3957,1.2541,1.1226,1.0833,1.0174,0.9247,0.8853,0.8865,0.8881,0.8907,0.552,0.148,0.148,-0.1883,-0.5798,-0.6883,0.0,0.0,0.0,0.0,0.0,-0.8997,-0.9133,-0.941,-0.9873,-1.0734,-1.1732,-1.2588,-1.4712,-1.6413,-1.6413,-1.7122,-1.8396,-1.982,-2.0388,-2.0665,-2.0665,-2.0665,-2.1075,-2.2173,-2.3263,-2.4353,-2.5562,-2.6658,-2.72,-2.72,-2.72,-2.72,-2.72,-2.72,-2.72,-2.72,-2.72,-2.72,-2.72,-2.72,-2.72,-2.72,-2.72,-2.72,-2.72,-2.72,-2.72,-2.72,-2.72,-2.72,-2.72,-2.72,-2.72,-2.7334,-2.837,-2.8106,-2.7459,3.3167,3.3081,3.3081,3.3081,3.3081,3.3081,3.3081,3.2711,3.2164,0.0,0.0,0.0,2.8269,2.7631,2.7334,2.7521,2.7365,2.7239,2.7145,2.6553,2.6143,2.5857,2.5154,2.472,2.4789,2.3742,2.3063,2.2644,2.1677,2.0878,1.9876,1.9761,1.8964,1.7473,1.7736,1.697,1.5675,1.7352,1.7468,1.6561,1.5589,1.4505,1.3578,1.2405,1.1094,0.9779,0.9779,0.9253,0.8598,0.8598,0.8614,0.8636,0.8649,0.4581,-0.0538,-0.2828,-0.5934,-0.8652,-0.8641,-0.863,-0.8619,-0.8606,0.0,0.0,-0.9068,-0.9338,-0.9752,-1.0999,-1.2019,-1.3155,-1.4716,-1.67,-1.8256,-1.8966,-1.8966,-1.939,-2.0527,-2.0665,-2.0665,-2.0665,-2.1081,-2.176,-2.2853,-2.3938,-2.5022,-2.6241,-2.6792,-2.72,-2.72,-2.72,-2.72,-2.72,-2.72,-2.72,-2.72,-2.72,-2.72,-2.72,-2.72,-2.72,-2.72,-2.72,-2.72,-2.72,-2.72,-2.72,-2.72,-2.72,-2.72,-2.72,-2.72,-2.7592,-2.8238,-2.9011,-2.9142,-2.9134,0.0,3.3081,3.3081,3.3081,3.3081,3.3081,3.2982,3.2164,3.1258,0.0,2.9176,2.8269,2.7347,2.7262,2.7438,2.7883,2.7466,2.7135,2.6794,2.6486,2.5876,2.4868,2.4462,2.4065,2.3784,2.1996,2.1309,2.1729,2.0168,1.9146,1.8487,1.8267,1.7349,1.5844,1.6065,1.5219,1.3555,1.4328,1.478,1.4911,1.4504,1.3007,1.1083,1.07,0.9646,0.8587,0.859,0.86,0.8614,0.8619,0.8636,0.8386,0.7031,0.31,-0.1885,-0.676,-0.8389,-0.8649,-0.8638,-0.8633,-0.8628,-0.8611,-0.8619,0.0,-0.9314,-0.9379,-1.015,-1.2386,-1.302,-1.4152,-1.7414,-1.8121,-1.8826,-2.0382,-2.0665,-2.0665,-2.0665,-2.0665,-2.0665,-2.0665,-2.1622,-2.2715,-2.3809,-2.4887,-2.6107,-2.7067,-2.72,-2.72,-2.72,-2.72,-2.72,-2.72,-2.72,-2.72,-2.72,-2.72,-2.72,-2.72,-2.72,-2.72,-2.72,-2.72,-2.72,-2.72,-2.72,-2.72,-2.72,-2.72,-2.72,-2.72,-2.72,-2.8114,-2.9273,-2.9526,-3.029,-3.1313,3.3081,3.3081,3.3081,3.3081,3.3081,3.281,3.1989,3.1725,3.0991,2.9176,2.8175,2.7536,2.7357,2.7262,2.7438,2.7883,2.7236,2.6665,2.6473,2.5273,2.4544,2.4631,2.3411,2.2838,2.2717,2.1979,2.073,1.908,1.8545,1.7628,1.6661,1.6543,1.5709,1.4147,1.4505,1.3655,1.2097,1.2251,1.1864,1.1318,1.1547,1.1315,1.07,0.9513,0.8851,0.859,0.8603,0.8611,0.8617,0.8641,0.8652,0.6896,-0.2726,-0.6262,-0.6625,-0.5452,-0.6785,-0.8644,-0.8736,-0.8753,-0.8739,-0.8736,-0.8807,0.0,-0.894,-0.9167,-0.9419,-1.0419,-1.1449,-1.287,-1.4858,-1.67,-1.8256,-1.9535,-2.0243,-2.0665,-2.0665,-2.0665,-2.0665,-2.0665,-2.1622,-2.2715,-2.3809,-2.4887,-2.6107,-2.7067,-2.72,-2.72,-2.72,-2.72,-2.72,-2.72,-2.72,-2.72,-2.72,-2.72,-2.72,-2.72,-2.72,-2.72,-2.72,-2.72,-2.72,-2.72,-2.72,-2.72,-2.72,-2.72,-2.72,-2.72,-2.72,-2.8114,-2.9395,-3.0549,-3.1056,-3.157,3.3081,3.3081,3.3081,3.3081,3.2711,3.2164,3.1713,3.0812,2.9806,2.8817,2.7904,2.7262,2.7081,2.7277,2.7283,2.7003,2.652,2.5973,2.5117,2.4216,2.3685,2.3436,2.2284,2.1549,2.1578,2.0092,1.8842,1.7935,1.7109,1.6166,1.5116,1.4992,1.4147,1.2697,1.2817,1.2093,1.0774,1.0856,1.0173,0.9255,1.0213,1.0244,0.9513,0.8862,0.86,0.8603,0.8617,0.8628,0.8228,0.5253,0.2422,-0.1076,-0.7075,-0.9016,-0.8595,-0.6931,-0.7474,-0.8717,-0.8769,-0.8777,-0.8785,-0.8845,-0.8861,0.0,0.0,-0.9277,-0.9634,-1.0883,-1.182,-1.287,-1.4424,-1.5839,-1.7117,-1.8396,-1.9111,-1.982,-2.0527,-2.0665,-2.0665,-2.0665,-2.1622,-2.2715,-2.3809,-2.4887,-2.6107,-2.7067,-2.72,-2.72,-2.72,-2.72,-2.72,-2.72,-2.72,-2.7334,-2.7733,-2.7334,-2.76,-2.8263,-2.76,-2.7334,-2.7733,-2.7334,-2.72,-2.72,-2.76,-2.76,-2.72,-2.76,-2.7467,-2.7334,-2.7981,-2.9142,-3.0419,-3.1835,-3.2727,-3.3495,3.3081,3.3081,3.3068,3.281,3.2164,3.1448,3.108,2.9726,2.8631,2.8445,2.7726,2.7177,2.69,2.7191,2.7013,2.6087,2.5891,2.5258,2.3712,2.3426,2.2884,2.2118,2.1126,2.0458,2.0221,1.8033,1.7003,1.7132,1.5828,1.4873,1.4023,1.3545,1.2577,1.137,1.137,1.0664,0.949,0.9611,0.9139,0.8269,0.9416,0.9305,0.8595,0.8611,0.821,0.7804,0.8357,0.7828,0.6071,0.0269,-0.4716,-0.866,-0.8677,-0.8864,-0.9041,-0.8698,-0.8734,-0.8799,-0.8831,-0.884,-0.8864,-0.8962,-0.8913,-0.8999,0.0,0.0,0.0,-1.1437,-1.2147,-1.2963,-1.451,-1.5357,-1.6332,-1.7426,-1.8304,-1.9166,-2.0101,-2.0461,-2.0665,-2.0665,-2.1622,-2.2578,-2.3536,-2.4617,-2.5839,-2.7067,-2.7067,-2.6926,-2.72,-2.72,-2.7334,-2.7467,-2.7334,-2.76,-2.8527,-2.7733,-2.7998,-2.9316,-2.8122,-2.7865,-2.8527,-2.7865,-2.76,-2.76,-2.8263,-2.813,-2.7467,-2.813,-2.8122,-2.7849,-2.888,-3.0169,-3.1442,-3.2863,-3.4268,-3.5418,3.3081,3.3081,3.281,3.1901,3.1713,3.0991,2.9268,2.8817,2.8351,2.7536,2.7177,2.69,2.69,2.7084,2.6804,2.6087,2.5628,2.4922,2.3525,2.2694,2.1805,2.0972,2.0235,1.9325,1.8248,1.7449,1.6649,1.5833,1.451,1.3909,1.3665,1.2457,1.1249,1.0044,1.0044,0.9394,0.8282,0.8296,0.8312,0.8397,0.8535,0.8621,0.8614,0.8622,0.6996,0.5103,0.7692,0.5257,0.0135,-0.5663,-0.8109,-0.8671,-0.8755,-0.8715,-0.8674,-0.8859,-0.8848,-0.8821,-0.9035,-0.9092,-0.9098,-0.9111,-0.9103,-0.9068,-0.8973,0.0,-0.9093,-0.9243,0.0,-1.2511,-1.3632,0.0,0.0,-1.6999,-1.8653,-1.9681,-1.848,-1.9667,-2.0665,-2.0665,-2.1622,-2.231,-2.2448,-2.34,-2.4895,-2.7067,-2.6383,-2.6249,-2.72,-2.72,-2.7467,-2.813,-2.76,-2.7865,-2.9176,-2.8527,-2.8527,-2.9307,-2.9176,-2.9045,-2.9176,-2.9045,-2.9045,-2.9045,-2.9176,-2.879,-2.8263,-2.8922,-2.929,-2.9518,-2.9395,-3.0169,-3.1442,-3.2863,-3.4268,-3.5418,3.3081,3.2624,3.2089,3.1625,3.0633,2.9635,2.8817,2.8269,2.7715,2.7347,2.7081,2.6602,2.579,2.5981,2.5517,2.3694,2.3837,2.3476,2.2184,2.1296,2.0608,2.0141,1.8861,1.7929,1.7331,1.6644,1.5585,1.451,1.3904,1.2942,1.1374,1.0887,0.9926,0.872,0.8799,0.8496,0.8065,0.8212,0.8331,0.8435,0.8527,0.8592,0.8638,0.8644,0.5791,0.2016,0.323,-0.0134,-0.5393,-0.7838,-0.8644,-0.8638,-0.8679,-0.8698,-0.8709,-0.8734,-0.8755,-0.8807,-0.8981,-0.9167,-0.9482,-1.0051,-0.9891,-0.9544,-0.9903,-1.0028,-1.0165,-1.0579,0.0,0.0,0.0,0.0,0.0,0.0,-1.8237,-1.9341,-1.9513,-2.0245,-2.0665,-2.0665,-2.1081,-2.1628,-2.231,-2.3263,-2.4624,-2.6115,-2.5831,-2.6107,-2.72,-2.72,-2.76,-2.8263,-2.76,-2.8122,-2.9831,-2.879,-2.9045,-3.0473,-2.97,-2.9438,-2.9831,-2.9438,-2.9307,-2.9307,-2.97,-2.9307,-2.8395,-3.0065,-3.0437,-2.99,-3.1442,-3.2336,-3.298,-3.4143,-3.4911,-3.5418,3.2711,3.2077,3.1448,3.0902,2.9635,2.8631,2.8269,2.7715,2.7262,2.7071,2.6688,2.5946,2.5045,2.4978,2.4175,2.2161,2.2625,2.2425,2.0859,2.0162,1.9577,1.9107,1.7701,1.6756,1.6161,1.5467,1.451,1.3181,1.2817,1.1615,0.9805,0.9444,0.8839,0.7875,0.797,0.8046,0.8119,0.831,0.7895,0.729,0.8202,0.7701,0.6207,0.6207,0.3637,-0.0269,-0.175,-0.4988,-0.8655,-0.8784,-0.8764,-0.8748,-0.8879,-0.8932,-0.8982,-0.8921,-0.9235,-0.9606,-0.9469,-1.008,-1.0709,-1.0915,-1.0782,-1.0586,-1.11,-1.1369,-1.1776,-1.2561,-1.3698,0.0,0.0,0.0,-1.6751,-1.7308,0.0,-1.911,-1.9804,-1.9969,-2.0243,-2.0665,-2.0665,-2.1051,-2.2063,-2.2676,-2.3802,-2.5427,-2.5555,-2.6092,-2.7467,-2.7733,-2.813,-2.879,-2.8122,-2.865,-3.0602,-2.9438,-2.9691,-3.1377,-3.0343,-3.0083,-3.0602,-3.0091,-2.9831,-2.9961,-3.0732,-3.0334,-2.9421,-3.1588,-3.1954,-3.1433,-3.3359,-3.4393,-3.4767,-3.5284,-3.5418,-3.5418,3.1625,3.1625,3.0991,2.9084,2.8724,2.8269,2.7177,2.7177,2.7071,2.6592,2.5596,2.4947,2.4941,2.4207,2.3333,2.2402,2.2768,2.207,1.9924,1.9815,1.8991,1.7114,1.6997,1.6042,1.3904,1.3784,1.3062,1.1732,1.0528,0.9923,0.9805,0.8599,0.7991,0.7872,0.7894,0.803,0.8114,0.8143,0.669,0.4695,0.7418,0.5257,0.0269,0.0269,0.0135,-0.0673,-0.6341,-0.8383,-0.8652,-0.916,-0.9285,-0.9282,-0.9534,-0.9667,-0.9692,-0.9808,-1.0782,-1.1625,-1.1114,-1.2226,-1.2897,-1.109,-1.1629,-1.2551,-1.21,-1.2765,-1.3833,-1.4331,-1.6089,-1.748,-1.748,-1.9016,-1.9552,-1.784,-1.9119,0.0,0.0,-1.8112,-1.8977,-2.0527,-2.0665,-2.0977,-2.179,-2.1196,-2.2166,-2.5427,-2.5263,-2.5935,-2.813,-2.8922,-2.9569,-3.0222,-2.9569,-2.9952,-3.1377,-3.0611,-3.0611,-3.1377,-3.1377,-3.1377,-3.1377,-3.1377,-3.1377,-3.1377,-3.2374,-3.2365,-3.1854,-3.3621,-3.4487,-3.4602,-3.4777,-3.5675,-3.6667,-3.5798,-3.5418,-3.5418,3.08,3.017,2.9452,2.8817,2.8175,2.7631,2.7272,2.6456,2.5954,2.5761,2.4473,2.3435,2.2911,2.2551,2.2061,2.1345,2.0991,2.0608,1.9815,1.8635,1.7701,1.6997,1.5569,1.45,1.3665,1.2817,1.1732,1.0404,1.0044,0.9319,0.8477,0.8127,0.7888,0.7894,0.7862,0.6965,0.5411,0.7574,0.7964,0.7284,0.8249,0.2827,-0.5663,-0.5663,-0.5663,-0.5662,-0.5787,-0.7134,-0.9029,-0.9288,-0.941,-0.9537,-0.9664,-0.9661,-0.9933,-1.0758,-1.143,-1.1995,-1.2835,-1.3599,-1.4222,-1.4207,-1.425,-1.4378,-1.4727,-1.5235,-1.5873,-1.6634,-1.7681,-1.8742,-1.9295,-1.9858,-2.0023,-1.9258,-1.9911,-2.0269,0.0,-1.9545,-1.9364,-1.8778,-1.9886,-2.0701,-2.0842,-2.1545,-2.2586,-2.3747,-2.5487,-2.6803,-2.7891,-2.8778,-2.9569,-3.0222,-2.97,-2.9961,-3.1377,-3.0611,-3.0611,-3.1377,-3.1377,-3.1377,-3.1377,-3.1377,-3.1377,-3.1377,-3.1754,-3.1873,-3.1982,-3.3621,-3.4612,-3.485,-3.59,-3.6545,-3.68,-3.5798,-3.5552,-3.5675,3.026,2.9084,2.8175,2.8175,2.7715,2.7156,2.6562,2.5761,2.5051,2.4365,2.3176,2.218,2.1852,2.1148,2.0604,2.0394,1.9692,1.9107,1.8874,1.7695,1.6638,1.5806,1.4495,1.3301,1.2337,1.1491,1.0407,0.9079,0.9079,0.8723,0.788,0.7894,0.7401,0.6535,0.7492,0.6955,0.5377,0.5436,0.551,0.5316,0.2799,-0.2678,-0.9335,-0.9186,-0.9046,-0.8778,-0.6989,-0.7655,-0.9549,-0.9543,-0.967,-0.9927,-1.0585,-1.0846,-1.1108,-1.2405,-1.3185,-1.3731,-1.4517,-1.5276,-1.5904,-1.5774,-1.5968,-1.6132,-1.6407,-1.7133,-1.7715,-1.8555,-1.9203,-1.9828,-2.0155,-2.0352,-2.0297,-1.9947,-2.0327,-2.0431,0.0,-1.9574,-1.8925,-1.7032,-1.8931,-2.0551,-2.0799,-2.1639,-2.2807,-2.4187,-2.5923,-2.7278,-2.8331,-2.9353,-3.008,-3.0732,-3.0222,-3.0473,-3.1377,-3.087,-3.087,-3.1377,-3.1377,-3.1377,-3.1377,-3.1377,-3.1377,-3.1377,-3.1754,-3.2247,-3.2863,-3.4373,-3.5242,-3.5858,-3.6534,-3.6921,-3.6911,-3.6044,-3.5798,-3.5798,2.9897,2.8631,2.7262,2.7262,2.7262,2.6764,2.5187,2.507,2.4562,2.2685,2.1684,2.1354,2.1632,1.9983,1.9033,1.9645,1.8861,1.7923,1.7114,1.6879,1.5924,1.3784,1.3545,1.2337,0.9805,0.9684,0.9079,0.7872,0.7872,0.7883,0.7899,0.7899,0.6532,0.4186,0.6432,0.7498,0.7214,0.1893,-0.0382,-0.1034,-0.7749,-1.0551,-1.0541,-1.0219,-0.9943,-0.9695,-0.9952,-0.9949,-1.0082,-1.0196,-1.0326,-1.0585,-1.2293,-1.2816,-1.321,-1.4646,-1.5944,-1.685,-1.6333,-1.7293,-1.801,-1.6262,-1.6701,-1.755,-1.7255,-1.8129,-1.942,-2.0119,-2.0454,-2.0557,-2.0321,-2.0484,-2.0484,-1.9989,-2.0315,-1.998,-1.8205,-1.8156,-1.7649,-1.5788,-1.8206,-2.0391,-2.1523,-2.164,-2.2841,-2.6033,-2.6431,-2.7494,-2.9542,-3.0248,-3.0829,-3.1332,-3.1368,-3.1377,-3.1377,-3.1377,-3.1377,-3.1377,-3.1377,-3.1377,-3.1377,-3.1377,-3.1377,-3.1506,-3.2374,-3.3379,-3.4507,-3.5376,-3.6502,-3.7385,-3.7032,-3.7154,-3.7264,-3.6667,-3.6167,-3.5798,2.8991,2.7998,2.7081,2.7262,2.7177,2.6496,2.5089,2.4088,2.3076,2.1785,2.0585,1.9709,1.959,1.9119,1.881,1.8809,1.7929,1.7226,1.6997,1.5451,1.4262,1.3665,1.1856,1.0528,0.9805,0.8839,0.8233,0.7872,0.7886,0.7894,0.7899,0.7918,0.7554,0.6683,0.3458,0.1992,0.1641,-0.3668,-0.6387,-0.7243,-0.6604,-0.7667,-0.9796,-1.0038,-0.9964,-0.9926,-0.9766,-0.9933,-1.0199,-1.0193,-1.1111,-1.2161,-1.2684,-1.3473,-1.4646,-1.6073,-1.6721,-1.7238,-1.8028,-1.8606,-1.8788,-1.826,-1.858,-1.9035,-1.8897,-1.924,-1.9715,-1.9983,-2.0038,-2.0128,-2.0255,-2.0334,-2.0334,-2.0201,-2.0128,-1.9575,-1.8161,-1.8687,-1.857,-1.6901,-1.935,-2.0458,-1.8769,-2.1666,-2.3679,-2.3961,-2.5798,-2.7501,-2.8756,-2.8907,-2.952,-3.0937,-3.1222,-3.1377,-3.1377,-3.1377,-3.1377,-3.1377,-3.1377,-3.1377,-3.1377,-3.1377,-3.1377,-3.1377,-3.1625,-3.2756,-3.4383,-3.4622,-3.5879,-3.7374,-3.7264,-3.7264,-3.7264,-3.6667,-3.6044,-3.5552,2.8631,2.7809,2.688,2.637,2.6091,2.5596,2.4393,2.3085,2.1785,2.0585,1.9457,1.8766,1.8837,1.8125,1.7679,1.7763,1.6879,1.6172,1.5569,1.4376,1.3181,1.2097,1.0649,0.9562,0.8958,0.8233,0.7875,0.7883,0.7894,0.7905,0.7915,0.7932,0.669,0.4327,0.1358,-0.1241,-0.3632,-0.6654,-0.8489,-0.923,-0.7531,-0.8066,0.0,-1.0045,-1.0213,-1.0154,-0.998,-1.0218,-1.0455,-1.1111,-1.2029,-1.2943,-1.4245,-1.5159,-1.6073,-1.7501,-1.7893,-1.8028,-1.8944,-1.9078,-1.9078,-1.9078,-1.9187,-1.9295,-1.9295,-1.9507,-1.97,-1.97,-1.9802,-1.9893,-1.9917,-2.0026,-2.011,-2.011,-1.9983,-1.962,-1.8816,-1.8582,-1.8228,-1.7195,-1.86,-1.8956,-1.7435,-2.1397,-2.3871,-2.3566,-2.4843,-2.6265,-2.7816,-2.7991,-2.8902,-3.0781,-3.1176,-3.1377,-3.1377,-3.1377,-3.1377,-3.1377,-3.1377,-3.1377,-3.1377,-3.1377,-3.1377,-3.1377,-3.1873,-3.2756,-3.3747,-3.4746,-3.5756,-3.6757,-3.7253,-3.7264,-3.7154,-3.6545,-3.6167,-3.5798,2.8258,2.761,2.6562,2.508,2.459,2.4088,2.2976,2.1979,2.0783,1.9368,1.8415,1.8115,1.8397,1.7123,1.6331,1.6833,1.5941,1.4873,1.3784,1.3426,1.2217,0.9923,0.9684,0.9079,0.7869,0.7875,0.7883,0.7899,0.7902,0.7907,0.7915,0.7182,0.4445,-0.0,-0.0,-0.2966,-0.7951,-0.7943,-0.8361,-0.8946,-0.9309,-0.9754,-1.0116,-1.0226,-1.0232,-1.0249,-1.0503,-1.0694,-1.1083,-1.2389,-1.3058,-1.3726,-1.6198,-1.7109,-1.7501,-1.8682,-1.9078,-1.9078,-1.9078,-1.9078,-1.9078,-1.9078,-1.9078,-1.9078,-1.9078,-1.9253,-1.9546,-1.9677,-1.9872,-1.9976,-1.9893,-2.0084,-2.0281,-2.0148,-2.0117,-2.0013,-1.9762,-1.8513,-1.7615,-1.7265,-1.749,0.0,-1.7238,-2.0916,-2.3435,-2.366,-2.3435,-2.4432,-2.6842,-2.7244,-2.8389,-3.0699,-3.1148,-3.1377,-3.1377,-3.1377,-3.1377,-3.1377,-3.1377,-3.1377,-3.1377,-3.1377,-3.1377,-3.1506,-3.2384,-3.2883,-3.3253,-3.5005,-3.5869,-3.6125,-3.7,-3.7264,-3.6911,-3.6545,-3.6423,-3.63,2.6668,2.5877,2.5089,2.4384,2.2785,2.1371,2.0719,2.0751,2.0269,1.8513,1.8094,1.7682,1.6733,1.6346,1.6103,1.5908,1.4748,1.3909,1.3665,1.1732,1.0286,0.9805,0.8839,0.8113,0.7872,0.7886,0.7896,0.7899,0.7921,0.7886,0.7793,0.3439,0.0858,-0.0,-0.0,-0.2964,-0.7943,-0.8544,-0.8909,-0.9161,-0.9265,-0.9516,-0.9907,-0.9903,-0.9978,-1.0211,-1.1321,-1.1909,-1.2334,-1.2592,-1.4239,-1.6328,-1.6845,-1.7765,-1.881,-1.9072,-1.9078,-1.9078,-1.9078,-1.9078,-1.9078,-1.9078,-1.9078,-1.9078,-1.9078,-1.9114,-1.9395,-2.0272,-2.0445,-2.0791,-2.1754,-2.2161,-2.2102,-2.1324,-2.0998,-2.0831,-2.0779,-1.9917,-1.9114,-1.8816,-2.0182,-2.0556,-1.8932,-2.0696,-2.195,-2.2069,-2.195,-2.3333,-2.6482,-2.5975,-2.7115,-3.0171,-3.1002,-3.1377,-3.1377,-3.1377,-3.1377,-3.1377,-3.1377,-3.1377,-3.1377,-3.1377,-3.1377,-3.1377,-3.1635,-3.2629,-3.4123,-3.4507,-3.5633,-3.7132,-3.7374,-3.7374,-3.7264,-3.6921,-3.6678,-3.63,2.5294,2.4786,2.398,2.224,2.1135,1.9922,1.8471,1.8485,1.8394,1.7463,1.6935,1.6617,1.6292,1.5783,1.5298,1.4713,1.4028,1.3062,1.1736,1.0528,0.9562,0.8839,0.8244,0.7886,0.7886,0.7899,0.791,0.7921,0.7932,0.6512,0.3743,0.1226,-0.147,-0.4112,-0.4052,-0.5684,-0.8287,-0.8523,-0.8879,-0.923,-0.9342,-0.9457,-0.9822,-0.9822,-1.0229,-1.1031,-1.1634,-1.2904,-1.4404,-1.4392,-1.5458,-1.6924,-1.7701,-1.8442,-1.9078,-1.9078,-1.9078,-1.9078,-1.9078,-1.9078,-1.9078,-1.9078,-1.9078,-1.92,-1.9705,-1.9826,-2.0202,-2.1215,-2.1342,-2.1515,-2.2173,-2.2447,-2.2288,-2.1781,-2.1659,-2.1444,-2.0926,-2.0553,-2.0087,-1.9456,-2.0335,-2.0589,-1.9456,-2.0075,-2.0829,-2.158,-2.1089,-2.2445,-2.6269,-2.5817,-2.6964,-3.0071,-3.0965,-3.1377,-3.1377,-3.1377,-3.1377,-3.1377,-3.1377,-3.1377,-3.1377,-3.1377,-3.1377,-3.1377,-3.2001,-3.2756,-3.3757,-3.4757,-3.6002,-3.7374,-3.7374,-3.7374,-3.7385,-3.6789,-3.6545,-3.63,2.3674,2.3267,2.2449,1.9892,1.9384,1.8672,1.6723,1.6411,1.6411,1.6411,1.5879,1.5652,1.5844,1.5101,1.4259,1.3751,1.3181,1.1976,0.9923,0.9562,0.8961,0.7997,0.7891,0.7649,0.7028,0.7662,0.7924,0.794,0.6813,0.4039,-0.0,-0.1102,-0.3932,-0.7933,-0.8019,-0.829,-0.8509,-0.8754,-0.8989,-0.9335,-0.9335,-0.9579,-0.9819,-1.0061,-1.0785,-1.1752,-1.235,-1.401,-1.5997,-1.6314,-1.6695,-1.7194,-1.822,-1.8782,-1.8988,-1.8988,-1.9036,-1.9078,-1.9078,-1.9078,-1.9078,-1.9078,-1.92,-1.9577,-2.0449,-2.0829,-2.1209,-2.223,-2.2606,-2.2606,-2.2487,-2.2606,-2.2606,-2.2487,-2.2355,-2.2104,-2.1335,-2.1348,-2.1102,-2.0087,-2.0469,-2.0749,-2.0285,-2.0164,-2.0693,-2.2258,-2.1162,-2.2083,-2.5774,-2.6068,-2.7352,-2.9937,-3.0838,-3.1377,-3.112,-3.1377,-3.1377,-3.1377,-3.1377,-3.1377,-3.1377,-3.1377,-3.1377,-3.1506,-3.2256,-3.2883,-3.3379,-3.5376,-3.6635,-3.7374,-3.7374,-3.7374,-3.7374,-3.6778,-3.6545,-3.6423,2.144,2.0719,1.9789,1.8053,1.7338,1.6723,1.5773,1.5559,1.5559,1.5559,1.5559,1.5327,1.5057,1.3957,1.3327,1.3627,1.1491,1.0044,0.9805,0.8717,0.8,0.7894,0.7896,0.678,0.4307,0.6678,0.7937,0.794,0.3088,0.0486,-0.0118,-0.4884,-0.7442,-0.7924,-0.8535,-0.8649,-0.8509,-0.9364,-0.9477,-0.9335,-0.9579,-0.9822,-0.994,-1.1027,-1.1631,-1.1989,-1.4376,-1.5467,-1.585,-1.6949,-1.7775,-1.8201,-1.833,-1.8511,-1.8722,-1.8722,-1.8891,-1.9078,-1.9078,-1.9078,-1.9078,-1.9078,-1.9833,-2.0456,-2.0576,-2.1342,-2.223,-2.323,-2.4232,-2.4487,-2.3611,-2.4232,-2.4487,-2.3611,-2.3487,-2.3487,-2.3355,-2.2856,-2.2111,-2.1109,-2.2341,-2.3061,-2.2454,-2.1977,-2.2594,-2.4539,-2.2638,-2.2313,-2.4147,-2.6303,-2.7991,-2.9181,-3.0574,-3.112,-3.0352,-3.112,-3.1377,-3.1377,-3.1377,-3.1377,-3.1377,-3.1377,-3.1377,-3.1377,-3.1506,-3.2629,-3.4383,-3.638,-3.7374,-3.7374,-3.7374,-3.7374,-3.7374,-3.7374,-3.7143,-3.68,1.9184,1.8672,1.8046,1.6599,1.6086,1.5666,1.4826,1.4051,1.3609,1.3609,1.3609,1.3676,1.3793,1.2694,1.1811,1.1343,1.0407,0.9441,0.8717,0.8125,0.7891,0.7899,0.7915,0.7424,0.6304,0.4199,0.3211,0.3211,0.0988,-0.1588,-0.4795,-0.6874,-0.8058,-0.8281,-0.8888,-0.8998,-0.8983,-0.9348,-0.9585,-0.9579,-0.97,-1.0304,-1.1027,-1.1511,-1.2706,-1.4138,-1.5213,-1.6048,-1.6767,-1.7361,-1.7732,-1.804,-1.804,-1.8227,-1.845,-1.845,-1.8638,-1.8843,-1.8843,-1.9453,-1.9954,-1.9954,-2.0709,-2.172,-2.2215,-2.2731,-2.3238,-2.4232,-2.4857,-2.4988,-2.461,-2.4857,-2.498,-2.461,-2.4487,-2.4479,-2.4216,-2.3852,-2.3171,-2.2342,-2.3502,-2.4007,-2.33,-2.2933,-2.2898,-2.3343,-2.1605,-2.1719,-2.4344,-2.5802,-2.7099,-2.8537,-3.0437,-3.1249,-3.0991,-3.1249,-3.1377,-3.1377,-3.1377,-3.1377,-3.1377,-3.1377,-3.1754,-3.2374,-3.2883,-3.4007,-3.5376,-3.6878,-3.7374,-3.7374,-3.7374,-3.7374,-3.7385,-3.7143,-3.7043,-3.68,1.7226,1.6916,1.6499,1.5351,1.4809,1.4374,1.3743,1.2644,1.1873,1.1873,1.1542,1.1669,1.2339,1.1396,1.0394,0.984,0.9418,0.8839,0.8,0.7891,0.7902,0.791,0.7929,0.719,0.5569,0.037,-0.2347,-0.2346,-0.2346,-0.38,-0.6779,-0.771,-0.825,-0.8754,-0.9117,-0.923,-0.9335,-0.9457,-0.9822,-1.0304,-1.0304,-1.1148,-1.235,-1.2706,-1.4018,-1.5693,-1.6048,-1.6767,-1.7485,-1.7485,-1.7605,-1.7756,-1.7756,-1.795,-1.8173,-1.8173,-1.836,-1.8571,-1.8571,-1.9255,-2.008,-2.0452,-2.1281,-2.2355,-2.3355,-2.386,-2.4232,-2.498,-2.5111,-2.5111,-2.5111,-2.5111,-2.5111,-2.5111,-2.5234,-2.5341,-2.5071,-2.4964,-2.4549,-2.3384,-2.4169,-2.4684,-2.4124,-2.3745,-2.3551,-2.3804,-2.2194,-2.2233,-2.4531,-2.5692,-2.6972,-2.8412,-3.031,-3.1249,-3.112,-3.1249,-3.1377,-3.1377,-3.1377,-3.1377,-3.1377,-3.1377,-3.1754,-3.2502,-3.3882,-3.4757,-3.55,-3.6878,-3.7374,-3.7374,-3.7374,-3.7374,-3.7374,-3.7154,-3.7032,-3.6911,1.5666,1.5559,1.5244,1.4407,1.3192,1.2413,1.2417,1.1433,1.0672,1.0672,0.9688,0.9529,1.0911,0.9953,0.9425,0.9581,0.8524,0.7877,0.7896,0.7899,0.791,0.7937,0.794,0.5444,0.0247,-0.5077,-0.7825,-0.7814,-0.7814,-0.6503,-0.3966,-0.7103,-0.8747,-0.9246,-0.9223,-0.9335,-0.9339,-0.97,-1.0547,-1.1631,-1.1631,-1.247,-1.3784,-1.5095,-1.5575,-1.5811,-1.7003,-1.7479,-1.7485,-1.7485,-1.7485,-1.7485,-1.7485,-1.7666,-1.7877,-1.7877,-1.8076,-1.83,-1.83,-1.8493,-1.8937,-1.9917,-2.1125,-2.2355,-2.3355,-2.4355,-2.5111,-2.5111,-2.5111,-2.5111,-2.5111,-2.5111,-2.5111,-2.5111,-2.5709,-2.6075,-2.6075,-2.6562,-2.6181,-2.3829,-2.4671,-2.5421,-2.5148,-2.4661,-2.5289,-2.731,-2.5471,-2.425,-2.4047,-2.6303,-2.8117,-2.9047,-3.0574,-3.0991,-3.0352,-3.0991,-3.1377,-3.1377,-3.1377,-3.1377,-3.1377,-3.1377,-3.1377,-3.1497,-3.3505,-3.4383,-3.4632,-3.6624,-3.7374,-3.7374,-3.7374,-3.7374,-3.7374,-3.7374,-3.7374,-3.7253,1.4826,1.3948,1.3285,1.297,1.1982,1.1214,1.1214,1.0233,0.9467,0.9467,0.8478,0.7943,0.8313,0.819,0.8151,0.817,0.806,0.7894,0.7907,0.7918,0.7929,0.794,0.445,-0.0,-0.5319,-0.7067,-0.7059,-0.5179,-0.7045,-0.7641,-0.7091,-0.832,-0.9073,-0.9223,-0.9582,-0.97,-0.97,-1.0664,-1.1269,-1.1752,-1.2711,-1.3784,-1.5095,-1.5451,-1.6172,-1.7003,-1.7361,-1.7485,-1.7485,-1.7485,-1.7485,-1.7485,-1.7485,-1.7539,-1.7605,-1.7605,-1.7799,-1.8004,-1.8004,-1.9172,-2.053,-2.1088,-2.2566,-2.3948,-2.4556,-2.4857,-2.5111,-2.5111,-2.5111,-2.5111,-2.5111,-2.5111,-2.5111,-2.5111,-2.5709,-2.6197,-2.6684,-2.6935,-2.6776,-2.6381,-2.7021,-2.7544,-2.7152,-2.6791,-2.6348,-2.5849,-2.409,-2.3613,-2.4515,-2.6575,-2.7991,-2.8412,-3.0437,-3.1249,-3.0991,-3.1249,-3.1377,-3.1377,-3.1377,-3.1377,-3.1377,-3.1377,-3.1754,-3.2502,-3.3882,-3.4757,-3.55,-3.6878,-3.7374,-3.7374,-3.7374,-3.7374,-3.7374,-3.7154,-3.7032,-3.6911,1.3743,1.297,1.2309,1.1869,1.0781,1.0014,1.0014,0.903,0.826,0.826,0.7604,0.7165,0.7165,0.7345,0.7397,0.7517,0.6781,0.6867,0.7795,0.7932,0.7064,0.507,-0.0123,-0.4573,-0.7814,-0.7932,-0.7047,-0.5418,-0.7153,-0.8386,-0.8867,-0.9111,-0.9348,-0.9457,-1.0183,-1.0547,-1.0543,-1.1868,-1.2706,-1.3186,-1.4023,-1.5213,-1.629,-1.629,-1.6767,-1.7485,-1.7485,-1.7485,-1.7485,-1.7485,-1.7485,-1.7485,-1.7485,-1.7485,-1.7485,-1.7485,-1.7836,-1.8314,-1.8314,-1.9589,-2.1174,-2.1718,-2.2826,-2.3987,-2.4703,-2.5016,-2.5111,-2.5111,-2.5111,-2.5111,-2.5111,-2.5111,-2.5111,-2.5111,-2.5709,-2.6319,-2.6935,-2.7177,-2.7254,-2.7093,-2.7495,-2.7712,-2.7565,-2.7326,-2.6976,-2.6627,-2.5606,-2.5357,-2.6364,-2.6818,-2.7605,-2.8922,-3.0574,-3.1377,-3.1377,-3.1377,-3.1377,-3.1377,-3.1377,-3.1377,-3.1377,-3.1377,-3.2001,-3.3009,-3.3998,-3.5005,-3.6002,-3.7,-3.7374,-3.7374,-3.7374,-3.7264,-3.7154,-3.6921,-3.68,-3.6678,1.2639,1.2304,1.1869,1.0781,0.9578,0.8809,0.8809,0.7931,0.7157,0.7157,0.7173,0.7182,0.6956,0.7064,0.7292,0.7397,0.5362,0.5092,0.717,0.7311,0.4947,-0.037,-0.5319,-0.7937,-0.7937,-0.7921,-0.7907,-0.7896,-0.8253,-0.8732,-0.9335,-0.9335,-0.9579,-0.994,-1.1148,-1.1752,-1.1868,-1.3306,-1.45,-1.5575,-1.5693,-1.6408,-1.7485,-1.7485,-1.7485,-1.7485,-1.7485,-1.7485,-1.7485,-1.7485,-1.7485,-1.7485,-1.7485,-1.7485,-1.7485,-1.7485,-1.8181,-1.8874,-1.8874,-1.9766,-2.0918,-2.1891,-2.2488,-2.3065,-2.4251,-2.4833,-2.5079,-2.5103,-2.5111,-2.5111,-2.5111,-2.5111,-2.5111,-2.5111,-2.5709,-2.6319,-2.6935,-2.7539,-2.7642,-2.6762,-2.6641,-2.6641,-2.6641,-2.6641,-2.7254,-2.8737,-2.8856,-2.8856,-2.8856,-2.6952,-2.7225,-3.0071,-3.0965,-3.1377,-3.1377,-3.1377,-3.1377,-3.1377,-3.1377,-3.1377,-3.1377,-3.1506,-3.2001,-3.2873,-3.4007,-3.5005,-3.5879,-3.7,-3.7374,-3.7374,-3.7374,-3.7264,-3.6921,-3.6921,-3.6678,-3.6423,1.2639,1.1651,1.0781,0.9578,0.8367,0.7595,0.7595,0.7388,0.7176,0.7176,0.7184,0.651,0.4702,0.6086,0.7182,0.7297,0.7025,0.5565,0.2062,0.184,-0.0494,-0.5818,-0.719,-0.7929,-0.7907,-0.7905,-0.8019,-0.8253,-0.8372,-0.8732,-0.9335,-0.9335,-0.994,-1.1269,-1.1511,-1.223,-1.3306,-1.4619,-1.5332,-1.5693,-1.6644,-1.7244,-1.7485,-1.7485,-1.7485,-1.7485,-1.7485,-1.7485,-1.7485,-1.7485,-1.7485,-1.7485,-1.7485,-1.7485,-1.7485,-1.7485,-1.8181,-1.8874,-1.8874,-2.0074,-2.1457,-2.2064,-2.2966,-2.3905,-2.4499,-2.4642,-2.4785,-2.5056,-2.5111,-2.5111,-2.5111,-2.5111,-2.5111,-2.5111,-2.5709,-2.6319,-2.6935,-2.7539,-2.814,-2.837,-2.837,-2.837,-2.837,-2.837,-2.8122,-2.7513,-2.7504,-2.7504,-2.7504,-2.7608,-2.8403,-3.0195,-3.0965,-3.1377,-3.1377,-3.1377,-3.1377,-3.1377,-3.1377,-3.1377,-3.1377,-3.2256,-3.2256,-3.1882,-3.4383,-3.5253,-3.4871,-3.6624,-3.7374,-3.7374,-3.7374,-3.7385,-3.7264,-3.6667,-3.6423,-3.63,1.1873,1.0672,0.9467,0.8371,0.7598,0.7157,0.7165,0.7176,0.6842,0.5714,0.6515,0.6746,0.5386,0.6415,0.7241,0.7193,0.5366,0.3089,0.0241,-0.2311,-0.4909,-0.7811,-0.7926,-0.7913,-0.7899,-0.8016,-0.8375,-0.8854,-0.8854,-0.9335,-1.0425,-1.0425,-1.1144,-1.2586,-1.3186,-1.3904,-1.4619,-1.593,-1.6526,-1.6526,-1.7244,-1.7485,-1.7485,-1.7485,-1.7485,-1.7485,-1.7485,-1.7485,-1.7485,-1.7485,-1.7485,-1.7596,-1.7948,-1.8181,-1.8181,-1.8648,-1.9107,-1.9686,-2.0026,-2.1167,-2.2245,-2.2551,-2.3207,-2.3872,-2.4063,-2.4229,-2.4444,-2.4793,-2.4865,-2.4913,-2.5079,-2.5111,-2.5111,-2.5111,-2.5349,-2.5953,-2.6813,-2.7297,-2.79,-2.8865,-2.8984,-2.8984,-2.8984,-2.8984,-2.8737,-2.7993,-2.7873,-2.7873,-2.7873,-2.8624,-2.9431,-3.0204,-3.0965,-3.1377,-3.1377,-3.1377,-3.1377,-3.1377,-3.1377,-3.1377,-3.1377,-3.2001,-3.2374,-3.2873,-3.4497,-3.5376,-3.5879,-3.7,-3.7374,-3.7374,-3.7374,-3.7264,-3.7143,-3.6545,-3.63,-3.6178,1.0672,0.9578,0.8589,0.7374,0.7154,0.7163,0.7179,0.6844,0.6054,0.4367,0.5276,0.6415,0.7099,0.6534,0.5855,0.5062,0.1249,-0.1044,-0.1076,-0.5292,-0.7774,-0.7875,-0.7872,-0.7869,-0.7989,-0.8241,-0.8732,-0.9335,-0.9457,-1.0301,-1.1752,-1.1872,-1.2711,-1.4023,-1.5095,-1.5693,-1.593,-1.7003,-1.7485,-1.7485,-1.7485,-1.7485,-1.7485,-1.7485,-1.7485,-1.7479,-1.7713,-1.7713,-1.7713,-1.783,-1.7948,-1.8064,-1.8874,-1.9107,-1.9339,-2.0263,-2.05,-2.0608,-2.1395,-2.232,-2.3014,-2.3014,-2.3236,-2.3475,-2.353,-2.3769,-2.4078,-2.4428,-2.4547,-2.4674,-2.4976,-2.5071,-2.5087,-2.504,-2.5032,-2.5391,-2.6608,-2.6849,-2.7349,-2.8737,-2.8984,-2.8984,-2.8984,-2.8984,-2.8984,-2.8984,-2.8984,-2.8984,-2.8984,-2.97,-3.013,-3.0204,-3.0965,-3.1377,-3.1377,-3.1377,-3.1377,-3.1377,-3.1377,-3.1377,-3.1377,-3.1506,-3.2502,-3.4133,-3.4497,-3.5623,-3.7132,-3.7374,-3.7374,-3.7374,-3.7374,-3.7264,-3.6921,-3.6545,-3.63,-3.6044,0.9578,0.903,0.8589,0.7374,0.7154,0.7163,0.7179,0.5489,0.4706,0.641,0.3365,0.2692,0.6763,0.3593,-0.0561,-0.4603,-0.5635,-0.6034,-0.6034,-0.6832,-0.7361,-0.7477,-0.757,-0.7859,-0.809,-0.8557,-0.8976,-0.9335,-1.0415,-1.1261,-1.1752,-1.2826,-1.4023,-1.5332,-1.5451,-1.6166,-1.7244,-1.7361,-1.7485,-1.7485,-1.7485,-1.7485,-1.7485,-1.7485,-1.7485,-1.7596,-1.8415,-1.8648,-1.8758,-1.9577,-1.9924,-1.9924,-2.004,-2.004,-2.027,-2.1167,-2.1395,-2.1395,-2.1509,-2.232,-2.3014,-2.3014,-2.3054,-2.3173,-2.3475,-2.3586,-2.3721,-2.4063,-2.4372,-2.4595,-2.465,-2.4905,-2.5016,-2.4714,-2.4666,-2.49,-2.5733,-2.6211,-2.6935,-2.7984,-2.8618,-2.8984,-2.8984,-2.8984,-2.8984,-2.8984,-2.8984,-2.8984,-2.8984,-2.9415,-2.9837,-3.0195,-3.0965,-3.1377,-3.1377,-3.1377,-3.1377,-3.1377,-3.1377,-3.1377,-3.1377,-3.2256,-3.2883,-3.3253,-3.4881,-3.5869,-3.6247,-3.7,-3.7374,-3.7374,-3.7374,-3.7385,-3.7264,-3.6667,-3.6545,-3.6678,0.914,0.8371,0.7817,0.7265,0.7163,0.7173,0.7187,0.6286,0.505,0.3478,0.1346,0.0897,0.3031,-0.1009,-0.4828,-0.6982,-0.7206,-0.7222,-0.7161,-0.7271,-0.7359,-0.741,-0.7696,-0.8078,-0.8546,-0.8913,-0.946,-1.0531,-1.1218,-1.2346,-1.378,-1.4381,-1.5451,-1.6644,-1.6644,-1.7003,-1.7485,-1.7485,-1.7485,-1.7485,-1.7485,-1.7485,-1.7602,-1.8064,-1.8298,-1.8415,-1.9339,-1.9693,-1.9693,-2.0155,-2.027,-2.0385,-2.0838,-2.0945,-2.1174,-2.2093,-2.232,-2.232,-2.232,-2.2667,-2.3014,-2.3014,-2.3014,-2.3062,-2.322,-2.326,-2.3356,-2.3705,-2.3904,-2.4134,-2.4515,-2.4714,-2.4833,-2.4865,-2.4865,-2.51,-2.5819,-2.643,-2.7099,-2.7882,-2.8618,-2.8984,-2.8984,-2.8984,-2.8984,-2.8984,-2.8984,-2.8984,-2.8984,-2.936,-2.9663,-2.9855,-3.0846,-3.1377,-3.1377,-3.1377,-3.1377,-3.1377,-3.1377,-3.1625,-3.2256,-3.2128,-3.3,-3.4507,-3.4881,-3.5756,-3.6746,-3.7253,-3.7374,-3.7374,-3.7374,-3.7374,-3.7374,-3.6789,-3.6678,-3.6545,0.8592,0.7817,0.7157,0.716,0.7173,0.7187,0.7198,0.7206,0.5506,0.0673,-0.0,-0.0448,-0.157,-0.4942,-0.7209,-0.7203,-0.7198,-0.7187,-0.729,-0.737,-0.7461,-0.744,-0.7927,-0.8417,-0.892,-0.9369,-1.0126,-1.1419,-1.2149,-1.3405,-1.5413,-1.582,-1.644,-1.7394,-1.7455,-1.7485,-1.7485,-1.7485,-1.7485,-1.7479,-1.7719,-1.783,-1.7948,-1.8874,-1.9223,-1.9345,-2.0263,-2.0608,-2.0608,-2.0845,-2.096,-2.1067,-2.1744,-2.1964,-2.2085,-2.2788,-2.3014,-2.3014,-2.3014,-2.3014,-2.3014,-2.3014,-2.3014,-2.3014,-2.3014,-2.3014,-2.3093,-2.3363,-2.3491,-2.3705,-2.4245,-2.4404,-2.4547,-2.4817,-2.4987,-2.5254,-2.5935,-2.6678,-2.7314,-2.7891,-2.8618,-2.8984,-2.8984,-2.8984,-2.8984,-2.8984,-2.8984,-2.8984,-2.8984,-2.9269,-2.947,-2.9571,-3.0653,-3.124,-3.124,-3.1332,-3.1506,-3.1754,-3.1754,-3.2256,-3.3253,-3.2502,-3.3505,-3.5879,-3.5129,-3.5756,-3.7374,-3.7374,-3.7374,-3.7374,-3.7374,-3.7374,-3.7374,-3.7032,-3.68,-3.6656,0.7485,0.7265,0.716,0.7176,0.7182,0.7187,0.7206,0.7209,0.5506,0.0673,-0.0,-0.1682,-0.6186,-0.6982,-0.7203,-0.7187,-0.7184,-0.7287,-0.761,-0.7616,-0.7624,-0.7636,-0.831,-0.8781,-0.8916,-1.0192,-1.1005,-1.1121,-1.3427,-1.4701,-1.4934,-1.631,-1.7002,-1.7129,-1.7376,-1.7485,-1.7485,-1.7485,-1.7485,-1.7596,-1.8415,-1.8765,-1.8874,-1.9809,-2.0155,-2.027,-2.1167,-2.1502,-2.1623,-2.2554,-2.2788,-2.2788,-2.2901,-2.2901,-2.2901,-2.3014,-2.3014,-2.3014,-2.3014,-2.3014,-2.3014,-2.3014,-2.3014,-2.3014,-2.3014,-2.3014,-2.3022,-2.3054,-2.3316,-2.3562,-2.361,-2.388,-2.4102,-2.4126,-2.4606,-2.5192,-2.5641,-2.6635,-2.7612,-2.7975,-2.8618,-2.8984,-2.8984,-2.8984,-2.8984,-2.8984,-2.8984,-2.8984,-2.8984,-2.9012,-2.9195,-2.9562,-3.0396,-3.0827,-3.0827,-3.1194,-3.1882,-3.2756,-3.2756,-3.3379,-3.4258,-3.4248,-3.4746,-3.5879,-3.5879,-3.638,-3.7374,-3.7374,-3.7374,-3.7374,-3.7374,-3.7374,-3.7374,-3.7032,-3.7032,-3.7253,0.7265,0.7165,0.7173,0.7182,0.7192,0.7201,0.7209,0.4604,0.213,0.0224,-0.2579,-0.5168,-0.6982,-0.7201,-0.719,-0.7182,-0.7171,-0.7274,-0.7607,-0.7715,-0.7937,-0.8156,-0.8428,-0.9035,-0.9984,-1.0654,-1.1725,-1.3301,-1.4348,-1.5214,-1.6014,-1.6571,-1.6851,-1.6857,-1.6954,-1.7086,-1.7237,-1.7924,-1.8256,-1.8415,-1.9339,-1.9809,-1.9924,-2.0716,-2.106,-2.1288,-2.2093,-2.2433,-2.2546,-2.2901,-2.3014,-2.3014,-2.3014,-2.3014,-2.3014,-2.3014,-2.3014,-2.3014,-2.3014,-2.3014,-2.3014,-2.3014,-2.3014,-2.3014,-2.3014,-2.3014,-2.3014,-2.3014,-2.3117,-2.3284,-2.3506,-2.3649,-2.3808,-2.4023,-2.4475,-2.4898,-2.5506,-2.6568,-2.7373,-2.7882,-2.8618,-2.8984,-2.8984,-2.8984,-2.8984,-2.8984,-2.8984,-2.9213,-2.9804,-3.0372,-3.0782,-3.0937,-3.154,-3.1379,-3.0424,-3.1168,-3.1865,-3.2488,-3.3123,-3.4121,-3.5253,-3.4622,-3.5253,-3.6757,-3.6125,-3.6502,-3.7374,-3.7374,-3.7374,-3.7374,-3.7374,-3.7374,-3.7374,-3.7264,-3.7154,-3.7032,0.7163,0.7173,0.7184,0.719,0.7201,0.6641,0.5168,0.213,-0.0561,-0.2018,-0.5168,-0.7206,-0.7201,-0.7301,-0.729,-0.7173,-0.7385,-0.749,-0.7715,-0.8484,-0.8813,-0.8598,-0.9034,-0.9691,-1.0672,-1.1457,-1.2745,-1.4516,-1.4906,-1.5549,-1.6447,-1.6531,-1.6567,-1.6573,-1.6664,-1.6909,-1.7415,-1.8088,-1.8597,-1.9199,-2.0123,-2.0637,-2.0838,-2.1744,-2.2085,-2.2085,-2.278,-2.3014,-2.3014,-2.3014,-2.3014,-2.3014,-2.3014,-2.3014,-2.3014,-2.3014,-2.3014,-2.3014,-2.3014,-2.3014,-2.3014,-2.3014,-2.3014,-2.3014,-2.3014,-2.3014,-2.3014,-2.3014,-2.3014,-2.3093,-2.3332,-2.3379,-2.3491,-2.4057,-2.4558,-2.5156,-2.6084,-2.6943,-2.7648,-2.8241,-2.8737,-2.9103,-2.945,-2.945,-2.9568,-2.9903,-2.9903,-3.0138,-3.084,-3.1401,-3.1747,-3.1747,-3.2059,-3.1771,-3.0765,-3.1619,-3.2378,-3.3039,-3.3659,-3.4672,-3.5944,-3.5206,-3.5776,-3.7167,-3.641,-3.6628,-3.7374,-3.7374,-3.7374,-3.7374,-3.7374,-3.7374,-3.7374,-3.7374,-3.7264,-3.7032,0.7179,0.7182,0.7187,0.7206,0.7209,0.5508,0.0785,-0.0,-0.1794,-0.6529,-0.7209,-0.7203,-0.7184,-0.7516,-0.7619,-0.7268,-0.7712,-0.8045,-0.8045,-0.9688,-1.0131,-0.8937,-1.0021,-1.0672,-1.0781,-1.2965,-1.4169,-1.4169,-1.5351,-1.5891,-1.5897,-1.6157,-1.6278,-1.629,-1.6567,-1.7136,-1.7896,-1.7896,-1.8617,-1.9794,-2.0698,-2.1339,-2.1729,-2.2659,-2.3014,-2.3014,-2.3014,-2.3014,-2.3014,-2.3014,-2.3014,-2.3014,-2.3014,-2.3014,-2.3014,-2.3014,-2.3014,-2.3014,-2.3014,-2.3014,-2.3014,-2.3014,-2.3014,-2.3014,-2.3014,-2.3014,-2.3014,-2.3014,-2.3014,-2.3014,-2.3014,-2.3014,-2.3352,-2.4252,-2.5011,-2.5855,-2.7176,-2.8011,-2.8535,-2.8929,-2.8975,-2.9331,-3.0265,-3.0382,-3.084,-3.1747,-3.1862,-3.1862,-3.1862,-3.1862,-3.1862,-3.1862,-3.1862,-3.1862,-3.1862,-3.2622,-3.3554,-3.4515,-3.4515,-3.4997,-3.5965,-3.5965,-3.6227,-3.6686,-3.6686,-3.6948,-3.7363,-3.7363,-3.7374,-3.7374,-3.7374,-3.7374,-3.7374,-3.7374,-3.7374,-3.7374,0.7182,0.7192,0.7203,0.7209,0.4379,0.1682,0.0224,-0.2917,-0.562,-0.6982,-0.7198,-0.7187,-0.7182,-0.7507,-0.761,-0.7493,-0.7823,-0.8484,-0.9467,-1.0233,-1.0891,-1.1332,-1.1655,-1.2309,-1.3181,-1.384,-1.4595,-1.5351,-1.5779,-1.5891,-1.5891,-1.597,-1.6006,-1.6012,-1.6731,-1.7309,-1.772,-1.9017,-1.9852,-2.0362,-2.1347,-2.1884,-2.2299,-2.253,-2.2799,-2.3014,-2.3014,-2.3014,-2.3014,-2.3014,-2.3014,-2.3014,-2.3014,-2.3014,-2.3014,-2.3014,-2.3014,-2.3014,-2.3014,-2.3014,-2.3014,-2.3014,-2.3014,-2.3014,-2.3014,-2.3014,-2.3014,-2.3014,-2.3014,-2.3014,-2.3014,-2.3352,-2.3833,-2.4597,-2.5604,-2.6637,-2.7893,-2.8625,-2.942,-3.0332,-3.0381,-3.0613,-3.1265,-3.1411,-3.1516,-3.1747,-3.2322,-3.2664,-3.2664,-3.3356,-3.3717,-3.3717,-3.3717,-3.3717,-3.3717,-3.3288,-3.336,-3.4053,-3.4729,-3.5385,-3.5965,-3.5965,-3.6042,-3.6184,-3.6184,-3.626,-3.6391,-3.6391,-3.6588,-3.6904,-3.6904,-3.7101,-3.7374,-3.7374,-3.7374,-3.7374,0.7192,0.7201,0.6641,0.4716,0.1906,-0.0,-0.0,-0.4491,-0.7774,-0.7541,-0.7636,-0.7624,-0.7504,-0.7832,-0.7937,-0.7715,-0.8484,-0.9467,-1.0996,-1.176,-1.2417,-1.3073,-1.3501,-1.3938,-1.4169,-1.46,-1.5244,-1.5891,-1.5891,-1.5891,-1.5891,-1.6205,-1.6411,-1.6411,-1.7259,-1.7993,-1.849,-1.9557,-2.0378,-2.101,-2.1537,-2.1965,-2.2291,-2.2434,-2.2617,-2.2823,-2.2966,-2.3014,-2.3014,-2.3014,-2.3014,-2.3014,-2.3014,-2.3014,-2.3014,-2.3014,-2.3014,-2.3014,-2.3014,-2.3014,-2.3014,-2.3014,-2.3014,-2.3014,-2.3014,-2.3014,-2.3014,-2.3014,-2.3014,-2.3014,-2.3352,-2.3689,-2.4136,-2.5008,-2.6059,-2.7133,-2.8201,-2.8991,-2.9757,-3.066,-3.087,-3.1307,-3.2025,-3.2209,-3.2436,-3.2789,-3.3367,-3.3695,-3.3695,-3.4177,-3.4524,-3.4524,-3.4524,-3.4524,-3.4524,-3.3942,-3.3855,-3.4143,-3.4712,-3.5102,-3.5397,-3.5397,-3.5496,-3.5659,-3.5659,-3.578,-3.5965,-3.5965,-3.614,-3.6402,-3.6402,-3.6697,-3.7101,-3.7101,-3.7221,-3.7374,0.7206,0.6868,0.5168,0.0785,-0.0,-0.0224,-0.0673,-0.5162,-0.8444,-0.8091,-0.8187,-0.8171,-0.8048,-0.8263,-0.8374,-0.8045,-0.9357,-1.0887,-1.2417,-1.3619,-1.4277,-1.4385,-1.5351,-1.5458,-1.4385,-1.5351,-1.5891,-1.5891,-1.5998,-1.5998,-1.5992,-1.6942,-1.7358,-1.7358,-1.8101,-1.8945,-1.968,-1.9783,-2.0373,-2.1401,-2.1401,-2.1608,-2.1949,-2.2275,-2.241,-2.249,-2.2839,-2.2966,-2.2974,-2.3006,-2.3014,-2.3014,-2.3014,-2.3014,-2.3014,-2.3014,-2.3014,-2.3014,-2.3014,-2.3014,-2.3014,-2.3014,-2.3014,-2.3014,-2.3014,-2.3014,-2.3014,-2.3014,-2.3014,-2.3239,-2.3809,-2.4024,-2.4573,-2.5679,-2.6617,-2.7606,-2.8552,-2.9381,-2.9985,-3.0419,-3.0833,-3.1431,-3.2364,-3.2896,-3.354,-3.4401,-3.4524,-3.4524,-3.4524,-3.4524,-3.4524,-3.4524,-3.4524,-3.4524,-3.4524,-3.4524,-3.4524,-3.4524,-3.4524,-3.4524,-3.4524,-3.4524,-3.4753,-3.5146,-3.5146,-3.5408,-3.5834,-3.5834,-3.5867,-3.59,-3.59,-3.6195,-3.6631,-3.6783,-3.7187,-3.755,0.7209,0.4153,0.1233,0.0224,-0.0,-0.1569,-0.6293,-0.6056,-0.6158,-0.7958,-0.8171,-0.8048,-0.8045,-0.8263,-0.8484,-0.8374,-0.9688,-1.1542,-1.3619,-1.4056,-1.46,-1.5458,-1.5785,-1.5779,-1.5565,-1.5785,-1.5891,-1.5891,-1.6624,-1.6935,-1.6935,-1.7786,-1.8108,-1.8206,-1.9049,-1.9472,-1.9783,-2.0403,-2.0759,-2.1036,-2.1036,-2.1242,-2.1568,-2.1648,-2.1838,-2.2124,-2.2474,-2.2601,-2.2649,-2.2919,-2.3014,-2.3014,-2.3014,-2.3014,-2.3014,-2.3014,-2.3014,-2.3014,-2.3014,-2.3014,-2.3014,-2.3014,-2.3014,-2.3014,-2.3014,-2.3014,-2.3014,-2.3014,-2.3352,-2.3689,-2.3921,-2.5212,-2.6499,-2.7257,-2.8658,-2.9879,-3.0506,-3.0944,-3.1334,-3.1932,-3.2083,-3.2287,-3.2847,-3.3323,-3.3877,-3.4502,-3.4524,-3.4524,-3.4524,-3.4524,-3.4524,-3.4524,-3.4524,-3.4524,-3.4524,-3.4524,-3.4524,-3.4524,-3.4524,-3.4524,-3.4524,-3.4524,-3.4578,-3.4676,-3.4676,-3.4731,-3.484,-3.484,-3.5048,-3.5375,-3.5375,-3.5681,-3.6279,-3.7661,-3.8191,-3.8455,0.4265,0.1233,-0.0673,-0.0112,-0.0897,-0.3363,-0.8115,-0.7407,-0.6826,-0.8406,-0.8504,-0.838,-0.838,-0.9144,-1.0017,-1.1109,-1.1873,-1.3068,-1.4922,-1.503,-1.5244,-1.5891,-1.5891,-1.5891,-1.5891,-1.6311,-1.6518,-1.6518,-1.6942,-1.7358,-1.7786,-1.8624,-1.9049,-1.9049,-1.9887,-2.03,-2.03,-2.0712,-2.0925,-2.0925,-2.0925,-2.1036,-2.1219,-2.1385,-2.156,-2.1759,-2.2108,-2.2339,-2.2537,-2.2895,-2.3014,-2.3014,-2.3014,-2.3014,-2.3014,-2.3014,-2.3014,-2.3014,-2.3014,-2.3014,-2.3014,-2.3014,-2.3014,-2.3014,-2.3014,-2.3014,-2.3127,-2.3352,-2.4008,-2.4659,-2.5203,-2.6499,-2.7688,-2.8329,-2.9523,-3.0495,-3.0806,-3.1322,-3.1717,-3.199,-3.2241,-3.2558,-3.3016,-3.3508,-3.3901,-3.4163,-3.4392,-3.4524,-3.4524,-3.4524,-3.4524,-3.4524,-3.4524,-3.4524,-3.4524,-3.4524,-3.4524,-3.4524,-3.4524,-3.4524,-3.4524,-3.4524,-3.4524,-3.4524,-3.4524,-3.4524,-3.4524,-3.4524,-3.4666,-3.4884,-3.4884,-3.5179,-3.5775,-3.7485,-3.8873,-3.9903,0.056,-0.1794,-0.2579,-0.1009,-0.2465,-0.4933,-0.8329,-0.8536,-0.8517,-0.8856,-0.895,-0.8937,-0.9154,-1.0241,-1.1873,-1.4056,-1.4169,-1.4708,-1.5785,-1.5891,-1.5891,-1.5891,-1.5891,-1.5891,-1.5891,-1.673,-1.7252,-1.7252,-1.7463,-1.7989,-1.8632,-1.9465,-1.9887,-1.9887,-2.0609,-2.0925,-2.0925,-2.0925,-2.0925,-2.0925,-2.0925,-2.0925,-2.0948,-2.125,-2.1354,-2.1401,-2.1751,-2.214,-2.2529,-2.2823,-2.2966,-2.3014,-2.3014,-2.3014,-2.3014,-2.3014,-2.3014,-2.3014,-2.3014,-2.3014,-2.3014,-2.3014,-2.3014,-2.3014,-2.3239,-2.3352,-2.3456,-2.4016,-2.4982,-2.5945,-2.6924,-2.7902,-2.8764,-2.9197,-3.0057,-3.0599,-3.0599,-3.1208,-3.1618,-3.1618,-3.2001,-3.2437,-3.2907,-3.3311,-3.3584,-3.3661,-3.413,-3.4403,-3.4403,-3.448,-3.4524,-3.4524,-3.4524,-3.4524,-3.4524,-3.4524,-3.4524,-3.4524,-3.4524,-3.4524,-3.4524,-3.4524,-3.4524,-3.4524,-3.4524,-3.4524,-3.4524,-3.4524,-3.4524,-3.4524,-3.4736,-3.5078,-3.5599,-3.7618,-3.9789,-4.1764,-0.123,-0.5054,-0.7089,-0.4375,-0.4143,-0.5256,-0.7958,-0.8634,-0.8853,-0.8944,-0.894,-0.9265,-1.0347,-1.1437,-1.2743,-1.4056,-1.4169,-1.4708,-1.5785,-1.5891,-1.5891,-1.5891,-1.5891,-1.5891,-1.5891,-1.673,-1.7252,-1.7252,-1.8624,-1.9465,-1.9576,-2.0403,-2.0719,-2.0719,-2.0814,-2.0925,-2.0925,-2.0925,-2.0925,-2.0925,-2.0925,-2.0925,-2.0925,-2.0972,-2.0996,-2.1044,-2.1393,-2.1934,-2.2498,-2.2545,-2.276,-2.3014,-2.3014,-2.3014,-2.3014,-2.3014,-2.3014,-2.3014,-2.3014,-2.3014,-2.3014,-2.3014,-2.3014,-2.3231,-2.4342,-2.4565,-2.4667,-2.4974,-2.6264,-2.7571,-2.7902,-2.9197,-3.0172,-3.0172,-3.0899,-3.1424,-3.1424,-3.1527,-3.1618,-3.1618,-3.1684,-3.1924,-3.2427,-3.2536,-3.2732,-3.3136,-3.3617,-3.389,-3.389,-3.4294,-3.4524,-3.4524,-3.4524,-3.4524,-3.4524,-3.4524,-3.4524,-3.4524,-3.4524,-3.4524,-3.4524,-3.4524,-3.4524,-3.4524,-3.4524,-3.4524,-3.4524,-3.4524,-3.4524,-3.4635,-3.5598,-3.6059,-3.6438,-3.9672,-4.198,-4.3614,-0.458,-0.6009,-0.6686,-0.6968,-0.6186,-0.6306,-0.8282,-0.8621,-0.8725,-0.883,-0.9482,-1.0131,-1.0672,-1.2309,-1.3835,-1.503,-1.5137,-1.5351,-1.5891,-1.5891,-1.5891,-1.5891,-1.5891,-1.6099,-1.6624,-1.747,-1.8101,-1.8624,-1.9361,-1.9887,-2.0403,-2.0712,-2.0925,-2.0925,-2.0925,-2.0925,-2.0925,-2.0925,-2.0925,-2.0925,-2.0925,-2.0925,-2.0925,-2.0925,-2.0925,-2.0972,-2.1322,-2.1767,-2.222,-2.2418,-2.272,-2.3014,-2.3014,-2.3014,-2.3014,-2.3014,-2.3014,-2.3014,-2.3014,-2.3014,-2.3014,-2.3014,-2.3239,-2.3689,-2.4128,-2.5331,-2.6291,-2.6599,-2.7776,-2.885,-2.9303,-3.037,-3.1105,-3.1105,-3.1414,-3.1618,-3.1618,-3.1618,-3.1618,-3.1618,-3.1618,-3.1717,-3.1935,-3.2219,-3.247,-3.2667,-3.3126,-3.3508,-3.3781,-3.3999,-3.424,-3.4513,-3.4524,-3.4524,-3.4524,-3.4524,-3.4524,-3.4524,-3.4524,-3.4524,-3.4524,-3.4524,-3.4524,-3.4524,-3.4524,-3.4524,-3.4524,-3.4524,-3.4847,-3.5488,-3.6025,-3.7153,-3.8788,-4.062,-4.237,-4.3964]},{"header":{"parameterUnit":"m.s-1","parameterCategory":1,"la1":30.6,"la2":28.766,"lo1":-90.7593,"lo2":-88.6598,"dy":0.0162,"dx":0.0183,"nx":116,"ny":114,"refTime":"2024-05-07T00:00:00:Z","depth":0,"parameterNumber":3,"parameterNumberName":"V-component_of_WINDS"},"data":[0.0,0.0,0.0,0.0,0.0,0.0,0.0,0.0,0.0,0.0,0.0,0.0,0.0,0.0,0.0,0.0,0.0,0.0,0.0,0.0,0.0,0.0,0.0,0.0,0.0,0.0,0.0,0.0,0.0,0.0,0.0,0.0,0.0,0.0,0.0,0.0,0.0,0.0,0.0,0.0,0.0,0.0,0.0,0.0,0.0,0.0,0.0,0.0,0.0,0.0,0.0,0.0,0.0,0.0,0.0,0.0,0.0,0.0,0.0,0.0,0.0,0.0,0.0,0.0,0.0,0.0,0.0,0.0,0.0,0.0,0.0,0.0,0.0,0.0,0.0,0.0,0.0,0.0,0.0,0.0,0.0,0.0,0.0,0.0,0.0,0.0,0.0,0.0,0.0,0.0,0.0,0.0,0.0,0.0,0.0,0.0,0.0,0.0,0.0,0.0,0.0,0.0,0.0,0.0,0.0,0.0,0.0,0.0,0.0,0.0,0.0,0.0,0.0,0.0,0.0,0.0,0.0,0.0,0.0,0.0,0.0,0.0,0.0,0.0,0.0,0.0,0.0,0.0,0.0,0.0,0.0,0.0,0.0,0.0,0.0,0.0,0.0,0.0,0.0,0.0,0.0,0.0,0.0,0.0,0.0,0.0,0.0,0.0,0.0,0.0,0.0,0.0,0.0,0.0,0.0,0.0,0.0,0.0,0.0,0.0,0.0,0.0,0.0,0.0,0.0,0.0,0.0,0.0,0.0,0.0,0.0,0.0,0.0,0.0,0.0,0.0,0.0,0.0,0.0,0.0,0.0,0.0,0.0,0.0,0.0,0.0,0.0,0.0,0.0,0.0,0.0,0.0,0.0,0.0,0.0,0.0,0.0,0.0,0.0,0.0,0.0,0.0,0.0,0.0,0.0,0.0,0.0,0.0,0.0,0.0,0.0,0.0,0.0,0.0,0.0,0.0,0.0,0.0,0.0,0.0,0.0,0.0,0.0,0.0,0.0,0.0,0.0,0.0,0.0,0.0,0.0,0.0,0.0,0.0,0.0,0.0,0.0,0.0,0.0,0.0,0.0,0.0,0.0,0.0,0.0,0.0,0.0,0.0,0.0,0.0,0.0,0.0,0.0,0.0,0.0,0.0,0.0,0.0,0.0,0.0,0.0,0.0,0.0,0.0,0.0,0.0,0.0,0.0,0.0,0.0,0.0,0.0,0.0,0.0,0.0,0.0,0.0,0.0,0.0,0.0,0.0,0.0,0.0,0.0,0.0,0.0,0.0,0.0,0.0,0.0,0.0,0.0,0.0,0.0,0.0,0.0,0.0,0.0,0.0,0.0,0.0,0.0,0.0,0.0,0.0,0.0,0.0,0.0,0.0,0.0,0.0,0.0,0.0,0.0,0.0,0.0,0.0,0.0,0.0,0.0,0.0,0.0,0.0,0.0,0.0,0.0,0.0,0.0,0.0,0.0,0.0,0.0,0.0,0.0,0.0,0.0,0.0,0.0,0.0,0.0,0.0,0.0,0.0,0.0,0.0,0.0,0.0,0.0,0.0,0.0,0.0,0.0,0.0,0.0,0.0,0.0,0.0,0.0,0.0,0.0,0.0,0.0,0.0,0.0,0.0,0.0,0.0,0.0,0.0,0.0,0.0,0.0,0.0,0.0,0.0,0.0,0.0,0.0,0.0,0.0,0.0,0.0,0.0,0.0,0.0,0.0,0.0,0.0,0.0,0.0,0.0,0.0,0.0,0.0,0.0,0.0,0.0,0.0,0.0,0.0,0.0,0.0,0.0,0.0,0.0,0.0,0.0,0.0,0.0,0.0,0.0,0.0,0.0,0.0,0.0,0.0,0.0,0.0,0.0,0.0,0.0,0.0,0.0,0.0,0.0,0.0,0.0,0.0,0.0,0.0,0.0,0.0,0.0,0.0,0.0,0.0,0.0,0.0,0.0,0.0,0.0,0.0,0.0,0.0,0.0,0.0,0.0,0.0,0.0,0.0,0.0,0.0,0.0,0.0,0.0,0.0,0.0,0.0,0.0,0.0,0.0,0.0,0.0,0.0,0.0,0.0,0.0,0.0,0.0,0.0,0.0,0.0,0.0,0.0,0.0,0.0,0.0,0.0,0.0,0.0,0.0,0.0,0.0,0.0,0.0,0.0,0.0,0.0,0.0,0.0,0.0,0.0,0.0,0.0,0.0,0.0,0.0,0.0,0.0,0.0,0.0,0.0,0.0,0.0,0.0,0.0,0.0,0.0,0.0,0.0,0.0,0.0,0.0,0.0,0.0,0.0,0.0,0.0,0.0,0.0,0.0,0.0,0.0,0.0,0.0,0.0,0.0,0.0,0.0,0.0,0.0,0.0,0.0,0.0,0.0,0.0,0.0,0.0,0.0,0.0,0.0,0.0,0.0,0.0,0.0,0.0,0.0,0.0,0.0,0.0,0.0,0.0,0.0,0.0,0.0,0.0,0.0,0.0,0.0,0.0,0.0,0.0,0.0,0.0,0.0,0.0,0.0,0.0,0.0,0.0,0.0,0.0,0.0,0.0,0.0,0.0,0.0,0.0,0.0,0.0,0.0,0.0,0.0,0.0,0.0,0.0,0.0,0.0,0.0,0.0,0.0,0.0,0.0,0.0,0.0,0.0,0.0,0.0,0.0,0.0,0.0,0.0,0.0,0.0,0.0,0.0,0.0,0.0,0.0,0.0,0.0,0.0,0.0,0.0,0.0,0.0,0.0,0.0,0.0,0.0,0.0,0.0,0.0,0.0,0.0,0.0,0.0,0.0,0.0,0.0,0.0,0.0,0.0,0.0,0.0,0.0,0.0,0.0,0.0,0.0,0.0,0.0,0.0,0.0,0.0,0.0,0.0,0.0,0.0,0.0,0.0,0.0,0.0,0.0,0.0,0.0,0.0,0.0,0.0,0.0,0.0,0.0,0.0,0.0,0.0,0.0,0.0,0.0,0.0,0.0,0.0,0.0,0.0,0.0,0.0,0.0,0.0,0.0,0.0,0.0,0.0,0.0,0.0,0.0,0.0,0.0,0.0,0.0,0.0,0.0,0.0,0.0,0.0,0.0,0.0,0.0,0.0,0.0,0.0,0.0,0.0,0.0,0.0,0.0,0.0,0.0,0.0,0.0,0.0,0.0,0.0,0.0,0.0,0.0,0.0,0.0,0.0,0.0,0.0,0.0,0.0,0.0,0.0,0.0,0.0,0.0,0.0,0.0,0.0,0.0,0.0,0.0,0.0,0.0,0.0,0.0,0.0,0.0,0.0,0.0,0.0,0.0,0.0,0.0,0.0,0.0,0.0,0.0,0.0,0.0,0.0,0.0,0.0,0.0,0.0,0.0,0.0,0.0,0.0,0.0,0.0,0.0,0.0,0.0,0.0,0.0,0.0,0.0,0.0,0.0,0.0,0.0,0.0,0.0,0.0,0.0,0.0,0.0,0.0,0.0,0.0,0.0,0.0,0.0,0.0,0.0,0.0,0.0,0.0,0.0,0.0,0.0,0.0,0.0,0.0,0.0,0.0,0.0,0.0,0.0,0.0,0.0,0.0,0.0,0.0,0.0,0.0,0.0,0.0,0.0,0.0,0.0,0.0,0.0,0.0,0.0,0.0,0.0,0.0,0.0,0.0,0.0,0.0,0.0,0.0,0.0,0.0,0.0,0.0,0.0,0.0,0.0,0.0,0.0,0.0,0.0,0.0,0.0,0.0,0.0,0.0,0.0,0.0,0.0,0.0,0.0,0.0,0.0,0.0,0.0,0.0,0.0,0.0,0.0,0.0,0.0,0.0,0.0,0.0,0.0,0.0,0.0,0.0,0.0,0.0,0.0,0.0,0.0,0.0,0.0,0.0,0.0,0.0,0.0,0.0,0.0,0.0,0.0,0.0,0.0,0.0,0.0,0.0,0.0,0.0,0.0,0.0,0.0,0.0,0.0,0.0,0.0,0.0,0.0,0.0,0.0,0.0,0.0,0.0,0.0,0.0,0.0,0.0,0.0,0.0,0.0,0.0,0.0,0.0,0.0,0.0,0.0,0.0,0.0,0.0,0.0,0.0,0.0,0.0,0.0,0.0,0.0,0.0,0.0,0.0,0.0,0.0,0.0,0.0,0.0,0.0,0.0,0.0,0.0,0.0,0.0,0.0,0.0,0.0,0.0,0.0,0.0,0.0,0.0,0.0,0.0,0.0,0.0,0.0,0.0,0.0,0.0,0.0,0.0,0.0,0.0,0.0,0.0,0.0,0.0,0.0,0.0,0.0,0.0,0.0,0.0,0.0,0.0,0.0,0.0,0.0,0.0,0.0,0.0,0.0,0.0,0.0,0.0,0.0,0.0,0.0,0.0,0.0,0.0,0.0,0.0,0.0,0.0,0.0,0.0,0.0,0.0,0.0,0.0,0.0,0.0,0.0,0.0,0.0,0.0,0.0,0.0,0.0,0.0,0.0,0.0,0.0,0.0,0.0,0.0,0.0,0.0,0.0,0.0,0.0,0.0,0.0,0.0,0.0,0.0,0.0,0.0,0.0,0.0,0.0,0.0,0.0,0.0,0.0,0.0,0.0,0.0,0.0,0.0,0.0,0.0,0.0,0.0,0.0,0.0,0.0,0.0,0.0,0.0,0.0,0.0,0.0,0.0,0.0,0.0,0.0,0.0,0.0,0.0,0.0,0.0,0.0,0.0,0.0,0.0,0.0,0.0,0.0,0.0,0.0,0.0,0.0,0.0,0.0,0.0,0.0,0.0,0.0,0.0,0.0,0.0,0.0,0.0,0.0,0.0,0.0,0.0,0.0,0.0,0.0,0.0,0.0,0.0,0.0,0.0,0.0,0.0,0.0,0.0,0.0,0.0,0.0,0.0,0.0,0.0,0.0,0.0,0.0,0.0,0.0,0.0,0.0,0.0,0.0,0.0,0.0,0.0,0.0,0.0,0.0,0.0,0.0,0.0,0.0,0.0,0.0,0.0,0.0,0.0,0.0,0.0,0.0,0.0,0.0,0.0,0.0,0.0,0.0,0.0,0.0,0.0,0.0,0.0,0.0,0.0,0.0,0.0,0.0,0.0,0.0,0.0,0.0,0.0,0.0,0.0,0.0,0.0,0.0,0.0,0.0,0.0,0.0,0.0,0.0,0.0,0.0,0.0,0.0,0.0,0.0,0.0,0.0,0.0,0.0,0.0,0.0,0.0,0.0,0.0,0.0,0.0,0.0,0.0,0.0,0.0,0.0,0.0,0.0,0.0,0.0,0.0,0.0,0.0,0.0,0.0,0.0,0.0,0.0,0.0,0.0,0.0,0.0,0.0,0.0,0.0,0.0,0.0,0.0,0.0,0.0,0.0,0.0,0.0,0.0,0.0,0.0,0.0,0.0,0.0,0.0,0.0,0.0,0.0,0.0,0.0,0.0,0.0,0.0,0.0,0.0,0.0,0.0,0.0,0.0,0.0,0.0,0.0,0.0,0.0,0.0,0.0,0.0,0.0,0.0,0.0,0.0,0.0,0.0,0.0,0.0,0.0,0.0,0.0,0.0,0.0,0.0,0.0,0.0,0.0,0.0,0.0,0.0,0.0,0.0,0.0,0.0,0.0,0.0,0.0,0.0,0.0,0.0,0.0,0.0,0.0,0.0,0.0,0.0,0.0,0.0,0.0,0.0,0.0,0.0,0.0,0.0,0.0,0.0,0.0,0.0,0.0,0.0,0.0,0.0,0.0,0.0,0.0,0.0,0.0,0.0,0.0,0.0,0.0,0.0,0.0,0.0,0.0,0.0,0.0,0.0,0.0,0.0,0.0,0.0,0.0,0.0,0.0,0.0,0.0,0.0,0.0,0.0,0.0,0.0,0.0,0.0,0.0,0.0,0.0,0.0,0.0,0.0,0.0,0.0,0.0,0.0,0.0,0.0,0.0,0.0,0.0,0.0,0.0,0.0,0.0,0.0,0.0,0.0,0.0,0.0,0.0,0.0,0.0,0.0,0.0,0.0,0.0,0.0,0.0,0.0,0.0,0.0,0.0,0.0,0.0,0.0,0.0,0.0,0.0,0.0,0.0,0.0,0.0,0.0,0.0,0.0,0.0,0.0,0.0,0.0,0.0,0.0,0.0,0.0,0.0,-5.0447,-5.0589,0.0,0.0,0.0,0.0,0.0,0.0,0.0,0.0,0.0,0.0,0.0,0.0,0.0,0.0,0.0,0.0,0.0,0.0,0.0,0.0,0.0,0.0,0.0,-2.4152,-2.4334,-2.4618,-2.4637,-2.4746,-2.4836,0.0,0.0,0.0,0.0,0.0,-2.6648,-2.7683,-2.8833,-3.01,-2.981,-2.9587,-2.9644,-3.0646,-3.1158,-3.129,0.0,0.0,0.0,0.0,0.0,0.0,0.0,0.0,0.0,0.0,0.0,0.0,0.0,0.0,0.0,0.0,0.0,0.0,0.0,0.0,0.0,0.0,0.0,0.0,0.0,0.0,0.0,0.0,0.0,0.0,0.0,0.0,0.0,0.0,0.0,0.0,0.0,0.0,0.0,0.0,0.0,0.0,0.0,0.0,0.0,0.0,0.0,0.0,0.0,0.0,0.0,0.0,0.0,0.0,0.0,0.0,0.0,0.0,0.0,0.0,0.0,0.0,0.0,0.0,0.0,0.0,0.0,0.0,0.0,0.0,-5.1948,-5.2161,0.0,0.0,0.0,0.0,0.0,0.0,0.0,0.0,0.0,0.0,0.0,0.0,0.0,0.0,0.0,0.0,0.0,0.0,0.0,0.0,0.0,-2.4251,-2.4251,-2.4316,-2.449,-2.5116,-2.5219,-2.5367,-2.5579,-2.5983,-2.5869,-2.5178,-2.5781,-2.6577,-2.7745,-2.8116,-2.9338,-3.146,-3.0382,-2.9752,-2.9565,-3.0827,-3.1201,-3.1098,-3.1715,0.0,0.0,0.0,0.0,0.0,0.0,0.0,0.0,0.0,0.0,0.0,0.0,0.0,0.0,0.0,0.0,0.0,0.0,0.0,0.0,0.0,0.0,0.0,0.0,0.0,0.0,0.0,0.0,0.0,0.0,0.0,0.0,0.0,0.0,0.0,0.0,0.0,0.0,0.0,0.0,0.0,0.0,0.0,0.0,0.0,0.0,0.0,0.0,0.0,0.0,0.0,0.0,0.0,0.0,0.0,0.0,0.0,0.0,0.0,0.0,0.0,0.0,0.0,-5.1052,-5.1592,-5.1983,-5.3243,-5.3914,-5.4135,-5.3592,-5.3893,-5.4782,-5.4873,0.0,0.0,0.0,0.0,0.0,0.0,0.0,0.0,0.0,0.0,0.0,0.0,0.0,0.0,0.0,0.0,0.0,0.0,0.0,-2.4251,-2.444,-2.4573,-2.4804,-2.5135,-2.5274,-2.5496,-2.5816,-2.605,-2.6125,-2.6011,-2.7462,-2.8253,-2.8202,-3.0248,-3.0954,-3.0337,-3.0231,-2.987,-2.937,-3.113,-3.2002,-3.2236,-3.2817,-3.308,-3.3068,0.0,0.0,0.0,0.0,0.0,0.0,0.0,0.0,0.0,0.0,0.0,0.0,0.0,0.0,0.0,0.0,0.0,0.0,0.0,0.0,0.0,0.0,0.0,0.0,0.0,0.0,0.0,0.0,0.0,0.0,0.0,0.0,0.0,0.0,0.0,0.0,0.0,0.0,0.0,0.0,0.0,-4.5069,-4.5572,0.0,0.0,0.0,0.0,0.0,0.0,0.0,0.0,0.0,0.0,0.0,0.0,0.0,-4.9546,-5.0111,-5.0517,-5.0911,-5.1422,-5.2654,-5.3291,-5.3374,-5.4248,-5.5275,-5.6245,-5.5852,0.0,-5.4635,-5.6122,0.0,0.0,0.0,0.0,0.0,0.0,0.0,0.0,0.0,0.0,0.0,0.0,0.0,0.0,0.0,0.0,0.0,0.0,0.0,0.0,0.0,-2.4767,-2.5061,-2.5796,-2.5906,-2.6123,-2.6532,-2.7559,-2.7875,-2.7592,-2.9005,-3.0022,-3.0241,-3.063,-3.0654,-3.0208,-3.0572,-3.0606,-3.0321,-3.1728,-3.2647,-3.3163,-3.3947,-3.4014,-3.3458,-3.3722,0.0,0.0,0.0,0.0,0.0,0.0,0.0,0.0,0.0,0.0,0.0,0.0,0.0,0.0,0.0,0.0,0.0,0.0,0.0,0.0,0.0,0.0,0.0,0.0,0.0,0.0,0.0,0.0,0.0,0.0,0.0,0.0,0.0,0.0,0.0,0.0,0.0,0.0,0.0,-4.4935,-4.5923,-4.6046,-4.6405,-4.6738,0.0,0.0,0.0,0.0,0.0,0.0,0.0,0.0,0.0,-4.9756,-5.0067,-5.048,-5.0964,-5.1462,-5.2023,-5.2744,-5.3581,-5.4245,-5.4683,-5.6024,-5.6889,-5.7463,-5.7941,-5.7977,-5.7716,-5.8351,-5.8499,-5.8349,0.0,0.0,0.0,0.0,-6.0861,-6.0993,0.0,0.0,0.0,0.0,0.0,0.0,0.0,0.0,0.0,0.0,0.0,0.0,-2.4831,-2.5061,-2.543,-2.6337,-2.6379,-2.6648,-2.7276,-2.8278,-2.8988,-2.8949,-3.0342,-3.1274,-3.1712,-3.0603,-3.0259,-3.0594,-3.1051,-3.1327,-3.1633,-3.2867,-3.3586,-3.4005,-3.492,-3.4881,-3.4137,-3.4416,-3.4527,-3.4549,0.0,0.0,0.0,0.0,0.0,0.0,0.0,0.0,0.0,0.0,0.0,0.0,0.0,0.0,0.0,0.0,0.0,0.0,0.0,0.0,0.0,0.0,0.0,0.0,0.0,0.0,0.0,0.0,0.0,0.0,0.0,0.0,0.0,0.0,0.0,0.0,0.0,-4.5853,-4.6512,-4.6722,-4.6997,-4.7286,0.0,0.0,0.0,0.0,0.0,0.0,-4.9774,-4.9774,-5.0005,-5.0477,-5.0893,-5.1485,-5.2264,-5.2625,-5.3299,-5.4291,-5.4846,-5.5484,-5.6164,-5.7641,-5.8368,-5.8512,-5.9468,-5.9988,-6.0102,-5.9969,-5.9942,-6.0107,-6.0526,-6.0931,-6.1254,-6.1557,-6.1934,-6.2366,0.0,0.0,0.0,0.0,0.0,0.0,0.0,0.0,0.0,0.0,0.0,-2.485,-2.5034,-2.5644,-2.6028,-2.6383,-2.655,-2.6772,-2.7394,-2.7413,-2.8242,-2.9755,-3.0906,-3.1531,-3.1611,-3.0472,-3.0483,-3.1542,-3.1564,-3.2083,-3.3101,-3.4421,-3.5114,-3.5126,-3.5416,-3.5584,-3.5534,-3.5833,-3.563,-3.5158,-3.5386,0.0,0.0,0.0,0.0,0.0,0.0,0.0,0.0,0.0,0.0,0.0,0.0,0.0,0.0,0.0,0.0,0.0,0.0,0.0,0.0,0.0,0.0,0.0,0.0,0.0,0.0,0.0,0.0,0.0,0.0,0.0,0.0,0.0,0.0,0.0,0.0,0.0,0.0,-4.7853,-4.8016,0.0,0.0,0.0,0.0,-4.993,-5.0045,-5.025,-5.0819,-5.0819,-5.1052,-5.15,-5.1551,-5.2432,-5.4173,-5.4173,-5.487,-5.6147,-5.6967,-5.7542,-5.7902,-5.8728,-5.9376,-5.9734,-5.9968,-6.0122,-6.0196,-6.0133,-6.0354,-6.0912,-6.2508,-6.2835,-6.2548,-6.3623,-6.3808,-6.3516,0.0,0.0,0.0,0.0,0.0,-2.4152,-2.4152,-2.4152,-2.4152,-2.4152,-2.4519,-2.4978,-2.5218,-2.5733,-2.6166,-2.6756,-2.6707,-2.6899,-2.7638,-2.8262,-2.9187,-3.0959,-3.137,-3.1268,-3.0546,-3.013,-3.0442,-3.1575,-3.1779,-3.2789,-3.4519,-3.5114,-3.5524,-3.5716,-3.5812,-3.5991,-3.6358,-3.6275,-3.6257,-3.6125,-3.6049,-3.5851,0.0,0.0,0.0,0.0,0.0,0.0,0.0,0.0,0.0,0.0,0.0,0.0,0.0,0.0,0.0,0.0,0.0,0.0,0.0,0.0,0.0,0.0,0.0,0.0,0.0,0.0,0.0,0.0,0.0,0.0,0.0,0.0,0.0,0.0,0.0,0.0,0.0,-4.848,-4.8793,0.0,-4.9118,-4.9462,-4.9797,-5.0045,-5.0436,-5.0838,-5.1331,-5.1331,-5.1569,-5.2036,-5.287,-5.3671,-5.4271,-5.5157,-5.6209,-5.7379,-5.766,-5.8295,-5.919,-5.9716,-6.0023,-6.0131,-6.0514,-6.0988,-6.1483,-6.1397,-6.162,-6.2068,-6.2964,-6.3262,-6.3249,-6.3664,-6.4135,-6.4566,0.0,0.0,0.0,-2.4053,-2.4152,-2.4152,-2.4152,-2.4152,-2.4207,-2.4345,-2.473,-2.5133,-2.5527,-2.5931,-2.6387,-2.6871,-2.6791,-2.7008,-2.7638,-2.8668,-2.9807,-3.0949,-3.1062,-3.0845,-3.0442,-3.0235,-3.0742,-3.2286,-3.2577,-3.3598,-3.532,-3.562,-3.5824,-3.6015,-3.6193,-3.6452,-3.6709,-3.6734,-3.6828,-3.679,-3.6606,-3.6533,-3.6444,0.0,0.0,0.0,0.0,0.0,0.0,0.0,0.0,0.0,0.0,0.0,0.0,0.0,0.0,0.0,0.0,0.0,0.0,0.0,0.0,0.0,0.0,0.0,0.0,0.0,0.0,0.0,0.0,0.0,0.0,0.0,0.0,0.0,0.0,-4.8015,-4.8589,-4.9023,-4.9385,-4.9639,-4.9639,-5.0062,-5.0363,-5.0363,-5.0857,-5.128,-5.1551,-5.1813,-5.2257,-5.2926,-5.3916,-5.4741,-5.5397,-5.6437,-5.7473,-5.8516,-5.8568,-5.911,-6.0011,-6.0274,-6.0602,-6.0968,-6.1251,-6.1882,-6.2692,-6.2914,-6.3171,-6.3434,-6.3695,-6.3936,-6.4135,-6.4444,-6.4995,-6.5609,0.0,-2.3329,-2.3538,-2.4053,-2.4152,-2.4152,-2.4152,-2.4152,-2.4308,-2.473,-2.5124,-2.5518,-2.5913,-2.6334,-2.6591,-2.6591,-2.689,-2.7098,-2.7431,-2.8668,-2.9597,-2.9817,-2.9922,-3.0442,-3.1472,-3.0639,-3.1338,-3.3586,-3.3784,-3.4507,-3.562,-3.5908,-3.6015,-3.6015,-3.6546,-3.6709,-3.6722,-3.7307,-3.7307,-3.7108,-3.7108,-3.6959,-3.6805,0.0,0.0,0.0,0.0,0.0,0.0,0.0,0.0,0.0,0.0,0.0,0.0,0.0,0.0,0.0,0.0,0.0,0.0,0.0,0.0,0.0,0.0,0.0,0.0,0.0,0.0,0.0,0.0,0.0,0.0,0.0,0.0,0.0,-4.8306,-4.8652,-4.9067,-4.9402,-4.9873,-5.0102,-5.0102,-5.062,-5.0927,-5.0927,-5.1414,-5.1697,-5.1687,-5.2317,-5.3175,-5.4332,-5.4562,-5.5643,-5.7595,-5.8033,-5.866,-5.9518,-5.9725,-6.0042,-6.043,-6.0468,-6.1096,-6.2201,-6.2163,-6.2712,-6.3685,-6.4474,-6.4921,-6.5039,-6.4909,-6.4967,-6.5254,-6.6088,-6.6493,-6.6633,-2.3845,-2.3945,-2.4044,-2.4152,-2.4152,-2.4152,-2.4152,-2.4152,-2.4308,-2.473,-2.5124,-2.5518,-2.5913,-2.6334,-2.68,-2.7116,-2.7107,-2.7314,-2.797,-2.8271,-2.8475,-2.8698,-2.9523,-2.9723,-2.9554,-2.9227,-3.0349,-3.2778,-3.2967,-3.408,-3.592,-3.6181,-3.6358,-3.6546,-3.6628,-3.6922,-3.7307,-3.7413,-3.7611,-3.7703,-3.7703,-3.7599,-3.7677,0.0,0.0,0.0,0.0,0.0,0.0,0.0,0.0,0.0,0.0,0.0,0.0,0.0,0.0,0.0,0.0,0.0,0.0,0.0,0.0,0.0,0.0,0.0,0.0,0.0,0.0,0.0,0.0,0.0,0.0,0.0,-4.9605,-4.9622,-4.9248,-4.9546,-4.993,-5.0453,-5.0582,-5.0692,-5.0692,-5.114,-5.1465,-5.1465,-5.2029,-5.2771,-5.3701,-5.3952,-5.4626,-5.5914,-5.6569,-5.7304,-5.8102,-5.881,-5.9474,-6.016,-6.0207,-6.0444,-6.0846,-6.1492,-6.1918,-6.223,-6.3011,-6.3824,-6.4653,-6.4964,-6.5543,-6.6212,-6.6027,-6.6062,-6.6211,-6.647,-6.6661,-6.6824,-2.4152,-2.4152,-2.4152,-2.4152,-2.4152,-2.4152,-2.4152,-2.4152,-2.4363,-2.4959,-2.5225,-2.5592,-2.616,-2.6544,-2.6899,-2.7215,-2.7314,-2.7638,-2.8067,-2.8067,-2.8388,-2.89,-2.9217,-2.9428,-2.9438,-3.0047,-3.1359,-3.3277,-3.3958,-3.4969,-3.6193,-3.6452,-3.6628,-3.6709,-3.6909,-3.7214,-3.7505,-3.7611,-3.7795,-3.8057,-3.8057,-3.8057,-3.8109,-3.9193,-4.0195,-4.121,-4.2391,-4.3165,-4.3564,-4.3776,0.0,0.0,0.0,0.0,0.0,0.0,0.0,0.0,0.0,0.0,0.0,0.0,0.0,0.0,0.0,0.0,0.0,0.0,0.0,0.0,0.0,0.0,0.0,0.0,-5.038,-5.0363,-5.0176,-5.0307,-5.0602,-5.1034,-5.0998,-5.1017,-5.1365,-5.1597,-5.179,-5.2076,-5.2959,-5.381,-5.4533,-5.5204,-5.6031,-5.7061,-5.7771,-5.8361,-5.8835,-5.9583,-6.0142,-6.0531,-6.0945,-6.1293,-6.1579,-6.2508,-6.3087,-6.3413,-6.4077,-6.4869,-6.5674,-6.574,-6.6142,-6.6702,0.0,0.0,0.0,0.0,-6.6809,-6.6898,-2.4152,-2.4152,-2.4152,-2.4152,-2.4152,-2.4251,-2.4251,-2.4288,-2.4601,-2.5374,-2.5512,-2.5835,-2.6608,-2.689,-2.7098,-2.7098,-2.7638,-2.796,-2.796,-2.8184,-2.8698,-2.9723,-2.9132,-2.9237,-3.0245,-3.1858,-3.3166,-3.4288,-3.5571,-3.6263,-3.6452,-3.6628,-3.6722,-3.6815,-3.7307,-3.7505,-3.7598,-3.7795,-3.8057,-3.8213,-3.8213,-3.8213,-3.8381,-3.9428,-4.0446,-4.1463,-4.2725,-4.363,-4.4419,-4.4572,0.0,0.0,0.0,0.0,0.0,0.0,0.0,0.0,0.0,0.0,0.0,0.0,0.0,0.0,0.0,0.0,0.0,0.0,0.0,0.0,0.0,0.0,0.0,0.0,-5.0945,-5.0945,-5.0891,-5.0945,-5.1088,-5.1298,-5.1123,-5.1331,-5.2018,-5.2,-5.2141,-5.2777,-5.4068,-5.4846,-5.501,-5.6332,0.0,0.0,0.0,-5.9064,-5.9715,-6.03,-6.0695,-6.0904,-6.1805,-6.2294,-6.249,-6.3495,-6.4325,-6.502,-6.5257,-6.5843,-6.6606,-6.6631,-6.6667,-6.6712,-6.6659,-6.6731,-6.6907,-6.6893,-6.6893,-6.6889,-2.4152,-2.4152,-2.4152,-2.4152,-2.4152,-2.4242,-2.444,-2.4718,-2.5219,-2.5618,-2.6181,-2.668,-2.6943,-2.7215,-2.7422,-2.7745,-2.7853,-2.796,-2.8184,-2.8291,-2.8504,-2.893,-2.8727,-2.9046,-2.9754,-3.0877,-3.2185,-3.34,-3.4581,-3.5655,-3.6628,-3.6722,-3.6922,-3.7307,-3.7413,-3.7677,-3.8031,-3.8122,-3.8317,-3.8512,-3.8512,-3.8512,-3.8679,-4.036,-4.1197,-4.1767,-4.3457,-4.4343,-4.4799,-4.4799,-4.5114,-4.5352,-4.5352,-4.5589,0.0,0.0,0.0,0.0,0.0,0.0,0.0,0.0,0.0,0.0,0.0,0.0,0.0,0.0,0.0,0.0,0.0,0.0,0.0,-5.0891,-5.1088,-5.1141,-5.0945,-5.1298,-5.1487,-5.135,-5.1651,-5.194,-5.2065,-5.2754,-5.3451,-5.4238,-5.4988,-5.6012,-5.7323,-5.7978,-5.8632,-5.9393,-5.9726,-6.0092,-6.0476,-6.0613,-6.1161,-6.2065,-6.2278,0.0,-6.3478,-6.4425,-6.4927,-6.5121,-6.6011,-6.6516,-6.6688,-6.6791,-6.6856,-6.6867,-6.6843,-6.6863,-6.6893,-6.6894,-6.6837,-6.6733,-2.4152,-2.4152,-2.4251,-2.4341,-2.4341,-2.4514,-2.5017,-2.5224,-2.559,-2.6219,-2.6588,-2.6871,-2.7168,-2.7422,-2.7745,-2.7853,-2.8067,-2.8281,-2.8717,-2.8611,-2.8621,-2.893,-2.9036,-2.9554,-3.037,-3.1586,-3.2789,-3.3993,-3.5162,-3.6185,-3.7153,-3.7437,-3.7719,-3.7932,-3.8212,-3.8227,-3.82,-3.8304,-3.8575,-3.8756,-3.8756,-3.8845,-3.9024,-3.9766,-4.0518,-4.1267,-4.2629,-4.36,-4.4312,-4.4783,-4.5188,-4.5515,-4.5515,-4.5662,-4.5807,0.0,0.0,0.0,0.0,0.0,0.0,0.0,0.0,0.0,0.0,0.0,0.0,0.0,0.0,-4.9873,-5.0436,0.0,-5.0945,-5.1088,-5.1193,-5.1298,-5.1298,-5.164,-5.179,-5.1538,-5.1831,-5.2299,-5.2704,-5.358,-5.4405,-5.5081,-5.6218,-5.7225,-5.807,-5.8797,-5.9374,-5.9791,-6.0236,-6.0545,-6.0704,-6.126,-6.1851,-6.2414,-6.3323,-6.398,-6.4425,-6.5431,-6.5895,-6.5935,-6.6549,-6.679,-6.6819,-6.687,-6.6854,-6.68,-6.6806,-6.6798,-6.679,-6.679,-6.673,-6.6648,-2.4251,-2.4251,-2.435,-2.444,-2.4529,-2.4876,-2.56,-2.5733,-2.6056,-2.6817,-2.7103,-2.7275,-2.7501,-2.7892,-2.8048,-2.8048,-2.8242,-2.8611,-2.9026,-2.8834,-2.8834,-2.9132,-2.9448,-3.0068,-3.0991,-3.2398,-3.3697,-3.4581,-3.6036,-3.6963,-3.7623,-3.799,-3.8272,-3.8366,-3.8753,-3.8662,-3.8381,-3.8589,-3.8756,-3.8997,-3.8997,-3.91,-3.9305,-3.91,-3.9766,-4.1029,-4.2126,-4.3111,-4.3989,-4.4783,-4.5278,-4.5589,-4.5589,-4.5719,-4.592,-4.623,-4.6426,0.0,0.0,0.0,0.0,0.0,0.0,0.0,0.0,0.0,-4.9178,-4.9342,-4.9698,-5.0045,-5.0289,-5.0675,-5.1052,-5.1333,-5.1436,-5.1487,-5.169,-5.2036,-5.2234,-5.2135,-5.2401,-5.2915,-5.3687,-5.4608,-5.5379,-5.6045,-5.7356,-5.8182,-5.8333,-5.9318,-5.9868,-5.9868,-6.047,-6.085,-6.1023,-6.1949,-6.2588,-6.2936,-6.4387,-6.5219,-6.541,-6.6303,-6.6688,-6.6709,-6.6837,-6.6894,-6.6894,-6.6862,-6.6799,-6.6688,-6.6688,-6.665,-6.663,-6.6669,-6.6622,-6.6549,-2.444,-2.444,-2.444,-2.4529,-2.4735,-2.5074,-2.581,-2.6285,-2.6689,-2.7055,-2.7882,-2.8455,-2.8174,-2.8371,-2.8455,-2.8455,-2.8605,-2.8834,-2.9132,-2.8834,-2.894,-2.9554,-2.9554,-2.9774,-3.0088,-3.2196,-3.3388,-3.3749,-3.5726,-3.6947,-3.7503,-3.7596,-3.786,-3.8214,-3.8305,-3.8525,-3.8819,-3.8819,-3.9011,-3.9292,-3.9292,-3.9292,-3.9305,-3.9292,-4.0301,-4.2058,-4.3912,-4.4799,-4.5055,-4.5368,-4.5589,-4.5735,-4.5735,-4.5992,-4.623,-4.6301,-4.6775,-4.727,-4.7337,-4.7638,-4.7935,-4.8001,-4.8066,-4.8066,0.0,0.0,-4.842,-4.9239,-4.9462,-4.9815,-5.0946,-5.1228,-5.1333,-5.1589,-5.184,-5.1938,-5.174,-5.2397,-5.3061,-5.3507,-5.4074,-5.4574,-5.4967,-5.6014,-5.6965,-5.7769,-5.7995,-5.8427,-5.914,-5.9792,-6.0161,-6.0161,-6.0734,-6.1428,-6.2201,-6.2337,-6.3207,-6.4793,-6.4986,-6.5558,-6.6435,-6.6627,-6.6688,-6.6709,-6.6837,-6.6894,-6.6893,-6.6763,-6.6709,-6.6688,-6.663,-6.6533,-6.6437,-6.6553,-6.6535,-6.6419,-2.444,-2.4637,-2.4735,-2.4932,-2.5039,-2.5455,-2.6439,-2.6691,-2.705,-2.7718,-2.8184,-2.8514,-2.8514,-2.877,-2.8965,-2.9069,-2.9031,-2.9142,-2.9564,-2.9353,-2.9459,-2.9774,-2.9879,-3.0287,-3.1105,-3.2689,-3.3859,-3.4763,-3.6427,-3.7474,-3.7997,-3.8171,-3.8357,-3.8741,-3.8806,-3.8868,-3.8908,-3.91,-3.9203,-3.9305,-3.9305,-3.9305,-3.9394,-4.0128,-4.0972,-4.1713,-4.2906,-4.3633,0.0,-4.5188,-4.5662,-4.5807,-4.6064,-4.6175,-4.6356,-4.6775,-4.7134,-4.7471,-4.7704,-4.7853,-4.8001,0.0,-4.8001,-4.8001,-4.8001,-4.8001,-4.8115,-4.853,-4.9144,-4.978,-5.031,-5.1017,-5.164,-5.1889,-5.2036,-5.218,-5.2444,-5.3162,-5.3934,-5.4543,-5.5658,-5.6267,-5.5938,-5.6912,-5.7751,-5.8089,-5.8539,-5.9043,-5.9556,-5.9985,-6.03,-6.0476,-6.1383,-6.2027,-6.2394,-6.3439,-6.4348,-6.5102,-6.5721,-6.6244,-6.6652,-6.6769,-6.6817,-6.6822,-6.6778,-6.6774,-6.6793,-6.6678,-6.6603,-6.6514,-6.6475,-6.6398,-6.6301,-6.6417,-6.6398,-6.6282,-2.4637,-2.4833,-2.5128,-2.5333,-2.543,-2.572,-2.6885,-2.7012,-2.7324,-2.8184,-2.8398,-2.8465,-2.878,-2.9071,-2.9398,-2.9485,-2.9377,-2.9448,-2.9994,-2.9774,-2.9774,-2.9994,-3.0099,-3.0599,-3.1516,-3.2678,-3.397,-3.5259,-3.6427,-3.7513,-3.8314,-3.8475,-3.8661,-3.8965,-3.9201,-3.913,-3.9011,-3.9203,-3.9305,-3.9305,-3.9305,-3.9394,-3.9557,-4.056,-4.1057,-4.1478,-4.2504,-4.3145,-4.3804,-4.5231,-4.5848,-4.5992,-4.6372,-4.6512,-4.6705,-4.727,-4.7488,-4.7638,-4.7935,-4.8001,0.0,-4.8001,-4.8001,-4.8066,-4.8001,-4.8001,-4.8131,-4.8261,-4.9161,-4.9936,-5.0163,-5.1087,-5.1889,-5.215,-5.2455,-5.2816,-5.3284,-5.4161,-5.5046,-5.5787,-5.6965,-5.7621,-5.7229,-5.796,-5.8445,-5.8445,-5.9062,-5.954,-5.9791,-6.0132,-6.0565,-6.105,-6.1927,-6.2627,-6.311,-6.4445,-6.5238,-6.5521,-6.6322,-6.6727,-6.6767,-6.6863,-6.6894,-6.6894,-6.6767,-6.6688,-6.669,-6.6601,-6.6497,-6.6398,-6.6359,-6.6282,-6.6205,-6.6301,-6.6282,-6.6205,-2.5137,-2.5235,-2.5333,-2.5635,-2.5645,-2.6025,-2.6885,-2.7012,-2.7324,-2.8184,-2.8514,-2.878,-2.8879,-2.9528,-2.9808,-2.9363,-2.9517,-2.9669,-2.9994,-2.9774,-2.9774,-2.9994,-3.0297,-3.0391,-3.0495,-3.1699,-3.3089,-3.435,-3.5426,-3.6628,-3.7926,-3.8161,-3.833,-3.8629,-3.8859,-3.9024,-3.9305,-3.9305,-3.9305,-3.9305,-3.9305,-3.9557,-3.9996,-3.9996,-4.0602,-4.1633,-4.3771,-4.4572,-4.4708,-4.5857,-4.6285,-4.6356,-4.6738,-4.7082,-4.7337,-4.7404,-4.7704,-4.8001,-4.8001,-4.8115,-4.8163,-4.8001,-4.8115,-4.8163,-4.8001,-4.8115,-4.8356,-4.8877,-4.9555,-5.0328,-5.1052,-5.1654,-5.2198,-5.2452,-5.3435,-5.4133,-5.4133,-5.541,-5.6627,-5.7409,-5.7866,-5.8371,-5.9159,-5.9253,-5.9253,-5.9253,-5.9609,-5.9791,-5.9791,-6.0365,-6.1089,-6.1916,-6.2236,-6.3207,-6.4889,-6.5025,-6.5594,-6.6565,-6.6644,-6.6769,-6.6894,-6.6894,-6.6894,-6.6894,-6.6767,-6.6688,-6.6689,-6.6496,-6.6399,-6.6379,-6.6263,-6.6205,-6.6205,-6.6205,-6.6205,-6.6205,-2.5235,-2.5333,-2.5333,-2.5635,-2.5742,-2.6025,-2.6885,-2.7012,-2.7217,-2.7803,-2.8539,0.0,0.0,0.0,0.0,0.0,-2.9797,-2.9889,-2.9994,-2.9889,-2.9889,-2.9994,-3.0297,-3.0505,-3.062,-3.2015,-3.3001,-3.3586,-3.5343,-3.6508,-3.7083,-3.7835,-3.8381,-3.8832,-3.8908,-3.9189,-3.9733,-3.9733,-3.9908,-4.0257,-4.0257,-4.0343,-4.053,-4.0787,-4.1128,-4.1717,0.0,-4.4495,-4.4721,-4.5913,-4.6512,-4.6738,-4.715,-4.7286,-4.7471,-4.7704,-4.7919,-4.8001,-4.8001,-4.8115,-4.8163,-4.8066,-4.8179,-4.8356,-4.8163,-4.8292,-4.853,-4.9135,-4.9855,-5.057,-5.1139,-5.1884,-5.2568,-5.3204,-5.3606,-5.421,-5.519,-5.6201,-5.7119,-5.7866,-5.8484,-5.9009,-5.9271,-5.929,-5.9381,-5.9609,-5.9744,-5.9962,-6.0391,-6.1127,-6.1774,-6.2236,-6.3457,-6.4425,-6.5044,-6.574,-6.6283,-6.6661,-6.677,-6.6863,-6.6894,-6.6819,-6.6769,-6.6756,-6.6591,-6.6495,-6.6475,-6.6321,-6.6263,-6.6263,-6.6224,-6.6205,-6.6205,-6.6205,-6.6205,-6.6205,0.0,-2.544,-2.5538,-2.5645,-2.5742,0.0,0.0,0.0,0.0,0.0,0.0,0.0,0.0,0.0,0.0,0.0,0.0,-3.0193,-3.0308,-3.0308,-3.0505,-3.0888,-3.1094,-3.1505,-3.2004,-3.2801,-3.3586,-3.4447,-3.563,-3.659,-3.7428,-3.8096,-3.8639,-3.8908,-3.9176,-3.9543,-3.9996,-4.017,-4.043,-4.0702,-4.0702,-4.0787,-4.0958,-4.1311,-4.1564,0.0,-4.3491,-4.4174,-4.4631,-4.6182,-4.686,-4.715,-4.7488,-4.7621,-4.7638,-4.7919,-4.8001,-4.8001,-4.8049,-4.8179,-4.8292,-4.8179,-4.8373,-4.8564,-4.8356,-4.8483,-4.8736,-4.909,-4.9896,-5.0785,-5.1423,-5.2279,-5.3186,-5.4001,-5.4488,-5.5094,-5.6208,-5.7117,-5.7884,-5.8447,-5.899,-5.929,-5.929,-5.9417,-5.9575,-5.9791,-5.9992,-6.0444,-6.1123,-6.1797,-6.2504,-6.3304,-6.4445,-6.5199,-6.5547,-6.6263,-6.6687,-6.6763,-6.6867,-6.6865,-6.6822,-6.6733,-6.6688,-6.665,-6.6475,-6.6398,-6.6379,-6.6263,-6.6205,-6.6205,-6.6205,-6.6205,-6.6205,-6.6205,-6.6205,-6.6205,0.0,0.0,-2.5801,0.0,0.0,0.0,0.0,0.0,0.0,0.0,0.0,0.0,0.0,0.0,0.0,0.0,0.0,0.0,-3.0827,-3.0838,-3.1311,-3.2264,-3.2689,-3.3277,-3.4252,-3.4178,-3.4945,-3.6671,-3.62,-3.6871,-3.8589,-3.8832,-3.8997,-3.8997,-3.9719,-4.0083,-4.0083,-4.053,-4.0787,-4.0787,-4.0787,-4.1043,-4.148,-4.148,-4.1897,-4.2474,-4.314,-4.3741,-4.451,-4.662,-4.7337,-4.7404,-4.7853,0.0,0.0,-4.8001,-4.8001,-4.8001,-4.8179,-4.8356,-4.8483,-4.8483,-4.8627,-4.8769,-4.8547,-4.869,-4.8832,-4.8894,-4.9873,-5.1032,0.0,0.0,-5.4019,-5.4834,-5.5877,-5.6722,-5.7094,-5.8099,-5.8908,-5.9253,-5.929,-5.9309,-5.9327,-5.9643,-5.9823,-5.9855,-6.0391,-6.1089,-6.1978,-6.2294,-6.3245,-6.4948,-6.5102,-6.5566,-6.6398,-6.6613,-6.6776,-6.6894,-6.6894,-6.6814,-6.6688,-6.6688,-6.665,-6.6572,-6.6437,-6.6379,-6.6379,-6.6243,-6.6205,-6.6205,-6.6205,-6.6205,-6.6205,-6.6205,-6.6205,-6.6205,0.0,0.0,0.0,0.0,0.0,0.0,0.0,0.0,0.0,0.0,0.0,0.0,0.0,0.0,0.0,0.0,0.0,0.0,-3.0838,-3.0838,-3.1127,-3.1812,-3.2566,-3.3342,-3.3958,-3.4727,-3.5294,-3.5784,-3.6458,-3.7204,-3.8198,-3.9046,-3.9692,-4.0257,-4.043,-4.0702,-4.1043,-4.1142,-4.1396,-4.1745,-4.1897,-4.2063,-4.2146,-4.2295,-4.2444,-4.2769,-4.3678,-4.4066,-4.4358,-4.5316,0.0,0.0,0.0,-4.8001,-4.8001,0.0,0.0,-4.8066,-4.8356,-4.8483,-4.8483,-4.8483,-4.8753,-4.8894,-4.8769,-4.8832,-4.9212,-5.005,-5.0934,-5.1953,-5.3032,-5.3971,-5.4852,-5.5595,-5.6204,-5.6923,-5.7869,-5.8452,0.0,-5.9253,0.0,-5.94,-5.9643,-5.9943,-6.0189,-6.0444,-6.0613,-6.118,-6.2237,-6.2994,-6.3884,-6.5025,-6.5721,-6.6243,-6.6611,-6.677,-6.6875,-6.6894,-6.6809,-6.6739,-6.6688,-6.6533,-6.6456,-6.6437,-6.6301,-6.6243,-6.6243,-6.6205,-6.6205,-6.6205,-6.6205,-6.6205,-6.6205,-6.6205,-6.6205,-6.6205,0.0,0.0,0.0,0.0,0.0,0.0,0.0,0.0,0.0,0.0,0.0,0.0,0.0,0.0,0.0,0.0,0.0,0.0,0.0,-3.1322,-3.1823,-3.2611,-3.3749,-3.4727,-3.5439,-3.6175,-3.6633,-3.6993,-3.7573,-3.8225,-3.893,-3.9678,-4.0329,-4.0702,-4.0958,-4.1142,-4.1396,-4.1662,-4.1912,0.0,0.0,-4.2474,-4.2541,-4.3061,-4.3061,-4.2981,-4.4266,-4.4495,0.0,0.0,0.0,-4.6464,-4.7202,-4.7471,-4.7555,-4.8033,0.0,-4.8179,-4.85,-4.8627,-4.8627,-4.8673,-4.8877,-4.9001,-4.8894,-4.9168,-4.97,-5.0672,-5.163,-5.2714,-5.4083,-5.4923,-5.5631,0.0,0.0,0.0,-5.8201,-5.8582,-5.8908,0.0,-5.929,0.0,-5.9777,-6.0044,-6.0506,-6.1219,-6.1373,-6.1888,-6.2917,-6.3806,-6.4715,-6.5644,-6.6224,-6.6607,-6.6786,-6.6852,-6.6862,-6.6809,-6.6736,-6.665,-6.6553,-6.6437,-6.6359,-6.6301,-6.6224,-6.6205,-6.6205,-6.6205,-6.6205,-6.6205,-6.6205,-6.6205,-6.6205,-6.6205,-6.6205,-6.6205,0.0,0.0,0.0,0.0,0.0,0.0,0.0,0.0,0.0,0.0,-2.9776,-2.973,-2.973,-2.9611,0.0,0.0,0.0,0.0,0.0,0.0,-3.2812,-3.3796,-3.5246,-3.6414,-3.74,-3.7835,-3.8355,-3.9087,-3.9087,-3.9455,-4.017,-4.0616,-4.0873,-4.0873,-4.1311,-4.148,-4.1564,-4.1995,-4.2242,-4.2474,-4.2474,-4.2622,-4.2835,0.0,-4.3585,-4.3364,-4.484,0.0,0.0,0.0,-4.5551,-4.5697,-4.6534,-4.6811,-4.6965,-4.7951,-4.8227,-4.8292,-4.8707,-4.8832,-4.8832,-4.8956,-4.9001,-4.9001,-4.9001,-4.9522,-5.0276,-5.1049,-5.2249,-5.358,-5.5043,-5.5746,-5.6373,-5.708,0.0,-5.7978,-5.8257,-5.8624,-5.8947,-5.9253,-5.9327,-5.947,-5.9823,-6.0217,-6.0904,-6.1959,-6.2488,-6.3091,-6.3845,-6.4657,-6.5508,-6.6398,-6.6631,-6.6793,-6.6894,-6.6889,-6.6817,-6.6688,-6.6669,-6.6553,-6.6398,-6.6379,-6.6301,-6.6205,-6.6205,-6.6205,-6.6205,-6.6205,-6.6205,-6.6205,-6.6205,-6.6205,-6.6205,-6.6205,-6.6205,-6.6205,0.0,0.0,0.0,0.0,0.0,0.0,0.0,0.0,0.0,0.0,-2.9772,-2.973,0.0,0.0,0.0,0.0,0.0,0.0,0.0,0.0,0.0,-3.3335,-3.5234,-3.6577,-3.7176,-3.8368,-3.9292,-3.9821,-3.9821,-4.0257,-4.1142,-4.1227,-4.148,-4.1829,-4.1926,-4.2078,-4.2228,-4.231,-4.2459,-4.2688,-4.285,-4.2915,-4.2996,-4.3314,0.0,0.0,0.0,0.0,0.0,0.0,-4.4737,-4.4946,-4.6394,-4.6811,-4.7017,-4.8129,-4.8356,-4.8292,-4.8815,-4.8894,-4.8832,-4.8956,-4.9001,-4.9001,-4.9001,-4.9992,0.0,0.0,-5.3352,-5.5023,-5.5721,-5.6486,-5.7043,-5.717,-5.7755,-5.8213,-5.8301,-5.8847,-5.9215,0.0,-5.954,-5.9804,-6.0103,-6.1076,-6.1867,-6.2296,-6.3767,-6.4696,-6.4851,-6.5006,-6.5566,-6.6611,-6.68,-6.6887,-6.6894,-6.6797,-6.6725,-6.6688,-6.6514,-6.6417,-6.6398,-6.6282,-6.6224,-6.6205,-6.6205,-6.6205,-6.6205,-6.6205,-6.6205,-6.6205,-6.6205,-6.6205,-6.6205,-6.6205,-6.6205,-6.6184,0.0,0.0,0.0,0.0,0.0,0.0,-2.8214,-2.8828,-2.9415,-2.9656,-2.9912,-3.003,-2.9995,-2.9516,-2.9458,0.0,0.0,0.0,0.0,0.0,0.0,0.0,0.0,0.0,-3.7638,-3.9011,-3.9733,-3.9996,0.0,-4.0958,-4.1396,-4.1662,-4.1926,-4.2092,-4.2092,-4.2242,-4.2392,-4.2392,-4.2541,-4.2835,-4.2996,-4.3076,-4.3235,0.0,0.0,0.0,0.0,0.0,0.0,0.0,-4.5593,-4.5374,-4.604,-4.6588,-4.7255,-4.8194,-4.85,-4.8564,-4.894,-4.894,-4.8894,-4.9001,-4.9289,-4.956,-4.956,0.0,0.0,0.0,-5.4456,-5.58,-5.6486,-5.6935,0.0,-5.7188,-5.7802,-5.8301,-5.8301,-5.8887,-5.9364,-5.954,-5.9711,-6.0163,-6.1057,-6.1651,-6.2513,-6.3709,-6.4599,-6.5102,-6.5102,-6.5624,-6.6215,-6.68,-6.6875,-6.6875,-6.6799,-6.6739,-6.665,-6.6533,-6.6437,-6.6359,-6.6282,-6.6224,-6.6205,-6.6205,-6.6205,-6.6205,-6.6205,-6.6205,-6.6205,-6.6205,-6.6205,-6.6144,-6.6039,-6.6039,-6.5971,-6.5876,0.0,0.0,0.0,0.0,0.0,0.0,-2.7959,-2.8701,-2.9363,-2.9838,-3.0407,-3.0535,-3.0079,-2.9434,-2.9206,0.0,0.0,0.0,0.0,0.0,0.0,0.0,0.0,0.0,0.0,0.0,0.0,-4.0257,-4.1043,0.0,0.0,0.0,0.0,0.0,-4.2175,-4.2242,-4.2474,-4.2541,-4.2769,0.0,0.0,-4.3155,0.0,0.0,0.0,0.0,0.0,0.0,0.0,0.0,-4.6811,-4.6432,-4.6095,-4.6625,-4.744,-4.8339,-4.8707,-4.8832,-4.894,-4.9001,-4.9035,-4.9204,-4.9661,-5.0135,-5.0287,-5.1864,0.0,-5.4068,-5.5276,-5.6446,-5.708,0.0,-5.7257,0.0,-5.7895,-5.8319,-5.8388,-5.8926,-5.9417,0.0,-6.0007,0.0,-6.1868,-6.2386,-6.3329,-6.4986,-6.5296,-6.5431,-6.5431,-6.6278,-6.6777,-6.6894,-6.6862,-6.681,-6.6709,-6.665,-6.6553,-6.6398,-6.6359,-6.6301,-6.6205,-6.6205,-6.6205,-6.6205,-6.6205,-6.6205,-6.6205,-6.6144,-6.6123,-6.6123,-6.6102,-6.5971,-6.5851,-6.5851,-6.575,-6.5589,0.0,0.0,0.0,0.0,0.0,0.0,-2.825,-2.9093,-2.9859,-3.0342,-3.1119,-3.1426,-3.0849,-3.0398,-2.9907,0.0,0.0,0.0,0.0,0.0,0.0,0.0,0.0,0.0,0.0,0.0,0.0,-4.1311,-4.1396,0.0,0.0,0.0,0.0,0.0,0.0,-4.2459,-4.2688,-4.2835,0.0,0.0,0.0,0.0,0.0,0.0,0.0,0.0,0.0,0.0,0.0,0.0,0.0,-4.8113,-4.7389,-4.7223,-4.7506,-4.8483,0.0,0.0,-4.894,-4.9001,-4.9171,-4.9813,-5.0033,-5.027,-5.0963,0.0,-5.4103,-5.4173,-5.5723,-5.7098,-5.7188,-5.7188,-5.7289,-5.7697,-5.8051,-5.8388,-5.8706,-5.9082,-5.9417,-5.9758,0.0,0.0,-6.195,-6.3701,-6.4889,-6.5083,-6.5992,-6.6533,-6.6533,-6.6759,-6.6892,-6.6894,-6.6781,-6.6709,-6.6709,-6.6514,-6.6417,-6.6398,-6.6282,-6.6205,-6.6205,-6.6205,-6.6205,-6.6205,-6.6205,-6.6205,-6.6184,-6.5994,-6.5924,-6.5924,-6.5724,-6.5644,-6.5616,-6.5616,-6.5616,-6.5561,0.0,0.0,0.0,0.0,0.0,0.0,-2.8529,-2.957,-3.0439,-3.0932,-3.1961,-3.2457,-3.1957,-3.1731,-3.11,-3.0011,-3.0686,0.0,0.0,0.0,0.0,0.0,0.0,0.0,0.0,0.0,-4.1043,-4.1396,-4.1662,0.0,0.0,0.0,0.0,0.0,0.0,-4.2688,-4.2915,-4.2996,0.0,0.0,0.0,0.0,0.0,0.0,0.0,0.0,0.0,0.0,-4.8098,0.0,0.0,0.0,-4.8322,-4.8242,0.0,0.0,-4.8832,-4.9041,-4.9543,-4.9661,-4.983,-5.0591,-5.1099,-5.1617,-5.2289,0.0,-5.5027,-5.537,-5.6401,-5.7188,-5.7188,-5.7188,-5.7338,-5.7745,-5.8097,0.0,-5.8747,-5.9082,-5.9694,-6.0708,-6.1229,-6.2092,-6.3659,-6.4598,-6.5354,-6.5992,-6.6534,-6.6833,-6.6817,-6.6862,-6.6852,-6.6781,-6.6724,-6.663,-6.6514,-6.6437,-6.6359,-6.6282,-6.6224,-6.6205,-6.6205,-6.6205,-6.6123,-6.6016,-6.6016,-6.5947,-6.5832,-6.575,-6.5724,-6.5724,-6.5644,-6.5485,-6.5367,-6.5367,-6.5295,-6.5155,0.0,0.0,0.0,0.0,0.0,-2.8346,-2.8913,-2.9836,-3.076,-3.1493,-3.2453,-3.2915,-3.2707,-3.257,-3.2064,-3.0971,-3.1184,0.0,0.0,0.0,0.0,0.0,0.0,0.0,0.0,0.0,-4.148,-4.1578,-4.1995,-4.2242,0.0,0.0,-4.2541,-4.2688,0.0,0.0,0.0,0.0,0.0,0.0,0.0,0.0,0.0,0.0,0.0,0.0,0.0,0.0,0.0,0.0,0.0,0.0,0.0,0.0,0.0,0.0,-4.9108,-4.9441,-4.9949,-5.0253,-5.0591,-5.1352,-5.2041,-5.2789,-5.3501,-5.4685,-5.5791,-5.6201,-5.6758,-5.7188,-5.7188,-5.7307,-5.7486,-5.7886,-5.8213,-5.854,-5.8908,-5.9478,-6.0244,-6.1363,0.0,-6.3092,-6.4869,-6.5354,-6.5914,-6.6694,-6.6844,-6.6884,-6.6829,-6.6837,-6.6799,-6.6689,-6.663,-6.6533,-6.6398,-6.6359,-6.6282,-6.6205,-6.6205,-6.6165,-6.6123,-6.6123,-6.5994,-6.5826,-6.5826,-6.5724,-6.5589,-6.5513,-6.5485,-6.5475,-6.5416,-6.5264,-6.5104,-6.5104,-6.5023,-6.4907,0.0,0.0,0.0,0.0,0.0,-2.8733,-2.9653,-3.0036,-3.0773,-3.2231,-3.2425,-3.27,-3.3121,-3.2757,-3.2503,-3.2491,-3.2491,0.0,0.0,0.0,0.0,0.0,0.0,0.0,-4.1396,-4.1396,-4.1662,-4.2092,-4.2325,-4.2392,-4.2392,-4.2622,-4.2688,-4.2688,0.0,0.0,0.0,0.0,0.0,0.0,0.0,0.0,0.0,0.0,0.0,0.0,0.0,0.0,0.0,0.0,0.0,0.0,0.0,-4.8894,-4.9001,0.0,-4.9509,-5.0084,-5.0084,-5.0642,-5.1386,-5.2097,-5.2785,-5.3477,-5.4218,-5.5349,-5.6311,-5.6311,-5.6758,-5.7188,-5.7188,-5.7553,-5.7886,-5.8213,-5.86,-5.8908,-5.9253,-6.0346,-6.1204,0.0,-6.3245,-6.4633,-6.5043,-6.605,-6.6733,-6.6892,-6.6894,-6.6843,-6.6709,-6.6689,-6.6709,-6.6709,-6.6495,-6.6398,-6.6398,-6.6263,-6.6205,-6.6205,-6.6205,-6.6102,-6.59,-6.59,-6.5782,-6.5589,-6.5589,-6.5589,-6.5589,-6.5307,-6.5213,-6.5182,-6.4974,-6.4907,-6.4907,-6.4907,-6.4907,-6.4907,0.0,0.0,0.0,0.0,0.0,0.0,-3.0056,-3.0744,-3.1368,-3.1868,-3.257,-3.3052,-3.3219,-3.2899,-3.275,-3.275,-3.2333,0.0,0.0,0.0,0.0,0.0,0.0,0.0,-4.1829,-4.1926,-4.1995,-4.2325,-4.2392,-4.2541,-4.2835,-4.2835,-4.2996,-4.309,-4.317,-4.3536,0.0,0.0,0.0,0.0,0.0,0.0,-4.7638,0.0,0.0,0.0,0.0,0.0,0.0,0.0,0.0,0.0,0.0,0.0,0.0,-4.9295,-4.9725,-5.0202,-5.071,-5.1403,-5.2261,-5.343,-5.392,-5.4347,-5.5472,-5.6017,-5.642,-5.6811,-5.7087,-5.7289,-5.7553,-5.7697,-5.8006,-5.854,-5.8747,-5.9212,0.0,0.0,0.0,-6.336,-6.4864,-6.591,-6.6166,-6.6495,-6.671,-6.6762,-6.6761,-6.6717,-6.6653,-6.6531,-6.6475,-6.6475,-6.6417,-6.6359,-6.6263,-6.6224,-6.6205,-6.6205,-6.6061,-6.5971,-6.59,-6.5776,-6.5569,-6.5337,-6.5337,-6.5264,-6.5109,-6.5042,-6.5008,-6.4974,-6.4924,-6.4907,-6.4907,-6.4907,-6.4907,-6.4907,0.0,0.0,0.0,0.0,0.0,0.0,-3.0397,-3.1038,-3.1592,-3.2055,-3.2496,-3.3022,-3.3514,-3.2986,-3.2864,-3.3405,-3.2996,0.0,0.0,0.0,0.0,0.0,0.0,0.0,-4.2092,-4.1927,-4.1995,-4.2392,-4.2541,-4.2769,-4.2981,-4.3076,-4.317,-4.3329,-4.3329,-4.3771,0.0,0.0,0.0,0.0,0.0,0.0,-4.8001,0.0,0.0,0.0,0.0,0.0,0.0,0.0,0.0,0.0,0.0,0.0,0.0,0.0,-5.0315,-5.1095,-5.1457,-5.2213,-5.3185,-5.4144,-5.4747,-5.5349,-5.6128,-5.6474,-5.6758,-5.7138,-5.7188,-5.7338,-5.7745,-5.7886,-5.8186,-5.8706,-5.9006,-5.9626,0.0,0.0,0.0,-6.496,-6.5988,-6.6553,-6.6688,-6.6746,-6.6758,-6.6708,-6.6688,-6.665,-6.6533,-6.6436,-6.6379,-6.6321,-6.6321,-6.6282,-6.6205,-6.6123,-6.6102,-6.6061,-6.5876,-6.5731,-6.5632,-6.5513,-6.5326,-6.509,-6.509,-6.5008,0.0,-6.4907,-6.4907,-6.4907,-6.4907,-6.4907,-6.4907,-6.4907,-6.4907,-6.4945,0.0,0.0,0.0,0.0,0.0,0.0,0.0,-3.0949,-3.1395,-3.2616,-3.2342,-3.2503,-3.3868,-3.3079,-3.3083,-3.4405,-3.438,0.0,0.0,0.0,0.0,0.0,0.0,-4.067,-4.1932,-4.1609,-4.169,-4.24,-4.282,-4.2996,-4.2996,-4.325,-4.3329,-4.3329,-4.3329,-4.3849,-4.4737,-4.6237,-4.7337,-4.8001,-4.8001,-4.8001,0.0,0.0,0.0,0.0,0.0,0.0,0.0,0.0,0.0,0.0,0.0,0.0,0.0,0.0,0.0,0.0,0.0,-5.3188,-5.4247,-5.4437,-5.5408,-5.6311,-5.6366,-5.6811,0.0,-5.7188,-5.7239,-5.7338,-5.7745,-5.8097,-5.8431,-5.8788,-5.9417,-6.0221,0.0,-6.247,0.0,0.0,-6.6573,-6.6709,-6.6709,-6.6824,-6.6831,-6.6708,-6.667,-6.6572,-6.6398,-6.6379,-6.6321,-6.6184,-6.6184,-6.6184,-6.6184,-6.5994,-6.59,-6.5876,-6.5671,-6.5427,-6.5213,-6.5182,-6.509,-6.4907,-6.4907,-6.4907,-6.4907,-6.4907,-6.4907,-6.4907,-6.4907,-6.4907,-6.4907,-6.4907,-6.4907,-6.5021,0.0,0.0,0.0,0.0,0.0,0.0,0.0,0.0,0.0,0.0,-3.2386,-3.2636,-3.3629,-3.3671,-3.405,0.0,0.0,0.0,0.0,0.0,0.0,0.0,-3.9935,-4.05,-4.0806,-4.1301,-4.1789,-4.2095,-4.2663,-4.3076,-4.325,-4.325,-4.3329,-4.3329,-4.3927,-4.502,-4.6308,-4.727,-4.7853,-4.8001,-4.8001,-4.8001,0.0,0.0,0.0,0.0,-4.8066,-4.8115,0.0,0.0,0.0,0.0,0.0,0.0,0.0,0.0,-5.1637,-5.2904,-5.3519,0.0,-5.4887,-5.5658,-5.6073,-5.642,0.0,-5.7087,0.0,0.0,0.0,0.0,0.0,0.0,-5.8788,-5.914,-6.0087,-6.1172,-6.2239,0.0,0.0,-6.6478,-6.6644,-6.6733,-6.6843,-6.6783,-6.6713,-6.664,-6.653,-6.6398,-6.6263,-6.6243,-6.6162,-6.5971,-6.5971,-6.5971,-6.5971,-6.5924,-6.5826,-6.5671,-6.5427,-6.5276,-6.5182,-6.5023,-6.4958,-6.4907,-6.4907,-6.4907,-6.4907,-6.4907,-6.4907,-6.4907,-6.4907,-6.4907,-6.4907,-6.4907,-6.4907,-6.4986,0.0,0.0,0.0,0.0,0.0,0.0,0.0,0.0,0.0,0.0,-3.3116,-3.3518,-3.4485,-3.4637,-3.5047,0.0,0.0,0.0,0.0,0.0,0.0,-3.9328,-3.9448,-3.9832,-4.0495,-4.1111,-4.1577,-4.2015,-4.2748,-4.317,-4.3329,-4.3329,-4.3488,-4.3927,-4.502,-4.6095,-4.6965,-4.7704,-4.8066,-4.8115,-4.8001,0.0,0.0,0.0,0.0,0.0,-4.8115,-4.8115,0.0,-4.8001,-4.8244,-4.8614,0.0,0.0,0.0,0.0,-5.2716,-5.3845,-5.4413,-5.4887,-5.5308,-5.5791,-5.6201,-5.6599,-5.6933,0.0,0.0,0.0,0.0,0.0,0.0,0.0,0.0,0.0,-6.09,0.0,0.0,0.0,-6.6512,-6.6583,-6.671,-6.6804,-6.6814,-6.6749,-6.6651,-6.6508,-6.6455,-6.634,-6.6205,-6.6123,-6.6016,-6.59,-6.5826,-6.5776,-6.5776,-6.5651,-6.5522,-6.5397,-6.5169,-6.5057,-6.5057,-6.4958,-6.4907,-6.4907,-6.4907,-6.4907,-6.4907,-6.4907,-6.4907,-6.4907,-6.4907,-6.4907,-6.4907,-6.4907,-6.5063,-6.5425,0.0,0.0,0.0,0.0,0.0,0.0,0.0,0.0,0.0,0.0,0.0,0.0,0.0,0.0,0.0,0.0,0.0,0.0,0.0,0.0,0.0,-3.9457,-3.8883,-3.9222,-4.058,-4.0959,-4.1483,-4.2093,-4.2921,-4.3329,-4.3329,-4.3409,-4.3989,-4.4871,-4.6237,-4.6965,-4.7253,-4.777,-4.8066,-4.8163,-4.8066,0.0,0.0,0.0,0.0,0.0,0.0,0.0,0.0,-4.8115,-4.8547,-4.9182,-4.9801,0.0,0.0,0.0,0.0,0.0,-5.5087,-5.5467,-5.5755,-5.556,-5.6257,-5.6951,-5.6881,0.0,0.0,0.0,0.0,0.0,0.0,-5.9253,0.0,0.0,0.0,0.0,-6.4985,-6.6031,-6.663,-6.6613,-6.6764,-6.6822,-6.6709,-6.6669,-6.6572,-6.6398,-6.6379,-6.6321,-6.6163,-6.5994,-6.5876,-6.5807,-6.5624,-6.5532,-6.5504,-6.5307,-6.5182,-6.515,-6.4974,-6.4907,-6.4907,-6.4907,-6.4907,-6.4907,-6.4907,-6.4907,-6.4907,-6.4907,-6.4907,-6.4907,-6.4907,-6.4907,-6.4907,-6.4907,-6.5218,-6.58,0.0,0.0,0.0,0.0,0.0,0.0,0.0,0.0,0.0,0.0,0.0,0.0,0.0,0.0,0.0,0.0,0.0,0.0,0.0,0.0,0.0,-3.9165,-3.9076,-3.9387,-4.0128,-4.0949,-4.1698,-4.2357,-4.3,-4.3329,-4.3329,-4.4004,-4.5095,-4.6464,-4.6673,-4.7186,-4.7853,-4.7935,-4.8001,-4.8001,-4.8001,0.0,0.0,0.0,0.0,0.0,0.0,0.0,0.0,-4.8593,-4.8934,-4.9496,-5.0281,0.0,0.0,0.0,0.0,0.0,-5.5431,-5.6035,-5.6599,-5.6292,-5.6933,-5.7583,-5.7284,0.0,0.0,0.0,0.0,0.0,0.0,-6.0103,-6.0955,0.0,0.0,-6.4773,-6.6165,-6.6533,-6.669,-6.669,-6.6708,-6.6725,-6.6689,-6.6533,-6.6417,-6.6398,-6.6282,-6.6142,-6.5947,-6.5924,-6.5731,-6.5318,-6.5276,-6.5169,-6.5027,-6.5136,-6.5104,-6.4958,-6.4888,-6.4907,-6.4907,-6.4907,-6.4907,-6.4907,-6.4907,-6.4907,-6.4907,-6.4907,-6.4907,-6.4907,-6.4907,-6.4907,-6.4907,-6.4907,-6.5049,-6.5309,0.0,0.0,0.0,0.0,0.0,0.0,0.0,0.0,0.0,0.0,0.0,0.0,0.0,0.0,0.0,0.0,0.0,0.0,0.0,0.0,-3.9341,-3.9771,-3.9786,-3.9935,-4.0234,-4.104,-4.1698,-4.2357,-4.3015,-4.3551,-4.3989,-4.5153,-4.6095,-4.6811,-4.7253,-4.7688,-4.8115,-4.8001,-4.8066,-4.8115,0.0,0.0,0.0,0.0,0.0,0.0,0.0,0.0,0.0,0.0,-4.9693,-5.059,-5.1365,0.0,0.0,0.0,0.0,0.0,-5.5507,-5.6108,-5.6704,-5.6492,-5.7116,-5.7784,-5.7671,0.0,0.0,0.0,0.0,0.0,0.0,0.0,-6.1981,-6.3224,-6.4734,-6.5943,-6.6508,-6.6667,-6.6685,-6.6653,-6.667,-6.665,-6.6533,-6.6437,-6.6359,-6.6301,-6.6121,-6.5994,-6.59,-6.5659,-6.5407,-6.5213,-6.5104,-6.5008,-6.4907,-6.4974,-6.4974,-6.4907,-6.4907,-6.4907,-6.4907,-6.4907,-6.4907,-6.4907,-6.4907,-6.4907,-6.4907,-6.4907,-6.4907,-6.4907,-6.4781,-6.4745,-6.4784,-6.5204,-6.5221,-6.5231,0.0,0.0,0.0,0.0,0.0,0.0,0.0,0.0,0.0,0.0,0.0,0.0,0.0,0.0,0.0,0.0,0.0,0.0,0.0,-3.9247,-3.9574,-3.9918,-4.0232,-4.0546,-4.0846,-4.1354,-4.1923,-4.2581,-4.3232,-4.4066,-4.5079,-4.6237,-4.6896,-4.7118,-4.7721,-4.8066,-4.8179,-4.8049,-4.8049,-4.8163,0.0,0.0,0.0,0.0,0.0,0.0,0.0,0.0,0.0,0.0,0.0,0.0,0.0,0.0,0.0,-5.5279,-5.5507,-5.5507,-5.5666,-5.6257,-5.6843,-5.6789,-5.7473,-5.8086,-5.8102,-5.8233,0.0,0.0,0.0,0.0,0.0,-6.2099,0.0,-6.5158,-6.6116,-6.663,-6.667,-6.6693,-6.6681,-6.6621,-6.6625,-6.6553,-6.6398,-6.6359,-6.6281,-6.6123,-6.5994,-6.5856,-6.5756,-6.5407,-6.5182,-6.5136,-6.4974,-6.4907,-6.4907,-6.4907,-6.4907,-6.4907,-6.4907,-6.4907,-6.4907,-6.4907,-6.4907,-6.4907,-6.4907,-6.4872,-6.4817,-6.4872,-6.4817,-6.4633,-6.4502,-6.4441,-6.4578,-6.5179,-6.5331,-6.5384,0.0,0.0,0.0,0.0,0.0,0.0,0.0,0.0,0.0,0.0,0.0,0.0,0.0,0.0,0.0,0.0,0.0,0.0,0.0,-3.9065,-3.9155,-3.8556,-3.9738,-4.0965,-4.2192,-4.2267,-4.2611,-4.3269,-4.4051,-4.5169,-4.6673,-4.6742,-4.7186,-4.7935,-4.8001,-4.8001,-4.8001,-4.8001,-4.8001,-4.8001,-4.8001,0.0,0.0,0.0,0.0,0.0,0.0,0.0,0.0,0.0,0.0,0.0,0.0,0.0,-5.4472,-5.5279,-5.5507,-5.5607,-5.6108,-5.6757,-5.7346,-5.7859,-5.8301,-5.8684,-5.8704,-5.9229,0.0,-6.0055,0.0,0.0,0.0,-6.3563,-6.5236,-6.6314,-6.6594,-6.6742,-6.6865,-6.678,-6.6687,-6.669,-6.6535,-6.6417,-6.6398,-6.6282,-6.6123,-6.5947,-6.5924,-6.5731,-6.5257,-6.5213,-6.5104,-6.4924,-6.4907,-6.4907,-6.4907,-6.4907,-6.4907,-6.4907,-6.4907,-6.4907,-6.4907,-6.4907,-6.4907,-6.4907,-6.4907,-6.4781,-6.4634,-6.4817,-6.4502,-6.3888,-6.3915,-6.4066,-6.4247,-6.4437,-6.4985,-6.5597,0.0,0.0,0.0,0.0,0.0,0.0,0.0,0.0,0.0,0.0,0.0,-3.9017,-3.9177,0.0,0.0,0.0,0.0,0.0,0.0,-3.8631,-3.8856,-3.902,-3.9918,-4.101,-4.2327,-4.2357,-4.2982,-4.4066,-4.53,-4.6237,-4.6811,-4.7337,-4.7704,-4.8001,-4.8115,-4.8049,-4.8001,-4.8115,-4.8066,-4.8001,-4.8292,-4.842,0.0,0.0,0.0,0.0,0.0,0.0,0.0,0.0,-5.1899,-5.2874,-5.3629,-5.4419,-5.5121,-5.542,-5.5764,-5.607,-5.6257,-5.7015,-5.7859,-5.806,-5.8516,0.0,0.0,-5.9549,-6.002,-6.0829,-6.1452,0.0,-6.3659,0.0,-6.6225,-6.6603,-6.6747,-6.6803,-6.6769,-6.6739,-6.6843,-6.7268,-6.6766,-6.6572,-6.7036,-6.643,-6.5971,-6.59,-6.5632,-6.5378,-6.5213,-6.5071,-6.4974,-6.4907,-6.4907,-6.4907,-6.4907,-6.4907,-6.4907,-6.4907,-6.4907,-6.4907,-6.4907,-6.4596,-6.4463,-6.4463,-6.4309,-6.4031,-6.3761,-6.399,-6.3785,-6.3307,-6.3215,-6.2941,-6.2728,-6.3237,-6.3766,-6.4321,0.0,0.0,0.0,0.0,0.0,0.0,0.0,0.0,-3.8943,0.0,0.0,0.0,0.0,-3.9424,0.0,0.0,0.0,0.0,-3.8093,-3.8078,-3.8287,-3.8766,-3.982,-4.0945,-4.2047,-4.2788,-4.3548,-4.451,-4.6024,-4.6965,-4.7186,-4.777,-4.8001,-4.8001,-4.8115,-4.8115,-4.8001,-4.8115,-4.8179,-4.8244,-4.8593,-4.8765,0.0,0.0,0.0,0.0,0.0,0.0,0.0,0.0,-5.2699,-5.3629,-5.4138,-5.4957,-5.5764,-5.5764,-5.6164,-5.6652,-5.6809,-5.7462,-5.8176,0.0,0.0,0.0,-6.0191,-6.0292,-6.0681,-6.1946,-6.2589,-6.351,-6.5252,-6.6186,-6.6688,-6.6688,-6.6809,-6.6859,-6.6708,-6.6669,-6.6804,-6.723,-6.6727,-6.6533,-6.7036,-6.6364,-6.5876,-6.5826,-6.5437,-6.5182,-6.5104,-6.4974,-6.4907,-6.4907,-6.4907,-6.4817,-6.4689,-6.4689,-6.4577,-6.4349,-6.4349,-6.4483,-6.467,-6.4172,-6.3948,-6.3846,-6.3699,-6.3416,-6.3047,-6.3325,-6.3104,-6.2653,-6.2373,-6.2259,-6.2296,-6.2853,-6.3538,-6.4234,0.0,0.0,0.0,0.0,0.0,0.0,0.0,0.0,-3.9177,-3.9337,-3.9424,0.0,0.0,0.0,0.0,0.0,0.0,0.0,-3.7449,-3.7404,-3.7404,-3.7404,-3.9413,-4.077,-4.1417,-4.349,-4.4538,-4.451,-4.6024,-4.7186,-4.8001,-4.8001,-4.8001,-4.8001,-4.8001,-4.8001,-4.8001,-4.8001,-4.8308,-4.8702,-4.8702,-4.8995,-4.9462,0.0,0.0,0.0,0.0,0.0,0.0,0.0,-5.305,-5.4314,-5.4314,-5.5263,-5.6311,-5.6311,-5.6757,-5.7413,-5.7951,-5.8105,-5.8351,0.0,0.0,0.0,-6.1651,-6.159,-6.1858,-6.3417,-6.4464,-6.5428,-6.6416,-6.6668,-6.6689,-6.6689,-6.6817,-6.6859,-6.6727,-6.665,-6.6533,-6.6417,-6.6282,-6.6205,-6.6205,-6.6036,-6.5807,-6.5616,-6.5337,-6.5104,-6.4907,-6.4907,-6.4907,-6.4907,-6.4907,-6.4689,-6.419,-6.419,-6.3864,-6.3215,-6.3169,-6.355,-6.415,-6.3637,-6.3307,-6.3169,-6.3169,-6.2999,-6.2695,-6.2885,-6.2603,-6.195,-6.1487,-6.2141,-6.3377,-6.3377,-6.4412,-6.5786,0.0,0.0,0.0,0.0,0.0,0.0,0.0,0.0,-3.9337,-3.9424,-3.9424,0.0,0.0,0.0,0.0,0.0,0.0,0.0,-3.6806,-3.6761,-3.721,-3.8116,-3.9241,-4.0566,-4.2113,-4.3763,-4.5106,-4.6095,-4.6613,-4.7276,-4.7984,-4.7471,-4.7504,-4.8001,-4.8115,-4.8115,-4.8001,-4.85,-4.8673,-4.8765,-4.9402,-4.9756,-4.993,0.0,0.0,0.0,0.0,0.0,0.0,0.0,0.0,0.0,-5.5973,-5.6559,-5.6861,-5.6861,-5.7266,-5.7766,-5.7905,-5.8508,0.0,-6.0075,0.0,0.0,0.0,-6.3105,0.0,0.0,-6.5475,-6.6256,-6.6603,-6.6758,-6.6837,-6.6837,-6.679,-6.6722,-6.6633,-6.6528,-6.663,-6.7114,-6.6592,-6.6395,-6.6862,-6.6173,-6.5569,-6.5337,-6.5104,-6.4939,-6.4907,-6.4907,-6.4907,-6.4907,-6.4445,-6.4155,-6.3975,-6.3575,-6.3261,-6.3057,-6.2689,-6.2836,-6.3352,-6.2855,-6.2608,-6.2576,-6.2427,-6.2131,-6.1694,-6.1676,-6.1526,-6.1372,-6.1193,-6.1778,-6.261,-6.261,-6.3609,-6.4965,0.0,0.0,0.0,0.0,0.0,0.0,-3.9192,-3.9337,-3.9424,-3.9424,-3.9424,-3.926,0.0,0.0,0.0,-3.7868,-3.733,0.0,-3.6507,-3.6486,-3.7056,-3.8415,-3.9419,-4.1118,-4.3733,-4.4659,-4.5653,-4.6829,-4.6599,-4.6841,-4.7554,-4.7106,-4.7289,-4.8001,-4.8049,-4.8179,-4.8292,-4.8736,-4.9029,-4.9299,-4.9873,-5.0233,-5.0436,0.0,0.0,0.0,0.0,0.0,0.0,0.0,0.0,0.0,-5.6852,-5.7266,-5.7443,-5.7591,-5.8047,-5.8646,-5.915,-5.9756,0.0,-6.1406,-6.2097,-6.3004,-6.4735,0.0,0.0,0.0,-6.6198,-6.6678,-6.6769,-6.6848,-6.6889,-6.683,-6.6757,-6.667,-6.6543,-6.6454,-6.6553,-6.694,-6.6452,-6.6229,-6.6656,-6.5931,-6.5367,-6.5213,-6.5008,-6.4872,-6.48,-6.4781,-6.4652,-6.4387,-6.3994,-6.36,-6.327,-6.2915,-6.259,-6.2303,-6.2041,-6.2023,-6.2251,-6.2112,-6.1969,-6.1897,-6.1748,-6.1484,-6.1193,-6.1152,-6.1093,-6.1093,-6.1093,-6.1575,-6.2324,-6.261,-6.352,-6.4662,0.0,0.0,-3.6802,-3.8708,0.0,0.0,-3.9337,-3.9424,-3.9424,-3.9424,-3.9364,-3.9305,0.0,0.0,0.0,-3.8138,-3.7173,-3.658,-3.652,-3.6484,-3.7156,-3.8645,-4.008,-4.243,-4.5732,-4.5715,-4.6063,-4.6792,-4.6063,-4.6096,-4.6891,-4.6825,-4.7222,-4.8001,-4.8066,-4.8292,-4.8702,-4.8765,-4.9282,-5.0119,-5.0246,-5.054,-5.0996,-5.0996,0.0,0.0,0.0,0.0,0.0,0.0,0.0,0.0,-5.7198,-5.7558,-5.805,-5.8461,-5.9065,-5.9851,-6.1062,0.0,0.0,-6.3015,-6.3891,0.0,-6.6127,-6.6419,-6.6456,-6.6572,-6.665,-6.6733,-6.6884,-6.6894,-6.6863,-6.6707,-6.6688,-6.6611,-6.6417,-6.6379,-6.634,-6.6184,-6.5994,-6.5856,-6.5807,-6.5407,-6.5131,-6.5098,-6.492,-6.4726,-6.4596,-6.4501,-6.419,-6.3612,-6.3524,-6.3075,-6.2287,-6.22,-6.1897,-6.1252,-6.1252,-6.1211,-6.1093,-6.1404,-6.1444,-6.1252,-6.1152,-6.1093,-6.1093,-6.1093,-6.1093,-6.1111,-6.1182,-6.17,-6.2485,-6.3234,-6.4019,-6.4822,0.0,0.0,-3.8308,-3.8782,0.0,0.0,-3.9337,-3.9424,-3.9424,-3.9424,-3.8945,-3.8407,-3.7898,-3.7704,0.0,-3.6207,-3.6758,-3.6975,-3.6455,-3.6923,-3.8046,-4.0007,-4.2495,-4.4417,-4.5765,-4.5218,-4.5284,-4.603,-4.5284,-4.5599,-4.6891,-4.6295,-4.6742,-4.8001,-4.842,-4.8593,-4.8765,-4.9462,-4.993,-5.0171,-5.121,-5.164,-5.1768,-5.1768,-5.2482,0.0,0.0,0.0,0.0,0.0,0.0,0.0,-5.801,-5.8468,-5.8619,-5.895,-5.9647,-6.05,-6.102,-6.1936,0.0,0.0,-6.5018,-6.6051,-6.6464,-6.66,-6.663,-6.6669,-6.6688,-6.6733,-6.6884,-6.6894,-6.6863,-6.6707,-6.665,-6.6553,-6.6417,-6.6301,-6.6183,-6.5971,-6.5793,-6.552,-6.5156,-6.4875,-6.4649,-6.4445,-6.4072,-6.399,-6.4289,-6.3699,-6.3397,-6.3612,-6.28,-6.2248,-6.2075,-6.1564,-6.131,-6.1152,-6.1152,-6.1152,-6.1093,-6.1152,-6.1152,-6.1152,-6.1093,-6.1093,-6.1093,-6.1093,-6.1093,-6.1165,-6.1789,-6.2485,-6.3252,-6.4055,-6.4858,-6.5572,0.0,0.0,0.0,0.0,0.0,0.0,0.0,0.0,-3.905,-3.9379,-3.911,-3.8751,-3.8407,-3.8078,0.0,0.0,-3.7437,-3.7403,-3.742,-3.7662,-3.8753,-4.0869,-4.3333,-4.5036,-4.5765,-4.5417,-4.5582,-4.6328,-4.5582,-4.5798,-4.6891,-4.651,-4.7035,-4.8356,-4.8593,-4.8934,-4.9402,-4.9873,-5.025,-5.0526,-5.1185,-5.147,-5.147,-5.1688,-5.2466,-5.3437,-5.3953,0.0,0.0,0.0,0.0,0.0,0.0,0.0,-5.9025,-5.9395,-5.9952,-6.0772,0.0,0.0,0.0,-6.5061,0.0,-6.6555,-6.6633,-6.6706,-6.6805,-6.6805,-6.6796,-6.6826,-6.6892,-6.6848,-6.6769,-6.666,-6.6572,-6.6456,-6.6321,-6.6243,-6.6082,-6.5793,-6.5529,-6.5222,-6.4807,-6.4539,-6.4272,-6.3948,-6.3718,-6.3568,-6.3498,-6.3094,-6.2806,-6.2708,-6.2164,-6.1751,-6.1546,-6.1292,-6.1093,-6.1093,-6.1093,-6.1093,-6.1093,-6.1093,-6.1093,-6.1093,-6.1093,-6.1093,-6.1093,-6.1093,-6.1093,-6.1182,-6.1985,-6.2521,-6.3002,-6.418,-6.4876,-6.5286,0.0,0.0,0.0,0.0,0.0,0.0,0.0,0.0,0.0,-3.9334,-3.9215,-3.911,-3.923,-3.8631,-3.856,0.0,0.0,0.0,-3.861,-3.8753,-3.9715,-4.1666,-4.3777,-4.5235,-4.5963,-4.598,-4.6344,-4.709,-4.6454,-4.647,-4.7201,-4.7068,-4.7638,-4.8702,-4.8889,-4.9342,-5.0119,-5.0176,-5.0492,-5.0908,-5.1031,-5.1138,-5.1282,-5.1681,-5.2308,-5.3163,-5.4008,-5.5195,-5.654,-5.7256,0.0,0.0,0.0,0.0,-5.9378,-5.976,-6.0246,-6.1,0.0,0.0,0.0,-6.6185,-6.665,0.0,-6.6747,-6.6825,-6.6904,-6.6872,-6.6876,-6.6894,-6.6878,-6.6776,-6.667,-6.6569,-6.6484,-6.634,-6.6224,-6.6165,-6.5997,-6.5582,-6.5263,-6.4919,-6.452,-6.4251,-6.3944,-6.3543,-6.3435,-6.3159,-6.2645,-6.2512,-6.22,-6.1712,-6.16,-6.1466,-6.1093,-6.1093,-6.1093,-6.1093,-6.1093,-6.1093,-6.1093,-6.1093,-6.1093,-6.1093,-6.1093,-6.1093,-6.1093,-6.1093,-6.1093,-6.1182,-6.1985,-6.236,-6.2646,-6.4091,-6.4697,-6.4912,0.0,0.0,0.0,0.0,0.0,0.0,0.0,0.0,0.0,0.0,-3.8407,-3.7898,-3.8467,-3.7943,-3.7797,-3.86,-3.8918,-3.9168,-3.9279,0.0,0.0,-4.3264,-4.4821,-4.5997,-4.6742,-4.6742,-4.7106,-4.7852,-4.7517,-4.7765,-4.8425,-4.7833,-4.7917,-4.8765,-4.9521,-4.9988,-5.0119,-5.062,-5.0819,-5.0943,-5.161,-5.2111,-5.2551,-5.2636,-5.3201,-5.4034,-5.4228,-5.4691,-5.5461,-5.6967,-5.7749,0.0,0.0,0.0,-5.9791,-6.0131,-6.0799,-6.1575,0.0,0.0,0.0,0.0,-6.6688,-6.6747,0.0,0.0,-6.6874,-6.675,-6.6817,-6.6856,-6.6761,-6.6709,-6.6631,-6.6458,-6.6399,-6.634,-6.6224,-6.6039,-6.5769,-6.5312,-6.4904,-6.4483,-6.4027,-6.3786,-6.3519,-6.3128,-6.2768,-6.2515,-6.2412,-6.173,-6.1448,-6.1712,-6.135,-6.1152,-6.1093,-6.1093,-6.1093,-6.1093,-6.1093,-6.1093,-6.1093,-6.1093,-6.1093,-6.1093,-6.1093,-6.1093,-6.1093,-6.1093,-6.1093,-6.1182,-6.1985,-6.2681,-6.3359,-6.4287,-6.5054,-6.5661,0.0,0.0,0.0,0.0,0.0,0.0,0.0,0.0,0.0,0.0,0.0,-3.8646,-3.8931,-3.9098,-3.945,-4.0103,-4.0436,-4.0542,-4.0492,-4.1436,-4.2336,-4.2982,-4.4009,-4.492,-4.5649,-4.6341,-4.7049,-4.7784,-4.8348,-4.8778,-4.9118,-4.9001,-4.9436,-5.0172,-5.0138,-5.0476,-5.1158,-5.0994,-5.107,-5.1333,-5.1669,-5.2118,-5.2672,-5.2878,-5.3269,-5.3713,-5.4418,-5.514,-5.5951,-5.7321,-5.8166,-5.8764,-5.9354,0.0,0.0,0.0,-6.0698,-6.144,-6.2731,0.0,0.0,0.0,-6.6809,-6.6817,-6.6796,-6.6798,-6.6762,-6.665,-6.6685,-6.6704,-6.665,-6.657,-6.6495,-6.6355,-6.632,-6.6181,-6.5842,-6.5749,-6.5474,-6.4784,-6.4538,-6.4232,-6.3786,-6.3647,-6.3354,-6.2686,-6.2482,-6.2167,-6.1692,-6.131,-6.1193,-6.135,-6.1193,-6.1093,-6.1093,-6.1093,-6.1093,-6.1093,-6.1093,-6.1093,-6.1093,-6.1093,-6.1093,-6.1093,-6.1093,-6.1093,-6.1093,-6.1093,-6.1093,-6.1182,-6.1985,-6.2485,-6.286,-6.3645,-6.4144,-6.4519,0.0,0.0,0.0,0.0,0.0,0.0,0.0,0.0,0.0,0.0,0.0,-3.923,-3.9394,0.0,0.0,0.0,-4.1692,-4.1808,-4.1947,-4.2319,-4.2601,-4.2783,-4.3694,-4.4483,-4.5119,-4.62,-4.7181,-4.8044,-4.8882,-4.9392,-4.958,-5.0253,-5.1002,-5.1732,-5.0932,-5.1207,-5.226,-5.1651,-5.1598,-5.1904,-5.2068,-5.2485,-5.3069,-5.3592,-5.3875,-5.4211,-5.5154,-5.607,-5.6929,-5.7841,-5.8751,-5.9518,-5.9836,-6.0179,0.0,0.0,0.0,-6.1327,0.0,0.0,0.0,-6.6287,-6.6697,-6.683,0.0,0.0,-6.6651,-6.6567,-6.6545,-6.6535,-6.6503,-6.6448,-6.6378,-6.6276,-6.6138,-6.5932,-6.5548,-6.5417,-6.508,-6.4389,-6.4232,-6.405,-6.3647,-6.3511,-6.3147,-6.243,-6.2273,-6.1896,-6.1152,-6.1093,-6.1093,-6.1093,-6.1093,-6.1093,-6.1093,-6.1093,-6.1093,-6.1093,-6.1093,-6.1093,-6.1093,-6.1093,-6.1093,-6.1093,-6.1093,-6.1093,-6.1093,-6.1093,-6.1093,-6.1165,-6.1753,-6.211,-6.236,-6.2913,-6.3234,-6.3484,0.0,0.0,0.0,0.0,0.0,0.0,0.0,0.0,0.0,0.0,0.0,-3.8691,-3.9349,-4.0091,-4.0737,-4.1459,-4.2157,-4.2831,-4.3453,-4.2883,-4.2833,-4.3529,-4.492,0.0,-4.6413,-4.7171,-4.8156,-4.9291,-4.9091,-4.9353,-5.0062,-5.1298,-5.2309,-5.3085,-5.2239,-5.2383,-5.3124,-5.2839,-5.2743,-5.2776,-5.3374,-5.3898,-5.4478,-5.5323,-5.6002,-5.6482,-5.6783,-5.7416,-5.8154,-5.8464,-5.9299,-6.0265,-6.0265,-6.0501,-6.0785,0.0,0.0,0.0,0.0,-6.353,0.0,-6.5265,0.0,0.0,0.0,-6.661,-6.6573,-6.6438,-6.6418,-6.638,-6.6225,-6.6322,-6.6339,-6.614,-6.5842,-6.5601,-6.552,-6.5003,-6.4538,-6.4331,-6.4091,-6.3811,-6.3602,-6.326,-6.2855,-6.243,-6.1987,-6.1561,-6.1093,-6.1093,-6.1093,-6.1093,-6.1093,-6.1093,-6.1093,-6.1093,-6.1093,-6.1093,-6.1093,-6.1093,-6.1093,-6.1093,-6.1093,-6.1093,-6.1093,-6.1093,-6.1093,-6.1093,-6.1093,-6.1093,-6.1147,-6.1628,-6.2289,-6.2324,-6.2788,-6.3395,0.0,0.0,0.0,0.0,0.0,0.0,0.0,0.0,0.0,0.0,0.0,0.0,0.0,-4.1142,-4.1917,-4.219,-4.2834,-4.3355,-4.3552,-4.338,-4.3346,-4.3611,-4.484,-4.5639,-4.5799,-4.7619,-4.8736,-4.9183,-4.9875,-5.0357,-5.0637,-5.1099,-5.1899,-5.2945,-5.2813,-5.3115,-5.3602,-5.3032,-5.3163,-5.3763,-5.4078,-5.4857,-5.5877,-5.6176,-5.6575,-5.7077,-5.7616,-5.814,-5.8634,-5.9493,-6.0032,-6.0418,-6.0724,-6.09,-6.1034,-6.1148,-6.1308,-6.1639,0.0,0.0,0.0,-6.4415,-6.5257,-6.5838,-6.5674,-6.6069,-6.6417,-6.6301,-6.6263,-6.6263,-6.6205,-6.6243,-6.614,-6.5769,-6.5654,-6.537,-6.4734,-6.452,-6.4272,-6.3878,-6.3786,-6.3673,-6.3602,-6.326,-6.2836,-6.243,-6.1951,-6.1505,-6.1093,-6.1093,-6.1093,-6.1093,-6.1093,-6.1093,-6.1093,-6.1093,-6.1093,-6.1093,-6.1093,-6.1093,-6.1093,-6.1093,-6.1093,-6.1093,-6.1093,-6.1093,-6.1093,-6.1093,-6.1093,-6.1093,-6.1093,-6.1272,-6.1521,-6.1521,-6.17,-6.2003,0.0,0.0,0.0,0.0,0.0,-3.926,-3.8796,-3.9125,-3.9316,-3.9118,0.0,0.0,0.0,0.0,-4.271,-4.2912,-4.3355,-4.3628,-4.3628,-4.3628,-4.3787,-4.4181,-4.5219,-4.6058,-4.6618,-4.7954,-4.9017,-4.9704,-4.9994,-5.0471,-5.1123,-5.1441,-5.2109,-5.3082,-5.3512,-5.4011,-5.4538,-5.3981,-5.428,-5.5122,-5.5161,-5.5992,-5.7209,-5.7563,-5.7899,-5.8304,-5.8897,-5.9206,-5.9461,-6.0339,-6.0599,-6.0657,-6.0988,-6.1156,-6.125,-6.1327,-6.1473,-6.1685,-6.2249,0.0,0.0,0.0,-6.4271,-6.4909,-6.5044,-6.5508,-6.5973,-6.6126,-6.6184,-6.6123,-6.5997,-6.5974,-6.5866,-6.5548,-6.5312,-6.4952,-6.4291,-6.4109,-6.3944,-6.3647,-6.3602,-6.3557,-6.34,-6.3051,-6.2636,-6.222,-6.173,-6.1408,-6.1093,-6.1093,-6.1093,-6.1093,-6.1093,-6.1093,-6.1093,-6.1093,-6.1093,-6.1093,-6.1093,-6.1093,-6.1093,-6.1093,-6.1093,-6.1093,-6.1093,-6.1093,-6.1093,-6.1093,-6.1093,-6.1093,-6.1093,-6.1093,-6.1093,-6.1093,-6.1093,-6.1182,0.0,0.0,-3.9424,-3.9424,-3.9424,-3.9424,-3.9424,-3.9424,-3.9681,-4.0409,0.0,0.0,0.0,0.0,0.0,-4.3552,-4.3628,-4.3628,-4.3628,-4.3628,-4.4164,-4.5361,-4.6119,-4.735,-4.9066,-4.83,-4.8883,-5.0945,-4.9433,-4.9692,-5.1619,-5.2455,-5.3109,-5.3644,-5.4393,-5.516,-5.5861,-5.5687,-5.6029,-5.6709,-5.666,-5.732,-5.8457,-5.9455,-5.9973,-6.0272,-6.057,-6.0661,-6.0638,-6.0922,-6.1,-6.1017,-6.109,-6.1283,-6.1515,-6.1515,-6.1592,-6.169,0.0,0.0,0.0,-6.2607,-6.3207,-6.4,-6.4773,-6.4986,-6.5237,-6.5947,-6.6102,-6.5951,-6.5575,-6.5493,-6.5465,-6.5465,-6.4818,-6.4272,-6.419,-6.383,-6.3602,-6.3602,-6.3602,-6.3447,-6.3051,-6.2636,-6.222,-6.1712,-6.131,-6.1093,-6.1093,-6.1093,-6.1093,-6.1093,-6.1093,-6.1093,-6.1093,-6.1093,-6.1093,-6.1093,-6.1093,-6.1093,-6.1093,-6.1093,-6.1093,-6.1093,-6.1093,-6.1093,-6.1093,-6.1093,-6.1093,-6.1093,-6.1093,-6.1093,-6.1111,-6.1093,-6.1093,-6.1093,0.0,-3.9337,-3.9424,-3.9424,-3.9424,-3.9424,-3.9424,-3.9424,-3.9681,0.0,0.0,0.0,-4.2253,-4.2912,-4.3432,-4.3552,-4.3628,-4.3628,-4.3628,-4.3906,-4.4498,-4.5361,-4.6772,-4.801,-4.9066,-4.9707,-5.0506,-5.1383,-5.1055,-5.1334,-5.2242,-5.2459,-5.289,-5.3492,-5.4301,-5.4967,-5.5473,-5.5527,-5.595,-5.6697,-5.7508,-5.8393,-5.928,-5.9859,-6.0291,-6.057,-6.0661,-6.0795,-6.0963,-6.1061,-6.1138,-6.1254,-6.1428,-6.155,-6.1642,-6.1642,-6.1631,-6.1622,-6.1609,0.0,0.0,0.0,0.0,0.0,-6.4019,-6.4986,-6.5914,-6.6063,-6.5909,-6.5699,-6.552,-6.5016,-6.4628,-6.4628,-6.4464,-6.4153,-6.383,-6.3691,-6.3602,-6.3602,-6.3602,-6.3447,-6.3051,-6.2636,-6.222,-6.1712,-6.131,-6.1093,-6.1093,-6.1093,-6.1093,-6.1093,-6.1093,-6.1093,-6.1093,-6.1093,-6.1093,-6.1093,-6.1093,-6.1093,-6.1093,-6.1093,-6.1093,-6.1093,-6.1093,-6.1093,-6.1093,-6.1093,-6.1093,-6.1093,-6.1093,-6.1093,-6.1034,-6.0494,-6.0618,-6.0956,-3.9352,-3.9424,-3.9424,-3.9424,-3.9424,-3.9424,-3.9424,-3.9681,-4.0076,0.0,0.0,0.0,-4.2912,-4.3372,-4.3744,-4.4042,-4.3794,-4.3803,-4.4297,-4.4632,-4.528,-4.6408,-4.781,-4.9044,-4.9992,-5.0627,-5.1197,-5.1768,-5.1694,-5.2,-5.2809,-5.2852,-5.3185,-5.3775,-5.4183,-5.4652,-5.5119,-5.5454,-5.6257,-5.7283,-5.7676,-5.8723,-6.0006,-6.03,-6.0594,-6.088,-6.088,-6.1001,-6.1176,-6.1176,-6.1292,-6.1447,-6.1543,-6.1646,-6.1697,-6.1673,-6.1629,-6.1563,-6.1485,-6.1408,-6.1331,-6.1234,0.0,0.0,-6.3516,-6.4405,-6.5252,-6.5727,-6.5647,-6.5389,-6.5035,-6.4575,-6.4193,-6.4027,-6.4027,-6.392,-6.3647,-6.3602,-6.3602,-6.3602,-6.3465,-6.3194,-6.2787,-6.236,-6.1933,-6.1448,-6.1252,-6.1093,-6.1093,-6.1093,-6.1093,-6.1093,-6.1093,-6.1093,-6.1093,-6.1093,-6.1093,-6.1093,-6.1093,-6.1093,-6.1093,-6.1093,-6.1093,-6.1093,-6.1093,-6.1093,-6.1093,-6.1093,-6.1093,-6.1093,-6.1093,-6.0896,-6.0556,-6.0146,-6.0083,-6.0065,0.0,-3.9424,-3.9424,-3.9424,-3.9424,-3.9424,-3.9481,-4.0076,-4.0737,0.0,-4.2253,-4.2912,-4.3552,-4.3628,-4.391,-4.4622,-4.4168,-4.4281,-4.5488,-4.5645,-4.6442,-4.8026,-4.9064,-5.0171,-5.1297,-5.1197,-5.1445,-5.2137,-5.1861,-5.2247,-5.3311,-5.3428,-5.3795,-5.4359,-5.4233,-5.4416,-5.4874,-5.5404,-5.6638,-5.8178,-5.7637,-5.8673,-6.0537,-6.0685,-6.0901,-6.1099,-6.1118,-6.1195,-6.1292,-6.1331,-6.1447,-6.1619,-6.171,-6.1719,-6.169,-6.1721,-6.1639,-6.1543,-6.1466,-6.1427,-6.1389,-6.1273,-6.1331,0.0,-6.3263,-6.3708,-6.4084,-6.5241,-6.5456,-6.518,-6.4426,-6.4251,-6.4069,-6.3673,-6.3602,-6.3602,-6.3602,-6.3602,-6.3602,-6.3602,-6.3242,-6.2836,-6.243,-6.1987,-6.1505,-6.1152,-6.1093,-6.1093,-6.1093,-6.1093,-6.1093,-6.1093,-6.1093,-6.1093,-6.1093,-6.1093,-6.1093,-6.1093,-6.1093,-6.1093,-6.1093,-6.1093,-6.1093,-6.1093,-6.1093,-6.1093,-6.1093,-6.1093,-6.1093,-6.1093,-6.1093,-6.0635,-6.0019,-5.9873,-5.9447,-5.8892,-3.9424,-3.9424,-3.9424,-3.9424,-3.9424,-3.9625,-4.0216,-4.0424,-4.094,-4.2253,-4.2974,-4.3432,-4.3568,-4.3628,-4.391,-4.4622,-4.4883,-4.5496,-4.6554,-4.7283,-4.817,-4.9133,-4.992,-5.0699,-5.1629,-5.1778,-5.2291,-5.3143,-5.3105,-5.3458,-5.4073,-5.411,-5.4337,-5.4704,-5.461,-5.4769,-5.5134,-5.526,-5.6422,-5.8226,-5.8719,-5.9599,-6.0685,-6.0922,-6.1041,-6.1118,-6.1215,-6.1273,-6.1311,-6.1485,-6.1563,-6.1725,-6.244,-6.2185,-6.1735,-6.232,-6.1954,-6.1505,-6.2162,-6.2278,-6.2182,-6.2162,-6.2665,0.0,-6.3613,-6.4212,-6.4965,-6.5781,-6.5769,-6.5446,-6.5003,-6.4575,-6.4193,-6.3897,-6.3717,-6.3602,-6.3602,-6.3602,-6.3602,-6.3602,-6.3242,-6.2836,-6.243,-6.1987,-6.1505,-6.1152,-6.1093,-6.1093,-6.1093,-6.1093,-6.1093,-6.1093,-6.1093,-6.1093,-6.1093,-6.1093,-6.1093,-6.1093,-6.1093,-6.1093,-6.1093,-6.1093,-6.1093,-6.1093,-6.1093,-6.1093,-6.1093,-6.1093,-6.1093,-6.1093,-6.1093,-6.0635,-5.9937,-5.9314,-5.9028,-5.8755,-3.9424,-3.9424,-3.9424,-3.9424,-3.9681,-4.0076,-4.0409,-4.1075,-4.1787,-4.2522,-4.3174,-4.3628,-4.3763,-4.4079,-4.474,-4.5841,-4.6167,-4.6857,-4.8248,-4.8837,-4.9379,-4.9973,-5.0945,-5.1705,-5.2094,-5.2685,-5.3208,-5.3602,-5.3851,-5.4142,-5.4505,-5.4519,-5.4704,-5.4998,-5.4971,-5.5115,-5.5427,-5.5849,-5.697,-5.8432,-5.8668,-5.9614,-6.0922,-6.1119,-6.1195,-6.1215,-6.1311,-6.1389,-6.1463,-6.1593,-6.1632,-6.167,-6.2098,-6.2182,-6.2143,-6.2036,-6.1992,-6.2027,-6.2394,-6.2453,-6.2511,-6.2936,-6.3052,0.0,0.0,-6.3979,-6.446,-6.5033,-6.5366,-6.5446,-6.5061,-6.4731,-6.4445,-6.4153,-6.4004,-6.383,-6.3647,-6.3602,-6.3602,-6.3602,-6.3242,-6.2836,-6.243,-6.1987,-6.1505,-6.1152,-6.1093,-6.1093,-6.1093,-6.1093,-6.1093,-6.1093,-6.1093,-6.1034,-6.0854,-6.1034,-6.0914,-6.0609,-6.0914,-6.1034,-6.0854,-6.1034,-6.1093,-6.1093,-6.0914,-6.0914,-6.1093,-6.0914,-6.0974,-6.1034,-6.0696,-6.0083,-5.938,-5.8633,-5.814,-5.7724,-3.9424,-3.9424,-3.9409,-3.9625,-4.0076,-4.0615,-4.0873,-4.1868,-4.2648,-4.2772,-4.3312,-4.3704,-4.3898,-4.459,-4.5631,-4.7062,-4.7437,-4.8263,-4.9994,-5.0236,-5.0507,-5.0868,-5.1963,-5.2607,-5.2678,-5.3508,-5.3926,-5.3926,-5.4303,-5.4552,-5.4716,-5.4836,-5.5026,-5.5268,-5.5268,-5.5508,-5.5959,-5.6671,-5.7699,-5.8836,-5.8623,-5.959,-6.1157,-6.1273,-6.1328,-6.1341,-6.1406,-6.1535,-6.1635,-6.1679,-6.1636,-6.1621,-6.1737,-6.2085,-6.2356,-6.1892,-6.2143,-6.2607,-6.2839,-6.2897,-6.3071,-6.3768,-6.342,-6.3033,0.0,0.0,0.0,-6.4045,-6.4749,-6.5168,-6.4781,-6.4586,-6.4306,-6.3917,-6.3834,-6.3682,-6.327,-6.3442,-6.3602,-6.3602,-6.3242,-6.2886,-6.2534,-6.2095,-6.1618,-6.1152,-6.1152,-6.1193,-6.1093,-6.1093,-6.1034,-6.0974,-6.1034,-6.0914,-6.0485,-6.0854,-6.0732,-6.0107,-6.0653,-6.0793,-6.0485,-6.0793,-6.0914,-6.0914,-6.0609,-6.0671,-6.0974,-6.0671,-6.0653,-6.0757,-6.0209,-5.953,-5.8823,-5.8086,-5.7314,-5.668,-3.9424,-3.9424,-3.9625,-4.0285,-4.0409,-4.094,-4.219,-4.2522,-4.2834,-4.3432,-4.3704,-4.3898,-4.3898,-4.4632,-4.5732,-4.7062,-4.82,-4.9445,-5.103,-5.1576,-5.2,-5.2236,-5.2714,-5.3096,-5.3373,-5.3701,-5.4036,-5.4321,-5.4629,-5.4765,-5.4806,-5.5053,-5.5293,-5.5544,-5.5544,-5.6133,-5.7117,-5.7214,-5.8218,-5.9745,-5.9784,-6.0384,-6.1292,-6.135,-6.1399,-6.1409,-6.1533,-6.1632,-6.1679,-6.1635,-6.1597,-6.1698,-6.2298,-6.2008,-6.1718,-6.3033,-6.2955,-6.2762,-6.429,-6.4696,-6.4735,-6.4831,-6.4773,-6.4522,-6.3845,0.0,-6.369,-6.3747,0.0,-6.4362,-6.4133,0.0,0.0,-6.2353,-6.247,-6.242,-6.189,-6.2854,-6.3602,-6.3602,-6.3242,-6.3002,-6.2953,-6.2585,-6.2005,-6.1152,-6.1408,-6.1466,-6.1093,-6.1093,-6.0974,-6.0671,-6.0914,-6.0793,-6.0153,-6.0485,-6.0485,-6.0089,-6.0153,-6.0216,-6.0153,-6.0216,-6.0216,-6.0216,-6.0153,-6.036,-6.0609,-6.0297,-6.0054,-5.9856,-5.9937,-5.953,-5.8823,-5.8086,-5.7314,-5.668,-3.9424,-3.9753,-4.0161,-4.0478,-4.1209,-4.1933,-4.2522,-4.2912,-4.3295,-4.3552,-4.3763,-4.4056,-4.4446,-4.5688,-4.6996,-4.8311,-4.9696,-5.0923,-5.1946,-5.2379,-5.2654,-5.2813,-5.3263,-5.3584,-5.3739,-5.4017,-5.4352,-5.4629,-5.4746,-5.4962,-5.5287,-5.5365,-5.5585,-5.5847,-5.6348,-5.6849,-5.7385,-5.843,-5.9281,-6.0016,-6.0673,-6.1137,-6.1466,-6.1505,-6.1544,-6.1568,-6.1634,-6.164,-6.1639,-6.1613,-6.1505,-6.1466,-6.1756,-6.1892,-6.1969,-6.2143,-6.2298,-6.2665,-6.3903,-6.4212,-6.4403,-6.5305,-6.5211,-6.4828,-6.434,-6.4222,-6.418,-6.4074,0.0,0.0,0.0,0.0,0.0,0.0,-6.3081,-6.3262,-6.2841,-6.3245,-6.3602,-6.3602,-6.3465,-6.326,-6.3002,-6.2636,-6.2113,-6.1523,-6.16,-6.1505,-6.1093,-6.1093,-6.0914,-6.0609,-6.0914,-6.0653,-5.9831,-6.036,-6.0216,-5.9485,-5.9896,-6.0025,-5.9831,-6.0025,-6.0089,-6.0089,-5.9896,-6.0089,-6.0547,-5.9648,-5.9415,-5.9644,-5.8823,-5.8336,-5.7997,-5.7389,-5.697,-5.668,-3.9681,-4.0146,-4.0615,-4.1008,-4.1933,-4.2648,-4.2912,-4.3295,-4.3628,-4.3747,-4.3981,-4.4491,-4.5183,-4.6731,-4.8225,-4.9483,-5.0816,-5.1884,-5.2618,-5.2868,-5.3066,-5.3217,-5.368,-5.3962,-5.4123,-5.4386,-5.4629,-5.4905,-5.4971,-5.5237,-5.5607,-5.5689,-5.5808,-5.6031,-5.6708,-5.725,-5.7772,-5.9126,-5.9971,-6.046,-6.127,-6.161,-6.1641,-6.1641,-6.167,-6.1698,-6.1674,-6.1654,-6.1582,-6.1524,-6.1389,-6.1273,-6.1235,-6.1602,-6.195,-6.1524,-6.1794,-6.2409,-6.3359,-6.364,-6.3993,-6.5226,-6.5307,-6.5003,-6.46,-6.4474,-6.4321,-6.3874,-6.376,0.0,0.0,0.0,-6.3067,-6.241,0.0,-6.3495,-6.2811,-6.3333,-6.3717,-6.3602,-6.3602,-6.3372,-6.2737,-6.2726,-6.2412,-6.1768,-6.1694,-6.1469,-6.0974,-6.0854,-6.0671,-6.036,-6.0653,-6.0405,-5.9418,-6.0025,-5.9879,-5.9012,-5.9551,-5.9683,-5.9418,-5.97,-5.9831,-5.9766,-5.9351,-5.9534,-5.999,-5.8789,-5.8547,-5.8806,-5.778,-5.7239,-5.7013,-5.6741,-5.668,-5.668,-4.0478,-4.0478,-4.094,-4.2317,-4.2585,-4.2912,-4.3704,-4.3704,-4.3747,-4.4039,-4.4558,-4.5237,-4.6175,-4.7509,-4.8919,-5.0316,-5.1137,-5.1994,-5.2937,-5.2999,-5.3258,-5.387,-5.3907,-5.4158,-5.4746,-5.4776,-5.4933,-5.5193,-5.5455,-5.5566,-5.5607,-5.5865,-5.5975,-5.6012,-5.6167,-5.7134,-5.866,-5.8873,-5.9881,-6.1363,-6.1527,-6.1632,-6.1698,-6.1698,-6.1699,-6.1695,-6.1628,-6.16,-6.1563,-6.1292,-6.1214,-6.1194,-6.1057,-6.1036,-6.119,-6.1923,-6.1939,-6.1966,-6.3031,-6.3641,-6.4106,-6.4542,-6.5122,-6.5329,-6.45,-6.4172,-6.3711,-6.2699,-6.2776,-6.3031,-6.3031,-6.2687,-6.201,-6.0714,-6.1573,0.0,0.0,-6.2649,-6.4065,-6.3647,-6.3602,-6.315,-6.1964,-6.2891,-6.3032,-6.1768,-6.1751,-6.1472,-6.0671,-6.0297,-5.9961,-5.9635,-5.9961,-5.9748,-5.9012,-5.9436,-5.9436,-5.9012,-5.9012,-5.9012,-5.9012,-5.9012,-5.9012,-5.9012,-5.8405,-5.8388,-5.8668,-5.7651,-5.7114,-5.7022,-5.703,-5.6541,-5.5927,-5.6463,-5.668,-5.668,-4.106,-4.1525,-4.2061,-4.2522,-4.2974,-4.3372,-4.3645,-4.403,-4.4282,-4.4395,-4.5074,-4.5995,-4.7237,-4.836,-4.9549,-5.0901,-5.1955,-5.2654,-5.2999,-5.3363,-5.368,-5.3907,-5.4296,-5.4591,-5.4806,-5.4971,-5.5193,-5.5458,-5.5544,-5.569,-5.5884,-5.6054,-5.6128,-5.6167,-5.6842,-5.7765,-5.8892,-5.954,-6.0493,-6.1543,-6.1618,-6.1654,-6.1635,-6.1635,-6.1635,-6.1615,-6.1506,-6.1423,-6.1331,-6.1233,-6.1135,-6.1076,-6.1017,-6.0997,-6.0993,-6.1012,-6.0929,-6.1,-6.1706,-6.1983,-6.2223,-6.2788,-6.3619,-6.4191,-6.3791,-6.4073,-6.426,-6.3744,-6.3218,-6.2769,-6.2622,-6.2507,-6.2085,-6.1079,-6.2203,-6.2847,0.0,-6.2463,-6.2846,-6.2392,-6.3072,-6.3241,-6.2289,-6.2132,-6.1636,-6.0674,-6.041,-6.0201,-5.9813,-5.9998,-5.9961,-5.9635,-5.9896,-5.9766,-5.9012,-5.9436,-5.9436,-5.9012,-5.9012,-5.9012,-5.9012,-5.9012,-5.9012,-5.9012,-5.8789,-5.8702,-5.8598,-5.7651,-5.7039,-5.687,-5.6352,-5.6006,-5.5863,-5.6463,-5.6619,-5.6541,-4.1459,-4.2317,-4.2974,-4.2974,-4.3295,-4.3671,-4.3989,-4.4395,-4.4732,-4.511,-4.5732,-4.6764,-4.8229,-4.9223,-5.0362,-5.1773,-5.2669,-5.3217,-5.33,-5.3662,-5.3999,-5.4228,-5.4572,-5.4876,-5.508,-5.5243,-5.5477,-5.575,-5.575,-5.5866,-5.607,-5.6167,-5.6214,-5.6262,-5.6911,-5.7688,-5.8523,-5.9165,-5.9962,-6.0764,-6.1049,-6.1328,-6.1542,-6.1466,-6.1447,-6.1486,-6.1341,-6.1242,-6.1153,-6.1115,-6.1055,-6.0955,-6.0804,-6.0738,-6.0671,-6.03,-6.0094,-6.0072,-6.0469,-6.0705,-6.0947,-6.1546,-6.2303,-6.2946,-6.2875,-6.3389,-6.3878,-6.3659,-6.3304,-6.2886,-6.2494,-6.2636,-6.2469,-6.1391,-6.2562,-6.3349,0.0,-6.2556,-6.2388,-6.1939,-6.2407,-6.2324,-6.1273,-6.1106,-6.0596,-5.949,-5.9266,-5.9171,-5.9065,-5.9196,-5.9356,-5.9351,-5.9635,-5.9485,-5.9012,-5.9301,-5.9301,-5.9012,-5.9012,-5.9012,-5.9012,-5.9012,-5.9012,-5.9012,-5.8789,-5.8475,-5.8086,-5.7206,-5.6674,-5.6286,-5.599,-5.5782,-5.5766,-5.6307,-5.6463,-5.6463,-4.1722,-4.2648,-4.3628,-4.3628,-4.3628,-4.3889,-4.4746,-4.4766,-4.5003,-4.6,-4.6501,-4.7404,-4.9162,-5.0087,-5.1247,-5.2895,-5.3263,-5.3565,-5.387,-5.3944,-5.4193,-5.4776,-5.4836,-5.508,-5.5607,-5.5628,-5.575,-5.6012,-5.6012,-5.6089,-5.6205,-5.6205,-5.6243,-5.6329,-5.6451,-5.695,-5.7715,-5.784,-5.8397,-5.9249,-5.9872,-6.0612,-6.1347,-6.1065,-6.1051,-6.121,-6.1109,-6.109,-6.1068,-6.093,-6.0888,-6.0804,-6.0422,-6.0293,-6.0208,-5.9855,-5.9502,-5.9252,-5.9397,-5.9816,-6.0318,-6.0691,-6.126,-6.1713,-6.1695,-6.2197,-6.2542,-6.2383,-6.2952,-6.3267,-6.2543,-6.3044,-6.3044,-6.1521,-6.2524,-6.337,-6.2968,-6.2799,-6.2578,-6.2167,-6.1462,-6.0504,-5.9134,-5.9861,-5.9894,-5.847,-5.8334,-5.8295,-5.8293,-5.8106,-5.8287,-5.8926,-5.8995,-5.9012,-5.9012,-5.9012,-5.9012,-5.9012,-5.9012,-5.9012,-5.9012,-5.9012,-5.9012,-5.8944,-5.8405,-5.7814,-5.7147,-5.6614,-5.5941,-5.5426,-5.5685,-5.5604,-5.5507,-5.5927,-5.6228,-5.6463,-4.238,-4.3113,-4.3763,-4.3628,-4.3704,-4.4097,-4.4801,-4.5303,-4.5783,-4.6454,-4.7062,-4.8175,-5.0053,-5.0464,-5.133,-5.3116,-5.3584,-5.3814,-5.3907,-5.433,-5.4654,-5.4806,-5.5186,-5.5455,-5.5607,-5.5808,-5.5921,-5.6012,-5.6109,-5.6167,-5.6205,-5.6341,-5.643,-5.6461,-5.6535,-5.7055,-5.7848,-5.7892,-5.8323,-5.899,-5.9105,-5.9232,-5.9333,-5.9194,-5.9543,-6.0123,-6.0803,-6.0993,-6.0949,-6.0911,-6.069,-6.0449,-6.0321,-6.015,-5.9855,-5.9467,-5.9289,-5.914,-5.8966,-5.9011,-5.9138,-5.9262,-5.9838,-6.0371,-6.0394,-6.1023,-6.1589,-6.1503,-6.167,-6.1949,-6.2339,-6.258,-6.258,-6.2171,-6.1949,-6.2085,-6.2818,-6.1603,-6.074,-6.0942,-5.9552,-5.8995,-5.9984,-5.9124,-5.8241,-5.7492,-5.727,-5.7015,-5.6743,-5.7978,-5.8567,-5.8185,-5.8719,-5.9012,-5.9012,-5.9012,-5.9012,-5.9012,-5.9012,-5.9012,-5.9012,-5.9012,-5.9012,-5.9012,-5.8858,-5.8192,-5.7222,-5.7055,-5.6319,-5.5409,-5.5507,-5.5507,-5.5507,-5.5927,-5.6307,-5.6619,-4.2648,-4.3235,-4.3864,-4.4105,-4.4293,-4.4558,-4.5161,-4.58,-4.6454,-4.7062,-4.756,-4.8571,-5.0383,-5.083,-5.171,-5.3475,-5.3944,-5.4161,-5.4296,-5.4604,-5.4905,-5.5134,-5.5431,-5.5649,-5.5769,-5.5921,-5.6031,-5.6089,-5.6167,-5.6244,-5.6321,-5.6437,-5.6519,-5.6553,-5.6585,-5.6861,-5.7326,-5.7291,-5.766,-5.8277,-5.8186,-5.8312,0.0,-5.846,-5.8668,-5.9095,-5.9639,-6.0253,-6.0846,-6.069,-6.0475,-6.0246,-5.9912,-5.9687,-5.9467,-5.9083,-5.8986,-5.8966,-5.8739,-5.8716,-5.8716,-5.8716,-5.9051,-5.9385,-5.9385,-6.0035,-6.063,-6.063,-6.0945,-6.1224,-6.1298,-6.1633,-6.1893,-6.1893,-6.1503,-6.1292,-6.1543,-6.0778,-6.0089,-5.9966,-5.8992,-5.8777,-5.9815,-5.839,-5.7275,-5.6894,-5.6796,-5.6648,-5.6405,-5.771,-5.8286,-5.7892,-5.8633,-5.9012,-5.9012,-5.9012,-5.9012,-5.9012,-5.9012,-5.9012,-5.9012,-5.9012,-5.9012,-5.9012,-5.8702,-5.8192,-5.7577,-5.698,-5.6397,-5.5797,-5.5491,-5.5507,-5.5604,-5.6006,-5.6228,-5.6463,-4.2896,-4.3339,-4.3989,-4.4783,-4.5054,-4.5303,-4.5833,-4.6341,-4.6954,-4.7639,-4.7974,-4.8776,-5.0545,-5.1176,-5.2192,-5.3795,-5.4249,-5.4552,-5.4776,-5.4866,-5.5107,-5.5566,-5.5628,-5.575,-5.5993,-5.6031,-5.6089,-5.6205,-5.6225,-5.6263,-5.6321,-5.6459,-5.6485,-5.6426,-5.6543,-5.6602,-5.6573,-5.6515,-5.679,-5.7294,-5.7157,-5.7518,-5.811,-5.7992,-5.803,-5.8127,-5.8081,-5.9138,-6.0537,-6.0223,-6.0142,-6.0053,-5.9413,-5.9178,-5.9083,-5.8803,-5.8716,-5.8716,-5.8716,-5.8716,-5.8716,-5.8716,-5.8716,-5.8716,-5.8716,-5.9255,-5.9714,-5.9671,-6.0265,-6.058,-5.9888,-6.0462,-6.1056,-6.11,-6.1007,-6.0692,-5.9931,-6.0084,-5.9946,-5.9234,-5.9046,0.0,-5.914,-5.7859,-5.6927,-5.6771,-5.6927,-5.6868,-5.6594,-5.7441,-5.7886,-5.7736,-5.8581,-5.9012,-5.9012,-5.9012,-5.9012,-5.9012,-5.9012,-5.9012,-5.9012,-5.9012,-5.9012,-5.8944,-5.8422,-5.812,-5.7887,-5.6844,-5.6303,-5.6162,-5.5637,-5.5507,-5.5766,-5.6006,-5.6086,-5.6165,-4.3948,-4.4373,-4.4801,-4.5144,-4.595,-4.6624,-4.6811,-4.6882,-4.7178,-4.7915,-4.8075,-4.8914,-5.112,-5.145,-5.2263,-5.4137,-5.4565,-5.4765,-5.4806,-5.5193,-5.55,-5.5607,-5.5808,-5.5958,-5.6012,-5.6109,-5.6186,-5.6205,-5.636,-5.6109,-5.5451,-5.6223,-5.6204,-5.5566,-5.6289,-5.6563,-5.6515,-5.6328,-5.6252,-5.6251,-5.6115,-5.6113,-5.6184,-5.6165,-5.6588,-5.7181,-5.6912,-5.7889,-5.9297,-5.9243,-5.9311,-5.9378,-5.9233,-5.9025,-5.8762,-5.8698,-5.8716,-5.8716,-5.8716,-5.8716,-5.8716,-5.8716,-5.8716,-5.8716,-5.8716,-5.8828,-5.8818,-5.846,-5.8544,-5.8712,-5.8967,-5.967,-6.0316,-6.0637,-6.013,-5.9651,-5.9503,-5.9097,-5.8828,-5.8781,-5.8201,-5.805,-5.8702,-5.8041,-5.7558,-5.7492,-5.7558,-5.7033,-5.5835,-5.7662,-5.8149,-5.7044,-5.8305,-5.9012,-5.9012,-5.9012,-5.9012,-5.9012,-5.9012,-5.9012,-5.9012,-5.9012,-5.9012,-5.9012,-5.8875,-5.8263,-5.7355,-5.7147,-5.6475,-5.5572,-5.5409,-5.5409,-5.5507,-5.5782,-5.5943,-5.6165,-4.4708,-4.4947,-4.5338,-4.6108,-4.6646,-4.7219,-4.7806,-4.7842,-4.7919,-4.8307,-4.8495,-4.9306,-5.1283,-5.1625,-5.2484,-5.4433,-5.4735,-5.4933,-5.5212,-5.5455,-5.5649,-5.5808,-5.5998,-5.6109,-5.6109,-5.6205,-5.6283,-5.636,-5.6437,-5.6068,-5.5264,-5.6178,-5.6133,-5.5336,-5.6182,-5.6453,-5.6288,-5.6193,-5.6059,-5.5903,-5.5825,-5.5766,-5.5703,-5.5703,-5.5868,-5.6094,-5.5932,-5.6454,-5.7239,-5.7725,-5.8197,-5.854,-5.8351,-5.849,-5.8716,-5.8716,-5.8716,-5.8716,-5.8716,-5.8716,-5.8716,-5.8716,-5.8716,-5.8656,-5.8468,-5.8406,-5.8257,-5.7895,-5.7849,-5.793,-5.8142,-5.8476,-5.8829,-5.904,-5.871,-5.8519,-5.8685,-5.8444,-5.8338,-5.8572,-5.8231,-5.8142,-5.8572,-5.8301,-5.8015,-5.7719,-5.7941,-5.7346,-5.5698,-5.7647,-5.8155,-5.6854,-5.8236,-5.9012,-5.9012,-5.9012,-5.9012,-5.9012,-5.9012,-5.9012,-5.9012,-5.9012,-5.9012,-5.9012,-5.8632,-5.8192,-5.7594,-5.6996,-5.6241,-5.5409,-5.5409,-5.5409,-5.5426,-5.5846,-5.6006,-5.6165,-4.5477,-4.5664,-4.6028,-4.7147,-4.738,-4.7706,-4.8569,-4.8695,-4.8695,-4.8695,-4.8872,-4.9642,-5.1423,-5.1809,-5.2755,-5.4644,-5.4905,-5.516,-5.5566,-5.5649,-5.5789,-5.6014,-5.6147,-5.6201,-5.6222,-5.6297,-5.6379,-5.6495,-5.6505,-5.6007,-5.5058,-5.6102,-5.623,-5.5569,-5.6169,-5.6307,-5.6096,-5.6059,-5.5962,-5.5787,-5.5787,-5.5745,-5.5684,-5.564,-5.5485,-5.5288,-5.5138,-5.5163,-5.5332,-5.5972,-5.6817,-5.7585,-5.7351,-5.7806,-5.8438,-5.8438,-5.8586,-5.8716,-5.8716,-5.8716,-5.8716,-5.8716,-5.8656,-5.8511,-5.815,-5.8015,-5.7877,-5.7534,-5.7388,-5.7388,-5.7455,-5.7388,-5.7388,-5.7455,-5.7486,-5.7583,-5.7831,-5.7867,-5.7978,-5.8338,-5.8205,-5.8189,-5.8497,-5.8559,-5.8436,-5.7984,-5.8143,-5.7528,-5.5907,-5.7534,-5.7995,-5.6902,-5.8304,-5.9012,-5.9149,-5.9012,-5.9012,-5.9012,-5.9012,-5.9012,-5.9012,-5.9012,-5.9012,-5.8944,-5.8492,-5.812,-5.7814,-5.6614,-5.5878,-5.5409,-5.5409,-5.5409,-5.5409,-5.583,-5.6006,-5.6086,-4.6507,-4.6811,-4.7191,-4.7965,-4.829,-4.8569,-4.8906,-4.8974,-4.8974,-4.8974,-4.8974,-4.9743,-5.1659,-5.2088,-5.2958,-5.4655,-5.5243,-5.5544,-5.5607,-5.5827,-5.6033,-5.6167,-5.6186,-5.6233,-5.63,-5.6422,-5.6476,-5.6495,-5.6556,-5.574,-5.416,-5.5822,-5.6524,-5.6379,-5.627,-5.6194,-5.6096,-5.596,-5.5882,-5.5787,-5.5745,-5.5703,-5.5662,-5.5437,-5.5314,-5.5217,-5.4604,-5.4386,-5.4378,-5.4168,-5.5115,-5.6434,-5.6413,-5.697,-5.7621,-5.7621,-5.8141,-5.8716,-5.8716,-5.8716,-5.8716,-5.8716,-5.8425,-5.8168,-5.8105,-5.7849,-5.7534,-5.7138,-5.6742,-5.6653,-5.7003,-5.6742,-5.6653,-5.7003,-5.7054,-5.7054,-5.7087,-5.7289,-5.7601,-5.7997,-5.7449,-5.7438,-5.8495,-5.878,-5.8859,-5.888,-5.8214,-5.7377,-5.6544,-5.7384,-5.771,-5.7271,-5.8421,-5.9149,-5.9569,-5.9149,-5.9012,-5.9012,-5.9012,-5.9012,-5.9012,-5.9012,-5.9012,-5.9012,-5.8944,-5.8263,-5.7222,-5.602,-5.5409,-5.5409,-5.5409,-5.5409,-5.5409,-5.5409,-5.5588,-5.5863,-4.7482,-4.7706,-4.7947,-4.8549,-4.8783,-4.894,-4.9262,-4.9408,-4.9491,-4.9491,-4.9491,-5.0161,-5.193,-5.237,-5.3277,-5.5134,-5.5477,-5.567,-5.5827,-5.6035,-5.6147,-5.6205,-5.6321,-5.6388,-5.6426,-5.6504,-5.6549,-5.6549,-5.6593,-5.5973,-5.481,-5.5986,-5.6439,-5.6249,-5.6117,-5.602,-5.5924,-5.5864,-5.5784,-5.5745,-5.5724,-5.5596,-5.5437,-5.5339,-5.5037,-5.4666,-5.4397,-5.4177,-5.4,-5.3832,-5.4574,-5.5522,-5.5522,-5.6097,-5.6785,-5.6785,-5.736,-5.7992,-5.7992,-5.814,-5.8363,-5.8363,-5.8078,-5.7708,-5.7498,-5.7338,-5.7156,-5.6742,-5.6492,-5.6455,-5.66,-5.6492,-5.6437,-5.66,-5.6653,-5.6635,-5.6706,-5.6881,-5.7351,-5.8203,-5.7807,-5.7959,-5.915,-5.9356,-5.9265,-5.8882,-5.8959,-5.848,-5.7352,-5.7953,-5.8113,-5.7551,-5.847,-5.9081,-5.9217,-5.9081,-5.9012,-5.9012,-5.9012,-5.9012,-5.9012,-5.9012,-5.8789,-5.8405,-5.812,-5.7446,-5.6614,-5.5717,-5.5409,-5.5409,-5.5409,-5.5409,-5.5426,-5.5588,-5.5702,-5.5863,-4.831,-4.844,-4.8604,-4.9061,-4.9206,-4.9315,-4.9555,-4.9787,-4.9936,-4.9936,-4.9993,-5.0545,-5.1893,-5.2488,-5.3472,-5.5105,-5.5535,-5.5808,-5.6033,-5.6147,-5.6225,-5.6283,-5.6418,-5.6517,-5.6543,-5.6581,-5.6592,-5.6572,-5.6572,-5.6102,-5.521,-5.5739,-5.6036,-5.6059,-5.5981,-5.5903,-5.5787,-5.5766,-5.5703,-5.5596,-5.5596,-5.5413,-5.5138,-5.5037,-5.4697,-5.4281,-5.4177,-5.4,-5.3813,-5.3813,-5.4184,-5.4648,-5.4648,-5.5243,-5.593,-5.593,-5.6506,-5.7156,-5.7156,-5.7548,-5.7906,-5.7755,-5.7684,-5.7486,-5.7087,-5.6899,-5.6742,-5.6437,-5.6401,-5.6401,-5.6401,-5.6401,-5.6401,-5.6401,-5.6346,-5.6255,-5.6311,-5.6402,-5.6797,-5.7876,-5.7637,-5.7801,-5.8967,-5.9142,-5.903,-5.8549,-5.8969,-5.8683,-5.7442,-5.8045,-5.8172,-5.7613,-5.8536,-5.9081,-5.9149,-5.9081,-5.9012,-5.9012,-5.9012,-5.9012,-5.9012,-5.9012,-5.8789,-5.8334,-5.752,-5.6996,-5.6536,-5.5717,-5.5409,-5.5409,-5.5409,-5.5409,-5.5409,-5.5604,-5.5685,-5.5766,-4.894,-4.8974,-4.9094,-4.9427,-4.9665,-4.9784,-4.9803,-5.0019,-5.0206,-5.0206,-5.0425,-5.0794,-5.1334,-5.2423,-5.3453,-5.4337,-5.5383,-5.6051,-5.6186,-5.6205,-5.6283,-5.6476,-5.6495,-5.6535,-5.6601,-5.6609,-5.6571,-5.6493,-5.6493,-5.5991,-5.4994,-5.4874,-5.5229,-5.6,-5.5865,-5.5787,-5.5806,-5.5724,-5.5551,-5.5314,-5.5314,-5.5111,-5.4776,-5.443,-5.4315,-5.4246,-5.3926,-5.3794,-5.3813,-5.3813,-5.3813,-5.3813,-5.3813,-5.437,-5.502,-5.502,-5.5633,-5.632,-5.632,-5.6915,-5.7427,-5.7032,-5.7263,-5.7486,-5.7087,-5.6689,-5.6401,-5.6401,-5.6401,-5.6401,-5.6401,-5.6401,-5.6401,-5.6401,-5.6088,-5.5918,-5.5918,-5.5689,-5.5826,-5.6827,-5.6403,-5.6433,-5.7494,-5.7747,-5.7816,-5.7906,-5.7886,-5.7477,-5.665,-5.7384,-5.7649,-5.7318,-5.8421,-5.9217,-5.9569,-5.9217,-5.9012,-5.9012,-5.9012,-5.9012,-5.9012,-5.9012,-5.9012,-5.8927,-5.7741,-5.7222,-5.7072,-5.5861,-5.5409,-5.5409,-5.5409,-5.5409,-5.5409,-5.5409,-5.5409,-5.5491,-4.9262,-4.9457,-4.9579,-4.9703,-4.991,-5.0068,-5.0068,-5.0298,-5.0467,-5.0467,-5.0663,-5.0868,-5.1046,-5.245,-5.3741,-5.4666,-5.559,-5.6167,-5.6263,-5.6341,-5.6418,-5.6495,-5.6544,-5.6562,-5.6528,-5.6533,-5.6474,-5.6364,-5.6358,-5.6142,-5.5742,-5.5671,-5.5711,-5.5865,-5.5765,-5.5724,-5.5724,-5.5508,-5.5389,-5.5288,-5.5056,-5.4776,-5.443,-5.433,-5.4161,-5.3926,-5.3832,-5.3813,-5.3813,-5.3813,-5.3813,-5.3813,-5.3813,-5.398,-5.4184,-5.4184,-5.4779,-5.541,-5.541,-5.5678,-5.6025,-5.6401,-5.6205,-5.6077,-5.6474,-5.6492,-5.6401,-5.6401,-5.6401,-5.6401,-5.6401,-5.6401,-5.6401,-5.6401,-5.6088,-5.5861,-5.5631,-5.5531,-5.5824,-5.6573,-5.6335,-5.6473,-5.7571,-5.7782,-5.7814,-5.7718,-5.8157,-5.8079,-5.7406,-5.7646,-5.771,-5.7613,-5.847,-5.9081,-5.9217,-5.9081,-5.9012,-5.9012,-5.9012,-5.9012,-5.9012,-5.9012,-5.8789,-5.8334,-5.752,-5.6996,-5.6536,-5.5717,-5.5409,-5.5409,-5.5409,-5.5409,-5.5409,-5.5604,-5.5685,-5.5766,-4.9555,-4.9703,-4.983,-4.9917,-5.0183,-5.0342,-5.0342,-5.0567,-5.0718,-5.0718,-5.088,-5.0983,-5.0983,-5.226,-5.3475,-5.4346,-5.523,-5.5928,-5.6358,-5.6437,-5.6513,-5.6531,-5.6543,-5.6534,-5.6493,-5.6437,-5.6378,-5.6263,-5.6226,-5.6115,-5.5982,-5.5943,-5.5864,-5.5766,-5.5618,-5.5551,-5.5531,-5.5243,-5.5037,-5.4924,-5.4716,-5.4397,-5.4125,-5.4125,-5.4,-5.3813,-5.3813,-5.3813,-5.3813,-5.3813,-5.3813,-5.3813,-5.3813,-5.3813,-5.3813,-5.3813,-5.4088,-5.434,-5.434,-5.4559,-5.4802,-5.5134,-5.5108,-5.5167,-5.5812,-5.6186,-5.6401,-5.6401,-5.6401,-5.6401,-5.6401,-5.6401,-5.6401,-5.6401,-5.6088,-5.5804,-5.5531,-5.5413,-5.5571,-5.617,-5.6062,-5.6195,-5.6832,-5.6969,-5.6876,-5.6458,-5.6843,-5.6954,-5.6538,-5.7511,-5.7875,-5.7381,-5.8421,-5.9012,-5.9012,-5.9012,-5.9012,-5.9012,-5.9012,-5.9012,-5.9012,-5.9012,-5.8632,-5.8048,-5.7429,-5.6844,-5.6241,-5.5637,-5.5409,-5.5409,-5.5409,-5.5507,-5.5604,-5.5782,-5.5863,-5.5943,-4.9768,-4.9811,-4.9917,-5.0183,-5.0446,-5.0606,-5.0606,-5.0791,-5.0925,-5.0925,-5.1041,-5.1099,-5.1111,-5.1904,-5.2721,-5.3475,-5.4443,-5.5411,-5.6362,-5.6482,-5.6542,-5.6581,-5.6528,-5.6476,-5.6476,-5.636,-5.6263,-5.6186,-5.6056,-5.5924,-5.5787,-5.5787,-5.5745,-5.5662,-5.5413,-5.5288,-5.5243,-5.4895,-5.4591,-5.4315,-5.4281,-5.4089,-5.3813,-5.3813,-5.3813,-5.3813,-5.3813,-5.3813,-5.3813,-5.3813,-5.3813,-5.3813,-5.3813,-5.3813,-5.3813,-5.3813,-5.3561,-5.33,-5.33,-5.3579,-5.3791,-5.3508,-5.3958,-5.4669,-5.5115,-5.5776,-5.6329,-5.6383,-5.6401,-5.6401,-5.6401,-5.6401,-5.6401,-5.6401,-5.6088,-5.5804,-5.5531,-5.5234,-5.5139,-5.5484,-5.5543,-5.5543,-5.5543,-5.5543,-5.5266,-5.462,-5.4557,-5.4557,-5.4557,-5.7147,-5.8054,-5.6854,-5.8236,-5.9012,-5.9012,-5.9012,-5.9012,-5.9012,-5.9012,-5.9012,-5.9012,-5.8944,-5.8632,-5.8103,-5.7446,-5.6844,-5.6319,-5.5637,-5.5409,-5.5409,-5.5409,-5.5507,-5.5782,-5.5782,-5.5943,-5.6086,-4.9768,-4.9968,-5.0183,-5.0446,-5.0681,-5.0822,-5.0822,-5.0951,-5.1061,-5.1061,-5.1119,-5.117,-5.1171,-5.1418,-5.1927,-5.2759,-5.4274,-5.5267,-5.5567,-5.622,-5.656,-5.6537,-5.6517,-5.6418,-5.6263,-5.6244,-5.6169,-5.6056,-5.6018,-5.5924,-5.5787,-5.5787,-5.5662,-5.5389,-5.5339,-5.5164,-5.4895,-5.456,-5.4364,-5.4281,-5.4017,-5.387,-5.3813,-5.3813,-5.3813,-5.3813,-5.3813,-5.3813,-5.3813,-5.3813,-5.3813,-5.3813,-5.3813,-5.3813,-5.3813,-5.3813,-5.3561,-5.33,-5.33,-5.2985,-5.2777,-5.3267,-5.3778,-5.4329,-5.5027,-5.5348,-5.5669,-5.6276,-5.6401,-5.6401,-5.6401,-5.6401,-5.6401,-5.6401,-5.6088,-5.5804,-5.5531,-5.5234,-5.493,-5.479,-5.479,-5.479,-5.479,-5.479,-5.4896,-5.5182,-5.5164,-5.5164,-5.5164,-5.6919,-5.7596,-5.6788,-5.8236,-5.9012,-5.9012,-5.9012,-5.9012,-5.9012,-5.9012,-5.9012,-5.9012,-5.8492,-5.8492,-5.8719,-5.7222,-5.6691,-5.6904,-5.5861,-5.5409,-5.5409,-5.5409,-5.5426,-5.5507,-5.5927,-5.6086,-5.6165,-4.9936,-5.0206,-5.0467,-5.07,-5.0841,-5.0925,-5.0983,-5.1061,-5.1106,-5.1146,-5.1208,-5.1237,-5.1241,-5.1319,-5.1525,-5.2005,-5.3285,-5.4404,-5.5253,-5.5714,-5.6114,-5.6474,-5.6399,-5.6302,-5.6205,-5.6149,-5.6038,-5.5905,-5.5905,-5.5787,-5.5573,-5.5573,-5.5394,-5.5064,-5.4924,-5.4746,-5.456,-5.4212,-5.4054,-5.4054,-5.387,-5.3813,-5.3813,-5.3813,-5.3813,-5.3813,-5.3813,-5.3813,-5.3813,-5.3813,-5.3813,-5.3756,-5.3639,-5.3561,-5.3561,-5.34,-5.3217,-5.3005,-5.2857,-5.2389,-5.2089,-5.2489,-5.3056,-5.3617,-5.4045,-5.442,-5.4902,-5.5687,-5.5847,-5.5955,-5.6329,-5.6401,-5.6401,-5.6401,-5.6273,-5.5975,-5.559,-5.5354,-5.5053,-5.4575,-5.4512,-5.4512,-5.4512,-5.4512,-5.462,-5.4939,-5.5,-5.5,-5.5,-5.6481,-5.7144,-5.6805,-5.8236,-5.9012,-5.9012,-5.9012,-5.9012,-5.9012,-5.9012,-5.9012,-5.9012,-5.8632,-5.8405,-5.8103,-5.7131,-5.6614,-5.6319,-5.5637,-5.5409,-5.5409,-5.5409,-5.5507,-5.5588,-5.6006,-5.6165,-5.6244,-5.0206,-5.0446,-5.0644,-5.0855,-5.0906,-5.0964,-5.108,-5.1126,-5.1147,-5.1201,-5.1272,-5.1319,-5.1328,-5.1363,-5.1386,-5.1392,-5.2055,-5.3173,-5.4794,-5.4961,-5.5316,-5.6031,-5.6012,-5.5993,-5.5956,-5.5979,-5.5924,-5.5787,-5.5766,-5.5577,-5.5288,-5.5262,-5.5056,-5.4716,-5.443,-5.4281,-5.4212,-5.3926,-5.3813,-5.3813,-5.3813,-5.3813,-5.3813,-5.3813,-5.3813,-5.3794,-5.3717,-5.3717,-5.3717,-5.3678,-5.3639,-5.36,-5.33,-5.3217,-5.3133,-5.2787,-5.2717,-5.2654,-5.2297,-5.1951,-5.169,-5.169,-5.219,-5.2725,-5.285,-5.3385,-5.4081,-5.4866,-5.5134,-5.5419,-5.6097,-5.6311,-5.6347,-5.624,-5.6222,-5.6039,-5.5472,-5.5355,-5.5154,-5.462,-5.4512,-5.4512,-5.4512,-5.4512,-5.4512,-5.4512,-5.4512,-5.4512,-5.4512,-5.5857,-5.6667,-5.6805,-5.8236,-5.9012,-5.9012,-5.9012,-5.9012,-5.9012,-5.9012,-5.9012,-5.9012,-5.8944,-5.8334,-5.7372,-5.7131,-5.6459,-5.5572,-5.5409,-5.5409,-5.5409,-5.5409,-5.5507,-5.5782,-5.6006,-5.6165,-5.6307,-5.0446,-5.0567,-5.0644,-5.0855,-5.0906,-5.0964,-5.108,-5.1152,-5.121,-5.128,-5.1335,-5.1375,-5.1373,-5.1378,-5.1384,-5.1317,-5.145,-5.1955,-5.2958,-5.3708,-5.4091,-5.4056,-5.4733,-5.5047,-5.4954,-5.5595,-5.5885,-5.5787,-5.5516,-5.535,-5.5288,-5.5009,-5.4716,-5.4364,-5.433,-5.4142,-5.387,-5.3832,-5.3813,-5.3813,-5.3813,-5.3813,-5.3813,-5.3813,-5.3813,-5.3756,-5.3481,-5.34,-5.3341,-5.3066,-5.2937,-5.2937,-5.2893,-5.2893,-5.2806,-5.2389,-5.2297,-5.2297,-5.225,-5.1951,-5.169,-5.169,-5.1779,-5.2047,-5.2725,-5.2975,-5.3278,-5.4045,-5.4741,-5.5241,-5.5366,-5.5937,-5.6186,-5.5508,-5.5401,-5.5275,-5.4871,-5.4644,-5.4618,-5.4922,-5.4683,-5.4512,-5.4512,-5.4512,-5.4512,-5.4512,-5.4512,-5.4512,-5.4512,-5.5322,-5.6115,-5.6788,-5.8236,-5.9012,-5.9012,-5.9012,-5.9012,-5.9012,-5.9012,-5.9012,-5.9012,-5.8492,-5.812,-5.7887,-5.692,-5.6303,-5.6083,-5.5637,-5.5409,-5.5409,-5.5409,-5.5426,-5.5507,-5.5927,-5.6006,-5.5943,-5.0547,-5.07,-5.0789,-5.089,-5.0964,-5.1041,-5.1138,-5.1197,-5.1275,-5.1347,-5.1389,-5.1398,-5.1395,-5.1377,-5.1316,-5.1304,-5.1273,-5.1389,-5.1773,-5.2566,-5.3204,-5.3572,-5.3906,-5.4048,-5.3956,-5.4728,-5.5052,-5.4818,-5.514,-5.5119,-5.4758,-5.4623,-5.433,-5.4017,-5.4017,-5.3926,-5.3813,-5.3813,-5.3813,-5.3813,-5.3813,-5.3813,-5.3774,-5.36,-5.3521,-5.3481,-5.3133,-5.3023,-5.3023,-5.285,-5.2806,-5.2761,-5.2563,-5.2499,-5.2408,-5.2048,-5.1951,-5.1951,-5.1951,-5.1822,-5.169,-5.169,-5.169,-5.1797,-5.2154,-5.2243,-5.2457,-5.3242,-5.3689,-5.4206,-5.5062,-5.5508,-5.5776,-5.5847,-5.5847,-5.5721,-5.537,-5.5102,-5.4951,-5.5018,-5.4683,-5.4512,-5.4512,-5.4512,-5.4512,-5.4512,-5.4512,-5.4512,-5.4512,-5.5219,-5.5788,-5.615,-5.8012,-5.9012,-5.9012,-5.9012,-5.9012,-5.9012,-5.9012,-5.8858,-5.8492,-5.8562,-5.8031,-5.7147,-5.692,-5.6397,-5.5781,-5.5491,-5.5409,-5.5409,-5.5409,-5.5409,-5.5409,-5.5846,-5.5943,-5.6006,-5.0663,-5.0789,-5.0925,-5.0945,-5.1041,-5.1138,-5.1215,-5.1273,-5.1307,-5.1382,-5.1406,-5.1385,-5.1382,-5.1325,-5.1293,-5.1254,-5.1215,-5.1138,-5.1064,-5.1625,-5.2263,-5.2937,-5.3044,-5.3146,-5.3302,-5.3819,-5.398,-5.3722,-5.4242,-5.4267,-5.3752,-5.3837,-5.3773,-5.3534,-5.372,-5.3813,-5.3813,-5.3813,-5.3813,-5.3794,-5.3736,-5.3678,-5.3639,-5.33,-5.3175,-5.3151,-5.2787,-5.2654,-5.2654,-5.2581,-5.2536,-5.2472,-5.2173,-5.206,-5.203,-5.179,-5.169,-5.169,-5.169,-5.169,-5.169,-5.169,-5.169,-5.169,-5.169,-5.169,-5.1869,-5.2475,-5.2761,-5.3242,-5.4456,-5.4813,-5.5134,-5.574,-5.5793,-5.5737,-5.5617,-5.5308,-5.5084,-5.5035,-5.4683,-5.4512,-5.4512,-5.4512,-5.4512,-5.4512,-5.4512,-5.4512,-5.4512,-5.5046,-5.5426,-5.5615,-5.765,-5.8754,-5.8754,-5.8926,-5.8944,-5.8789,-5.8789,-5.8492,-5.7887,-5.8334,-5.7741,-5.6319,-5.6768,-5.6397,-5.5409,-5.5409,-5.5409,-5.5409,-5.5409,-5.5409,-5.5409,-5.5685,-5.5863,-5.591,-5.0839,-5.089,-5.0945,-5.1061,-5.1099,-5.1138,-5.1273,-5.1293,-5.1307,-5.1382,-5.1406,-5.1379,-5.1308,-5.1304,-5.1254,-5.1138,-5.1119,-5.1045,-5.0919,-5.0957,-5.1015,-5.1093,-5.1739,-5.2473,-5.3282,-5.3053,-5.291,-5.2886,-5.2389,-5.2127,-5.2081,-5.2526,-5.2717,-5.2717,-5.3478,-5.3813,-5.3813,-5.3813,-5.3813,-5.3756,-5.3481,-5.3359,-5.33,-5.298,-5.285,-5.2806,-5.2389,-5.2232,-5.2203,-5.1871,-5.179,-5.179,-5.174,-5.174,-5.174,-5.169,-5.169,-5.169,-5.169,-5.169,-5.169,-5.169,-5.169,-5.169,-5.169,-5.169,-5.1708,-5.1779,-5.2368,-5.2921,-5.3028,-5.3635,-5.4135,-5.4188,-5.3993,-5.4024,-5.4677,-5.4308,-5.4191,-5.4905,-5.4683,-5.4512,-5.4512,-5.4512,-5.4512,-5.4512,-5.4512,-5.4512,-5.4512,-5.4563,-5.4908,-5.5598,-5.7167,-5.7978,-5.7978,-5.8668,-5.8719,-5.8192,-5.8192,-5.7814,-5.7297,-5.7281,-5.698,-5.6319,-5.6319,-5.602,-5.5409,-5.5409,-5.5409,-5.5409,-5.5409,-5.5409,-5.5409,-5.5685,-5.5685,-5.5491,-5.089,-5.0983,-5.1041,-5.1099,-5.1177,-5.1235,-5.1293,-5.1337,-5.1362,-5.1406,-5.1361,-5.1322,-5.1304,-5.1235,-5.1157,-5.1099,-5.1022,-5.0948,-5.0899,-5.0863,-5.0829,-5.0775,-5.1047,-5.1241,-5.1363,-5.1786,-5.1815,-5.1433,-5.1739,-5.1776,-5.1575,-5.1768,-5.1862,-5.1881,-5.2178,-5.2587,-5.3051,-5.2802,-5.3019,-5.3481,-5.3133,-5.298,-5.2937,-5.259,-5.2454,-5.2361,-5.2048,-5.1902,-5.1853,-5.174,-5.169,-5.169,-5.169,-5.169,-5.169,-5.169,-5.169,-5.169,-5.169,-5.169,-5.169,-5.169,-5.169,-5.169,-5.169,-5.169,-5.169,-5.169,-5.1922,-5.2297,-5.2796,-5.3118,-5.3474,-5.3956,-5.4332,-5.4633,-5.4697,-5.4776,-5.4902,-5.5018,-5.4683,-5.4512,-5.4512,-5.4512,-5.4512,-5.4512,-5.4512,-5.4367,-5.4045,-5.3683,-5.3585,-5.3856,-5.4906,-5.603,-5.7219,-5.7107,-5.7191,-5.7423,-5.7082,-5.6787,-5.6691,-5.7055,-5.6691,-5.5797,-5.6162,-5.5941,-5.5409,-5.5409,-5.5409,-5.5409,-5.5409,-5.5409,-5.5409,-5.5507,-5.5604,-5.5685,-5.0964,-5.1041,-5.1119,-5.1157,-5.1235,-5.131,-5.1322,-5.1362,-5.1384,-5.1367,-5.1322,-5.1273,-5.1235,-5.1141,-5.1064,-5.1041,-5.0932,-5.0877,-5.0863,-5.0701,-5.0625,-5.0702,-5.0586,-5.0445,-5.0206,-5.0634,-5.0647,-5.0209,-5.0726,-5.086,-5.0618,-5.0878,-5.0989,-5.1008,-5.1286,-5.1658,-5.2047,-5.1796,-5.2155,-5.2747,-5.2423,-5.239,-5.2563,-5.2173,-5.203,-5.203,-5.1772,-5.169,-5.169,-5.169,-5.169,-5.169,-5.169,-5.169,-5.169,-5.169,-5.169,-5.169,-5.169,-5.169,-5.169,-5.169,-5.169,-5.169,-5.169,-5.169,-5.169,-5.169,-5.169,-5.1869,-5.2404,-5.2511,-5.2761,-5.3406,-5.3887,-5.4256,-5.438,-5.4636,-5.4852,-5.4834,-5.462,-5.4448,-5.4239,-5.4239,-5.4175,-5.3946,-5.3946,-5.3815,-5.3416,-5.3043,-5.2836,-5.2836,-5.3355,-5.4207,-5.5501,-5.5603,-5.5798,-5.609,-5.5743,-5.5487,-5.5349,-5.5798,-5.562,-5.5102,-5.5534,-5.5602,-5.5409,-5.5409,-5.5409,-5.5409,-5.5409,-5.5409,-5.5409,-5.5409,-5.5507,-5.5685,-5.108,-5.1099,-5.1138,-5.1273,-5.1293,-5.1326,-5.1381,-5.1406,-5.1375,-5.1325,-5.1293,-5.1254,-5.1119,-5.1051,-5.0977,-5.0909,-5.0844,-5.0793,-5.0793,-5.0425,-5.0358,-5.0683,-5.038,-5.0206,-5.0183,-4.9684,-4.9415,-4.9415,-4.9061,-4.8909,-4.8927,-4.9726,-5.0098,-5.0135,-5.0989,-5.1213,-5.089,-5.089,-5.1151,-5.1566,-5.123,-5.1517,-5.2137,-5.1804,-5.169,-5.169,-5.169,-5.169,-5.169,-5.169,-5.169,-5.169,-5.169,-5.169,-5.169,-5.169,-5.169,-5.169,-5.169,-5.169,-5.169,-5.169,-5.169,-5.169,-5.169,-5.169,-5.169,-5.169,-5.169,-5.169,-5.169,-5.169,-5.1839,-5.2307,-5.2144,-5.2428,-5.3624,-5.3523,-5.3667,-5.4408,-5.4494,-5.4303,-5.3766,-5.37,-5.3416,-5.2836,-5.2767,-5.2767,-5.2767,-5.2767,-5.2767,-5.2767,-5.2767,-5.2767,-5.2767,-5.4293,-5.4755,-5.4178,-5.4178,-5.3891,-5.3321,-5.3321,-5.3709,-5.4389,-5.4389,-5.4778,-5.5393,-5.5393,-5.5409,-5.5409,-5.5409,-5.5409,-5.5409,-5.5409,-5.5409,-5.5409,-5.1099,-5.1177,-5.1254,-5.1293,-5.1337,-5.1379,-5.1406,-5.1362,-5.1314,-5.1304,-5.1215,-5.1138,-5.1099,-5.0993,-5.0919,-5.0897,-5.0827,-5.0701,-5.0467,-5.0298,-5.0159,-5.0081,-4.9987,-4.983,-4.9627,-4.9488,-4.927,-4.9061,-4.8925,-4.8909,-4.8909,-4.915,-4.9262,-4.928,-4.9288,-4.9565,-5.0041,-4.9542,-4.976,-5.0397,-4.9988,-5.0331,-5.0981,-5.0901,-5.1208,-5.169,-5.169,-5.169,-5.169,-5.169,-5.169,-5.169,-5.169,-5.169,-5.169,-5.169,-5.169,-5.169,-5.169,-5.169,-5.169,-5.169,-5.169,-5.169,-5.169,-5.169,-5.169,-5.169,-5.169,-5.169,-5.169,-5.1538,-5.1404,-5.1281,-5.1354,-5.1442,-5.1373,-5.164,-5.2,-5.2536,-5.2621,-5.2757,-5.3078,-5.306,-5.2974,-5.2836,-5.2487,-5.2274,-5.2274,-5.1858,-5.1672,-5.1672,-5.1672,-5.1672,-5.1672,-5.2505,-5.3129,-5.3453,-5.297,-5.2957,-5.3321,-5.3321,-5.3434,-5.3644,-5.3644,-5.3758,-5.3952,-5.3952,-5.4244,-5.4713,-5.4713,-5.5005,-5.5409,-5.5409,-5.5409,-5.5409,-5.1177,-5.1235,-5.131,-5.1327,-5.1371,-5.1406,-5.1406,-5.1327,-5.125,-5.1225,-5.1093,-5.1015,-5.0974,-5.0885,-5.0829,-5.0863,-5.0701,-5.0467,-5.0116,-4.9943,-4.9803,-4.9655,-4.9521,-4.942,-4.9415,-4.9289,-4.9094,-4.8909,-4.8909,-4.8909,-4.8909,-4.8785,-4.8695,-4.8695,-4.8402,-4.8446,-4.8802,-4.8405,-4.8596,-4.9198,-4.8948,-4.9335,-5.0066,-5.0388,-5.0798,-5.1262,-5.1583,-5.169,-5.169,-5.169,-5.169,-5.169,-5.169,-5.169,-5.169,-5.169,-5.169,-5.169,-5.169,-5.169,-5.169,-5.169,-5.169,-5.169,-5.169,-5.169,-5.169,-5.169,-5.169,-5.169,-5.1538,-5.1384,-5.1176,-5.0712,-5.0597,-5.0496,-5.0356,-5.0469,-5.077,-5.1279,-5.1631,-5.1847,-5.2004,-5.2304,-5.2416,-5.2219,-5.1875,-5.1639,-5.1639,-5.1392,-5.1183,-5.1183,-5.1183,-5.1183,-5.1183,-5.1524,-5.1884,-5.2326,-5.195,-5.2041,-5.2479,-5.2479,-5.2624,-5.2867,-5.2867,-5.3045,-5.3321,-5.3321,-5.358,-5.3968,-5.3968,-5.4405,-5.5005,-5.5005,-5.5183,-5.5409,-5.1273,-5.13,-5.1322,-5.1381,-5.1406,-5.1406,-5.1382,-5.1264,-5.1143,-5.1082,-5.0968,-5.0871,-5.0812,-5.0738,-5.072,-5.0793,-5.0488,-5.014,-4.9803,-4.9529,-4.9384,-4.9352,-4.9061,-4.9027,-4.9352,-4.9061,-4.8909,-4.8909,-4.8874,-4.8874,-4.8855,-4.8514,-4.8345,-4.8345,-4.8093,-4.7788,-4.7511,-4.7468,-4.7707,-4.8068,-4.8068,-4.8532,-4.9299,-5.0031,-5.0334,-5.0513,-5.1298,-5.1583,-5.1601,-5.1672,-5.169,-5.169,-5.169,-5.169,-5.169,-5.169,-5.169,-5.169,-5.169,-5.169,-5.169,-5.169,-5.169,-5.169,-5.169,-5.169,-5.169,-5.169,-5.169,-5.1589,-5.135,-5.1228,-5.0946,-5.0397,-4.9797,-4.9547,-4.9955,-4.9631,-4.9657,-5.0376,-5.1061,-5.1292,-5.0801,-5.1388,-5.1647,-5.1242,-5.1183,-5.1183,-5.1183,-5.1183,-5.1183,-5.1183,-5.1183,-5.1183,-5.1183,-5.1183,-5.1183,-5.1183,-5.1183,-5.1183,-5.1183,-5.1183,-5.1523,-5.2106,-5.2106,-5.2495,-5.3126,-5.3126,-5.3175,-5.3223,-5.3223,-5.3661,-5.4308,-5.4277,-5.4616,-5.5149,-5.1293,-5.1336,-5.1372,-5.1406,-5.1406,-5.1363,-5.1256,-5.1166,-5.1075,-5.0964,-5.0871,-5.0812,-5.0793,-5.0738,-5.0701,-5.072,-5.0425,-4.9993,-4.9529,-4.9427,-4.9289,-4.9027,-4.8943,-4.8925,-4.8993,-4.8943,-4.8909,-4.8909,-4.8623,-4.8495,-4.8495,-4.821,-4.8111,-4.8053,-4.7747,-4.7597,-4.7468,-4.7205,-4.7178,-4.7247,-4.7247,-4.7711,-4.8443,-4.8621,-4.9049,-4.9692,-5.0477,-5.0762,-5.0869,-5.1476,-5.169,-5.169,-5.169,-5.169,-5.169,-5.169,-5.169,-5.169,-5.169,-5.169,-5.169,-5.169,-5.169,-5.169,-5.169,-5.169,-5.169,-5.169,-5.1538,-5.1384,-5.1298,-5.0567,-4.9838,-4.9428,-4.8652,-4.8049,-4.7885,-4.765,-4.7792,-4.8474,-4.8702,-4.9012,-4.9391,-5.0107,-5.07,-5.1151,-5.1183,-5.1183,-5.1183,-5.1183,-5.1183,-5.1183,-5.1183,-5.1183,-5.1183,-5.1183,-5.1183,-5.1183,-5.1183,-5.1183,-5.1183,-5.1183,-5.1264,-5.141,-5.141,-5.1491,-5.1653,-5.1653,-5.196,-5.2446,-5.2446,-5.29,-5.3533,-5.3289,-5.3295,-5.3418,-5.1327,-5.1372,-5.1402,-5.1406,-5.1379,-5.1316,-5.1236,-5.1087,-5.099,-5.0912,-5.0817,-5.0758,-5.0758,-5.0567,-5.0361,-5.0111,-4.9936,-4.9637,-4.9193,-4.916,-4.9094,-4.8909,-4.8909,-4.8909,-4.8909,-4.875,-4.866,-4.866,-4.8514,-4.8345,-4.821,-4.7893,-4.7747,-4.7747,-4.7425,-4.7249,-4.7249,-4.707,-4.6998,-4.6998,-4.6998,-4.7247,-4.7658,-4.8032,-4.8425,-4.8871,-4.9656,-5.0174,-5.062,-5.1422,-5.169,-5.169,-5.169,-5.169,-5.169,-5.169,-5.169,-5.169,-5.169,-5.169,-5.169,-5.169,-5.169,-5.169,-5.169,-5.169,-5.164,-5.1538,-5.1193,-5.0839,-5.055,-4.9838,-4.9188,-4.8821,-4.8177,-4.7638,-4.7437,-4.7098,-4.7022,-4.7427,-4.7799,-4.8269,-4.8949,-4.9677,-5.026,-5.0649,-5.0989,-5.1183,-5.1183,-5.1183,-5.1183,-5.1183,-5.1183,-5.1183,-5.1183,-5.1183,-5.1183,-5.1183,-5.1183,-5.1183,-5.1183,-5.1183,-5.1183,-5.1183,-5.1183,-5.1183,-5.1183,-5.1183,-5.1394,-5.1718,-5.1718,-5.2155,-5.2789,-5.2552,-5.2533,-5.2713,-5.1364,-5.1375,-5.1361,-5.1377,-5.1327,-5.1228,-5.1142,-5.1009,-5.0894,-5.0875,-5.076,-5.0683,-5.0624,-5.0336,-4.9936,-4.9427,-4.9415,-4.9257,-4.8943,-4.8909,-4.8909,-4.8909,-4.8909,-4.8909,-4.8909,-4.8587,-4.8383,-4.8383,-4.8307,-4.8114,-4.7911,-4.7578,-4.7425,-4.7425,-4.7116,-4.6998,-4.6998,-4.6998,-4.6998,-4.6998,-4.6998,-4.6998,-4.7051,-4.7729,-4.7961,-4.8068,-4.8853,-4.9727,-5.0602,-5.1262,-5.1583,-5.169,-5.169,-5.169,-5.169,-5.169,-5.169,-5.169,-5.169,-5.169,-5.169,-5.169,-5.169,-5.169,-5.1589,-5.1538,-5.147,-5.1211,-5.0659,-5.0107,-4.9588,-4.9067,-4.8589,-4.8353,-4.7869,-4.7571,-4.7571,-4.715,-4.6876,-4.6876,-4.7443,-4.8091,-4.8787,-4.9386,-4.9791,-4.9904,-5.06,-5.1005,-5.1005,-5.1118,-5.1183,-5.1183,-5.1183,-5.1183,-5.1183,-5.1183,-5.1183,-5.1183,-5.1183,-5.1183,-5.1183,-5.1183,-5.1183,-5.1183,-5.1183,-5.1183,-5.1183,-5.1183,-5.1183,-5.1183,-5.1016,-5.1279,-5.1797,-5.154,-5.1621,-5.1805,-5.1255,-5.1314,-5.125,-5.1298,-5.1219,-5.1078,-5.0964,-5.0914,-5.0856,-5.0721,-5.0702,-5.0604,-5.0294,-5.0038,-4.9721,-4.9427,-4.9415,-4.9257,-4.8943,-4.8909,-4.8909,-4.8909,-4.8909,-4.8909,-4.8909,-4.8587,-4.8383,-4.8383,-4.7893,-4.7578,-4.7554,-4.7205,-4.7088,-4.7088,-4.7025,-4.6998,-4.6998,-4.6998,-4.6998,-4.6998,-4.6998,-4.6998,-4.6998,-4.7105,-4.7158,-4.7265,-4.805,-4.9264,-5.053,-5.0637,-5.1119,-5.169,-5.169,-5.169,-5.169,-5.169,-5.169,-5.169,-5.169,-5.169,-5.169,-5.169,-5.169,-5.1571,-5.1035,-5.0928,-5.0857,-5.0642,-4.9919,-4.9231,-4.9067,-4.8353,-4.782,-4.782,-4.7354,-4.703,-4.703,-4.6961,-4.6876,-4.6876,-4.6973,-4.733,-4.8074,-4.8236,-4.8528,-4.9127,-4.9839,-5.0244,-5.0244,-5.0843,-5.1183,-5.1183,-5.1183,-5.1183,-5.1183,-5.1183,-5.1183,-5.1183,-5.1183,-5.1183,-5.1183,-5.1183,-5.1183,-5.1183,-5.1183,-5.1183,-5.1183,-5.1183,-5.1183,-5.1108,-5.037,-5.0089,-5.0153,-4.9652,-4.9369,-4.9296,-4.9848,-4.9834,-4.9945,-5.038,-5.0383,-5.0447,-5.0853,-5.0837,-5.0779,-5.0721,-5.0544,-5.0358,-5.0206,-4.983,-4.9469,-4.916,-4.9127,-4.9061,-4.8909,-4.8909,-4.8909,-4.8909,-4.8909,-4.882,-4.8623,-4.8326,-4.8093,-4.7893,-4.7621,-4.7425,-4.7205,-4.707,-4.6998,-4.6998,-4.6998,-4.6998,-4.6998,-4.6998,-4.6998,-4.6998,-4.6998,-4.6998,-4.6998,-4.6998,-4.6998,-4.7105,-4.789,-4.8889,-4.9906,-5.0352,-5.103,-5.169,-5.169,-5.169,-5.169,-5.169,-5.169,-5.169,-5.169,-5.169,-5.169,-5.169,-5.1589,-5.1384,-5.1158,-5.053,-4.9971,-4.9763,-4.9093,-4.8493,-4.8289,-4.7671,-4.7218,-4.7218,-4.7014,-4.6876,-4.6876,-4.6876,-4.6876,-4.6876,-4.6876,-4.7022,-4.7346,-4.7767,-4.8139,-4.8431,-4.9111,-4.9677,-5.0082,-5.0406,-5.0762,-5.1167,-5.1183,-5.1183,-5.1183,-5.1183,-5.1183,-5.1183,-5.1183,-5.1183,-5.1183,-5.1183,-5.1183,-5.1183,-5.1183,-5.1183,-5.1183,-5.1183,-5.094,-5.0448,-5.0042,-4.9528,-4.8982,-4.9057,-4.8957,-4.8827]}]]